[[{"header":{"parameterUnit":"m.s-1","parameterCategory":1,"la1":31.0,"la2":29.5877,"lo1":-88.7671,"lo2":-86.6584,"dx":0.0162,"dy":0.0185,"nx":115,"ny":88,"refTime":"2023-01-06T18:00:00:Z","depth":0,"parameterNumber":2,"parameterNumberName":"U-component_of_WINDS"},"data":[0.0,0.0,0.0,0.0,0.0,0.0,0.0,0.0,0.0,0.0,0.0,0.0,0.0,0.0,0.0,0.0,0.0,0.0,0.0,0.0,0.0,0.0,0.0,0.0,0.0,0.0,0.0,0.0,0.0,0.0,0.0,0.0,0.0,0.0,0.0,0.0,0.0,0.0,0.0,0.0,0.0,0.0,0.0,0.0,0.0,0.0,0.0,0.0,0.0,0.0,0.0,0.0,0.0,0.0,0.0,0.0,0.0,0.0,0.0,0.0,0.0,0.0,0.0,0.0,0.0,0.0,0.0,0.0,0.0,0.0,0.0,0.0,0.0,0.0,0.0,0.0,0.0,0.0,0.0,0.0,0.0,0.0,0.0,0.0,0.0,0.0,0.0,0.0,0.0,0.0,0.0,0.0,0.0,0.0,0.0,0.0,0.0,0.0,0.0,0.0,0.0,0.0,0.0,0.0,0.0,0.0,0.0,0.0,0.0,0.0,0.0,0.0,0.0,0.0,0.0,0.0,0.0,0.0,0.0,0.0,0.0,0.0,0.0,0.0,0.0,0.0,0.0,0.0,0.0,0.0,0.0,0.0,0.0,0.0,0.0,0.0,0.0,0.0,0.0,0.0,0.0,0.0,0.0,0.0,0.0,0.0,0.0,0.0,0.0,0.0,0.0,0.0,0.0,0.0,0.0,0.0,0.0,0.0,0.0,0.0,0.0,0.0,0.0,0.0,0.0,0.0,0.0,0.0,0.0,0.0,0.0,0.0,0.0,0.0,0.0,0.0,0.0,0.0,0.0,0.0,0.0,0.0,0.0,0.0,0.0,0.0,0.0,0.0,0.0,0.0,0.0,0.0,0.0,0.0,0.0,0.0,0.0,0.0,0.0,0.0,0.0,0.0,0.0,0.0,0.0,0.0,0.0,0.0,0.0,0.0,0.0,0.0,0.0,0.0,0.0,0.0,0.0,0.0,0.0,0.0,0.0,0.0,0.0,0.0,0.0,0.0,0.0,0.0,0.0,0.0,0.0,0.0,0.0,0.0,0.0,0.0,0.0,0.0,0.0,0.0,0.0,0.0,0.0,0.0,0.0,0.0,0.0,0.0,0.0,0.0,0.0,0.0,0.0,0.0,0.0,0.0,0.0,0.0,0.0,0.0,0.0,0.0,0.0,0.0,0.0,0.0,0.0,0.0,0.0,0.0,0.0,0.0,0.0,0.0,0.0,0.0,0.0,0.0,0.0,0.0,0.0,0.0,0.0,0.0,0.0,0.0,0.0,0.0,0.0,0.0,0.0,0.0,0.0,0.0,0.0,0.0,0.0,0.0,0.0,0.0,0.0,0.0,0.0,0.0,0.0,0.0,0.0,0.0,0.0,0.0,0.0,0.0,0.0,0.0,0.0,0.0,0.0,0.0,0.0,0.0,0.0,0.0,0.0,0.0,0.0,0.0,0.0,0.0,0.0,0.0,0.0,0.0,0.0,0.0,0.0,0.0,0.0,0.0,0.0,0.0,0.0,0.0,0.0,0.0,0.0,0.0,0.0,0.0,0.0,0.0,0.0,0.0,0.0,0.0,0.0,0.0,0.0,0.0,0.0,0.0,0.0,0.0,0.0,0.0,0.0,0.0,0.0,0.0,0.0,0.0,0.0,0.0,0.0,0.0,0.0,0.0,0.0,0.0,0.0,0.0,0.0,0.0,0.0,0.0,0.0,0.0,0.0,0.0,0.0,0.0,0.0,0.0,0.0,0.0,0.0,0.0,0.0,0.0,0.0,0.0,0.0,0.0,0.0,0.0,0.0,0.0,0.0,0.0,0.0,0.0,0.0,0.0,0.0,0.0,0.0,0.0,0.0,0.0,0.0,0.0,0.0,0.0,0.0,0.0,0.0,0.0,0.0,0.0,0.0,0.0,0.0,0.0,0.0,0.0,0.0,0.0,0.0,0.0,0.0,0.0,0.0,0.0,0.0,0.0,0.0,0.0,0.0,0.0,0.0,0.0,0.0,0.0,0.0,0.0,0.0,0.0,0.0,0.0,0.0,0.0,0.0,0.0,0.0,0.0,0.0,0.0,0.0,0.0,0.0,0.0,0.0,0.0,0.0,0.0,0.0,0.0,0.0,0.0,0.0,0.0,0.0,0.0,0.0,0.0,0.0,0.0,0.0,0.0,0.0,0.0,0.0,0.0,0.0,0.0,0.0,0.0,0.0,0.0,0.0,0.0,0.0,0.0,0.0,0.0,0.0,0.0,0.0,0.0,0.0,0.0,0.0,0.0,0.0,0.0,0.0,0.0,0.0,0.0,0.0,0.0,0.0,0.0,0.0,0.0,0.0,0.0,0.0,0.0,0.0,0.0,0.0,0.0,0.0,0.0,0.0,0.0,0.0,0.0,0.0,0.0,0.0,0.0,0.0,0.0,0.0,0.0,0.0,0.0,0.0,0.0,0.0,0.0,0.0,0.0,0.0,0.0,0.0,0.0,0.0,0.0,0.0,0.0,0.0,0.0,0.0,0.0,0.0,0.0,0.0,0.0,0.0,0.0,0.0,0.0,0.0,0.0,0.0,0.0,0.0,0.0,0.0,0.0,0.0,0.0,0.0,0.0,0.0,0.0,0.0,0.0,0.0,0.0,0.0,0.0,0.0,0.0,0.0,0.0,0.0,0.0,0.0,0.0,0.0,0.0,0.0,0.0,0.0,0.0,0.0,0.0,0.0,0.0,0.0,0.0,0.0,0.0,0.0,0.0,0.0,0.0,0.0,0.0,0.0,0.0,0.0,0.0,0.0,0.0,0.0,0.0,0.0,0.0,0.0,0.0,0.0,0.0,0.0,0.0,0.0,0.0,0.0,0.0,0.0,0.0,0.0,0.0,0.0,0.0,0.0,0.0,0.0,0.0,0.0,0.0,0.0,0.0,0.0,0.0,0.0,0.0,0.0,0.0,0.0,0.0,0.0,0.0,0.0,0.0,0.0,0.0,0.0,0.0,0.0,0.0,0.0,0.0,0.0,0.0,0.0,0.0,0.0,0.0,0.0,0.0,0.0,0.0,0.0,0.0,0.0,0.0,0.0,0.0,0.0,0.0,0.0,0.0,0.0,0.0,0.0,0.0,0.0,0.0,0.0,0.0,0.0,0.0,0.0,0.0,0.0,0.0,0.0,0.0,0.0,0.0,0.0,0.0,0.0,0.0,0.0,0.0,0.0,0.0,0.0,0.0,0.0,0.0,0.0,0.0,0.0,0.0,0.0,0.0,0.0,0.0,0.0,0.0,0.0,0.0,0.0,0.0,0.0,0.0,0.0,0.0,0.0,0.0,0.0,0.0,0.0,0.0,0.0,0.0,0.0,0.0,0.0,0.0,0.0,0.0,0.0,0.0,0.0,0.0,0.0,0.0,0.0,0.0,0.0,0.0,0.0,0.0,0.0,0.0,0.0,0.0,0.0,0.0,0.0,0.0,0.0,0.0,0.0,0.0,0.0,0.0,0.0,0.0,0.0,0.0,0.0,0.0,0.0,0.0,0.0,0.0,0.0,0.0,0.0,0.0,0.0,0.0,0.0,0.0,0.0,0.0,0.0,0.0,0.0,0.0,0.0,0.0,0.0,0.0,0.0,0.0,0.0,0.0,0.0,0.0,0.0,0.0,0.0,0.0,0.0,0.0,0.0,0.0,0.0,0.0,0.0,0.0,0.0,0.0,0.0,0.0,0.0,0.0,0.0,0.0,0.0,0.0,0.0,0.0,0.0,0.0,0.0,0.0,0.0,0.0,0.0,0.0,0.0,0.0,0.0,0.0,0.0,0.0,0.0,0.0,0.0,0.0,0.0,0.0,0.0,0.0,0.0,0.0,0.0,0.0,0.0,0.0,0.0,0.0,0.0,0.0,0.0,0.0,0.0,0.0,0.0,0.0,0.0,0.0,0.0,0.0,0.0,0.0,0.0,0.0,0.0,0.0,0.0,0.0,0.0,0.0,0.0,0.0,0.0,0.0,0.0,0.0,0.0,0.0,0.0,0.0,0.0,0.0,0.0,0.0,0.0,0.0,0.0,0.0,0.0,0.0,0.0,0.0,0.0,0.0,0.0,0.0,0.0,0.0,0.0,0.0,0.0,0.0,0.0,0.0,0.0,0.0,0.0,0.0,0.0,0.0,0.0,0.0,0.0,0.0,0.0,0.0,0.0,0.0,0.0,0.0,0.0,0.0,0.0,0.0,0.0,0.0,0.0,0.0,0.0,0.0,0.0,0.0,0.0,0.0,0.0,0.0,0.0,0.0,-1.2741,0.0,0.0,0.0,-1.1571,0.0,0.0,0.0,0.0,0.0,0.0,0.0,0.0,0.0,0.0,0.0,0.0,0.0,0.0,0.0,0.0,0.0,0.0,0.0,0.0,0.0,0.0,0.0,0.0,0.0,0.0,0.0,0.0,0.0,0.0,0.0,0.0,0.0,0.0,0.0,0.0,0.0,0.0,0.0,0.0,0.0,0.0,0.0,0.0,0.0,0.0,0.0,0.0,0.0,0.0,0.0,0.0,0.0,0.0,0.0,0.0,0.0,0.0,0.0,0.0,0.0,0.0,0.0,0.0,0.0,0.0,0.0,0.0,0.0,0.0,0.0,0.0,0.0,0.0,0.0,0.0,0.0,0.0,0.0,0.0,0.0,0.0,0.0,0.0,0.0,0.0,0.0,0.0,0.0,0.0,0.0,0.0,0.0,0.0,0.0,0.0,0.0,0.0,0.0,0.0,0.0,0.0,0.0,0.0,0.0,0.0,0.0,0.0,0.0,0.0,-1.2696,-1.1994,-1.2639,-1.2441,-1.1302,0.0,0.0,0.0,0.0,0.0,0.0,0.0,0.0,0.0,0.0,0.0,0.0,0.0,0.0,0.0,0.0,0.0,0.0,0.0,0.0,0.0,0.0,0.0,0.0,0.0,0.0,0.0,0.0,0.0,0.0,0.0,0.0,0.0,0.0,0.0,0.0,0.0,0.0,0.0,0.0,0.0,0.0,0.0,0.0,0.0,0.0,0.0,0.0,0.0,0.0,0.0,0.0,0.0,0.0,0.0,0.0,0.0,0.0,0.0,0.0,0.0,0.0,0.0,0.0,0.0,0.0,0.0,0.0,0.0,0.0,0.0,0.0,0.0,0.0,0.0,0.0,0.0,0.0,0.0,0.0,0.0,0.0,0.0,0.0,0.0,0.0,0.0,0.0,0.0,0.0,0.0,0.0,0.0,0.0,0.0,0.0,0.0,0.0,0.0,0.0,0.0,0.0,0.0,0.0,0.0,0.0,0.0,0.0,0.0,0.0,0.0,0.0,-1.2906,-1.2633,-1.1392,0.0,0.0,0.0,0.0,0.0,0.0,0.0,0.0,0.0,0.0,0.0,0.0,0.0,0.0,0.0,0.0,0.0,0.0,0.0,0.0,0.0,0.0,0.0,0.0,0.0,0.0,0.0,0.0,0.0,0.0,0.0,0.0,0.0,0.0,0.0,0.0,0.0,0.0,0.0,0.0,0.0,0.0,0.0,0.0,0.0,0.0,0.0,0.0,0.0,0.0,0.0,0.0,0.0,0.0,0.0,0.0,0.0,0.0,0.0,0.0,0.0,0.0,0.0,0.0,0.0,0.0,0.0,0.0,0.0,0.0,0.0,0.0,0.0,0.0,0.0,0.0,0.0,0.0,0.0,0.0,0.0,0.0,0.0,0.0,0.0,0.0,0.0,0.0,0.0,0.0,0.0,0.0,0.0,0.0,0.0,0.0,0.0,0.0,0.0,0.0,0.0,0.0,0.0,0.0,0.0,0.0,0.0,0.0,0.0,0.0,-1.2422,-1.3331,-1.3044,0.0,-1.2005,0.0,0.0,0.0,0.0,0.0,0.0,0.0,0.0,0.0,0.0,0.0,0.0,0.0,0.0,0.0,0.0,0.0,0.0,0.0,0.0,0.0,0.0,0.0,0.0,0.0,0.0,0.0,0.0,0.0,0.0,0.0,0.0,0.0,0.0,0.0,0.0,0.0,0.0,0.0,0.0,0.0,0.0,0.0,0.0,0.0,0.0,0.0,0.0,0.0,0.0,0.0,0.0,0.0,0.0,0.0,0.0,0.0,0.0,0.0,0.0,0.0,0.0,0.0,0.0,0.0,0.0,0.0,0.0,0.0,0.0,0.0,0.0,0.0,0.0,0.0,0.0,0.0,0.0,0.0,0.0,0.0,0.0,0.0,0.0,0.0,0.0,0.0,0.0,0.0,0.0,0.0,0.0,0.0,0.0,0.0,0.0,0.0,0.0,0.0,0.0,0.0,0.0,0.0,0.0,0.0,0.0,0.0,0.0,0.0,0.0,-1.2863,-1.4243,-1.3768,-1.2871,0.0,0.0,0.0,0.0,0.0,0.0,0.0,0.0,0.0,0.0,0.0,0.0,0.0,0.0,0.0,0.0,0.0,0.0,0.0,0.0,0.0,0.0,0.0,0.0,0.0,0.0,0.0,0.0,0.0,0.0,0.0,0.0,0.0,0.0,0.0,0.0,0.0,0.0,0.0,0.0,0.0,0.0,0.0,0.0,0.0,0.0,0.0,0.0,0.0,0.0,0.0,0.0,0.0,0.0,0.0,0.0,0.0,0.0,0.0,0.0,0.0,0.0,0.0,0.0,0.0,0.0,0.0,0.0,0.0,0.0,0.0,0.0,0.0,0.0,0.0,0.0,0.0,0.0,0.0,0.0,0.0,0.0,0.0,0.0,0.0,0.0,0.0,0.0,0.0,0.0,0.0,0.0,0.0,0.0,0.0,0.0,0.0,0.0,0.0,0.0,0.0,0.0,0.0,0.0,0.0,0.0,0.0,0.0,0.0,0.0,-1.258,-1.3475,-1.4718,-1.408,-1.2962,-1.1448,0.0,0.0,0.0,0.0,0.0,0.0,0.0,0.0,0.0,0.0,0.0,0.0,0.0,0.0,0.0,0.0,0.0,0.0,0.0,0.0,0.0,0.0,0.0,0.0,0.0,0.0,0.0,0.0,0.0,0.0,0.0,0.0,0.0,0.0,0.0,0.0,0.0,0.0,0.0,0.0,0.0,0.0,0.0,0.0,0.0,0.0,0.0,0.0,0.0,0.0,0.0,0.0,0.0,0.0,0.0,0.0,0.0,0.0,0.0,0.0,0.0,0.0,0.0,0.0,0.0,0.0,0.0,0.0,0.0,0.0,0.0,0.0,0.0,0.0,0.0,0.0,0.0,0.0,0.0,0.0,0.0,0.0,0.0,0.0,0.0,0.0,0.0,0.0,0.0,0.0,0.0,0.0,0.0,0.0,0.0,0.0,0.0,0.0,0.0,0.0,0.0,0.0,0.0,0.0,0.0,0.0,0.0,0.0,-1.4557,-1.4184,-1.4254,-1.4924,-1.3601,-1.2558,0.0,0.0,0.0,0.0,0.0,0.0,0.0,0.0,0.0,0.0,0.0,0.0,0.0,0.0,0.0,0.0,0.0,0.0,0.0,0.0,0.0,0.0,0.0,0.0,0.0,0.0,0.0,0.0,0.0,0.0,0.0,0.0,0.0,0.0,0.0,0.0,0.0,0.0,0.0,0.0,0.0,0.0,0.0,0.0,0.0,0.0,0.0,0.0,0.0,0.0,0.0,0.0,0.0,0.0,0.0,0.0,0.0,0.0,0.0,0.0,0.0,0.0,0.0,0.0,0.0,0.0,0.0,0.0,0.0,0.0,0.0,0.0,0.0,0.0,0.0,0.0,0.0,0.0,0.0,0.0,0.0,0.0,0.0,0.0,0.0,0.0,0.0,0.0,0.0,0.0,0.0,0.0,0.0,0.0,0.0,0.0,0.0,0.0,0.0,0.0,0.0,0.0,0.0,0.0,0.0,0.0,0.0,0.0,0.0,-1.1471,-1.3115,-1.4065,-1.4209,-1.3666,-1.3084,0.0,0.0,0.0,0.0,0.0,0.0,0.0,0.0,0.0,0.0,0.0,0.0,0.0,0.0,0.0,0.0,0.0,0.0,0.0,0.0,0.0,0.0,0.0,0.0,0.0,0.0,0.0,0.0,0.0,0.0,0.0,0.0,0.0,0.0,0.0,0.0,0.0,0.0,0.0,0.0,0.0,0.0,0.0,0.0,0.0,0.0,0.0,0.0,0.0,0.0,0.0,0.0,0.0,0.0,0.0,0.0,0.0,0.0,0.0,0.0,0.0,0.0,0.0,0.0,0.0,0.0,0.0,0.0,0.0,0.0,0.0,0.0,0.0,0.0,0.0,0.0,0.0,0.0,0.0,0.0,0.0,0.0,0.0,0.0,0.0,0.0,0.0,0.0,0.0,0.0,0.0,0.0,0.0,0.0,0.0,0.0,0.0,0.0,0.0,0.0,0.0,0.0,0.0,0.0,0.0,0.0,0.0,0.0,0.0,-1.1386,-1.4118,-1.5199,-1.438,-1.3872,-1.3098,0.0,0.0,0.0,0.0,0.0,0.0,0.0,0.0,0.0,0.0,0.0,0.0,0.0,0.0,0.0,0.0,0.0,0.0,0.0,0.0,0.0,0.0,0.0,0.0,0.0,0.0,0.0,0.0,0.0,0.0,0.0,0.0,0.0,0.0,0.0,0.0,0.0,0.0,0.0,0.0,0.0,0.0,0.0,0.0,0.0,0.0,0.0,0.0,0.0,0.0,0.0,0.0,0.0,0.0,0.0,0.0,0.0,0.0,0.0,0.0,0.0,0.0,0.0,0.0,0.0,0.0,0.0,0.0,0.0,0.0,0.0,0.0,0.0,0.0,0.0,0.0,0.0,0.0,0.0,0.0,0.0,0.0,0.0,0.0,0.0,0.0,0.0,0.0,0.0,0.0,0.0,0.0,0.0,0.0,0.0,0.0,0.0,0.0,0.0,0.0,0.0,0.0,0.0,0.0,0.0,0.0,0.0,0.0,-1.1024,-1.502,-1.7382,-1.7477,-1.5545,-1.4171,-1.246,0.0,0.0,0.0,0.0,0.0,0.0,0.0,0.0,0.0,0.0,0.0,0.0,0.0,0.0,0.0,0.0,0.0,0.0,0.0,0.0,0.0,0.0,0.0,0.0,0.0,0.0,0.0,0.0,0.0,0.0,0.0,0.0,0.0,0.0,0.0,0.0,0.0,0.0,0.0,0.0,0.0,0.0,0.0,0.0,0.0,0.0,0.0,0.0,0.0,0.0,0.0,0.0,0.0,0.0,0.0,0.0,0.0,0.0,0.0,0.0,0.0,0.0,0.0,0.0,0.0,0.0,0.0,0.0,0.0,0.0,0.0,0.0,0.0,0.0,0.0,0.0,0.0,0.0,0.0,0.0,0.0,0.0,0.0,0.0,0.0,0.0,0.0,0.0,0.0,0.0,0.0,0.0,0.0,0.0,0.0,0.0,0.0,0.0,0.0,0.0,0.0,0.0,0.0,0.0,0.0,0.0,0.0,0.0,0.0,-1.2333,-1.5366,-1.6531,-1.5498,-1.3886,-1.3039,0.0,0.0,0.0,0.0,0.0,0.0,0.0,0.0,0.0,0.0,0.0,0.0,0.0,0.0,0.0,0.0,0.0,0.0,0.0,0.0,0.0,0.0,0.0,0.0,0.0,0.0,0.0,0.0,0.0,0.0,0.0,0.0,0.0,0.0,0.0,0.0,0.0,0.0,0.0,0.0,0.0,0.0,0.0,0.0,0.0,0.0,0.0,0.0,0.0,0.0,0.0,0.0,0.0,0.0,0.0,0.0,0.0,0.0,0.0,0.0,0.0,0.0,0.0,0.0,0.0,0.0,0.0,0.0,0.0,0.0,0.0,0.0,0.0,0.0,0.0,0.0,0.0,0.0,0.0,0.0,0.0,0.0,0.0,0.0,0.0,0.0,0.0,0.0,0.0,0.0,0.0,0.0,0.0,0.0,0.0,0.0,0.0,0.0,0.0,0.0,0.0,0.0,0.0,0.0,0.0,0.0,0.0,0.0,0.0,-1.357,-1.6609,-1.7706,-1.644,-1.4619,-1.3655,-1.3647,0.0,0.0,0.0,0.0,0.0,0.0,0.0,0.0,0.0,0.0,0.0,0.0,0.0,0.0,0.0,0.0,0.0,0.0,0.0,0.0,0.0,0.0,0.0,0.0,0.0,0.0,0.0,0.0,0.0,0.0,0.0,0.0,0.0,0.0,0.0,0.0,0.0,0.0,0.0,0.0,0.0,0.0,0.0,0.0,0.0,0.0,0.0,0.0,0.0,0.0,0.0,0.0,0.0,0.0,0.0,0.0,0.0,0.0,0.0,0.0,0.0,0.0,0.0,0.0,0.0,0.0,0.0,0.0,0.0,0.0,0.0,0.0,0.0,0.0,0.0,0.0,0.0,0.0,0.0,0.0,0.0,0.0,0.0,0.0,0.0,0.0,0.0,0.0,0.0,0.0,0.0,0.0,0.0,0.0,0.0,0.0,0.0,0.0,0.0,0.0,0.0,0.0,0.0,0.0,0.0,0.0,0.0,0.0,-1.759,-2.0408,-2.0593,-1.7994,-1.6061,-1.4339,0.0,0.0,0.0,0.0,0.0,0.0,0.0,0.0,0.0,0.0,0.0,0.0,0.0,0.0,0.0,0.0,0.0,0.0,0.0,0.0,0.0,0.0,0.0,0.0,0.0,0.0,0.0,0.0,0.0,0.0,0.0,0.0,0.0,0.0,0.0,0.0,0.0,0.0,0.0,0.0,0.0,0.0,0.0,0.0,0.0,0.0,0.0,0.0,0.0,0.0,0.0,0.0,0.0,0.0,0.0,0.0,0.0,0.0,0.0,0.0,0.0,0.0,0.0,0.0,0.0,0.0,0.0,0.0,0.0,0.0,0.0,0.0,0.0,0.0,0.0,0.0,0.0,0.0,0.0,0.0,0.0,0.0,0.0,0.0,0.0,0.0,0.0,0.0,0.0,0.0,0.0,0.0,0.0,0.0,0.0,0.0,0.0,0.0,0.0,0.0,0.0,0.0,0.0,0.0,0.0,0.0,0.0,0.0,0.0,-1.8763,-2.0723,-2.0704,-1.853,-1.6291,-1.4891,0.0,0.0,0.0,0.0,0.0,0.0,0.0,0.0,0.0,0.0,0.0,0.0,0.0,0.0,0.0,0.0,0.0,0.0,0.0,0.0,0.0,0.0,0.0,0.0,0.0,0.0,0.0,0.0,0.0,0.0,0.0,0.0,0.0,0.0,0.0,0.0,0.0,0.0,0.0,0.0,0.0,0.0,0.0,0.0,0.0,0.0,0.0,0.0,0.0,0.0,0.0,0.0,0.0,0.0,0.0,0.0,0.0,0.0,0.0,0.0,0.0,0.0,0.0,0.0,0.0,0.0,0.0,0.0,0.0,0.0,0.0,0.0,0.0,0.0,0.0,0.0,0.0,0.0,0.0,0.0,0.0,0.0,0.0,0.0,0.0,0.0,0.0,0.0,0.0,0.0,0.0,0.0,0.0,0.0,0.0,0.0,0.0,0.0,0.0,0.0,0.0,0.0,0.0,0.0,0.0,0.0,0.0,0.0,-1.8121,-2.0275,-2.1023,-2.0719,-1.9272,-1.7171,-1.5739,0.0,0.0,0.0,0.0,0.0,0.0,0.0,0.0,0.0,0.0,0.0,0.0,0.0,0.0,0.0,0.0,0.0,0.0,0.0,0.0,0.0,0.0,0.0,0.0,0.0,0.0,0.0,0.0,0.0,0.0,0.0,0.0,0.0,0.0,0.0,0.0,0.0,0.0,0.0,0.0,0.0,0.0,0.0,0.0,0.0,0.0,0.0,0.0,0.0,0.0,0.0,0.0,0.0,0.0,0.0,0.0,0.0,0.0,0.0,0.0,0.0,0.0,0.0,0.0,0.0,0.0,0.0,0.0,0.0,0.0,0.0,0.0,0.0,0.0,0.0,0.0,0.0,0.0,0.0,0.0,0.0,0.0,0.0,0.0,0.0,0.0,0.0,0.0,0.0,0.0,0.0,0.0,0.0,0.0,0.0,0.0,0.0,0.0,0.0,0.0,0.0,0.0,0.0,0.0,0.0,0.0,0.0,0.0,-1.9224,-2.1834,-2.1369,-2.0721,-1.9991,-1.8313,-1.6644,0.0,0.0,0.0,0.0,0.0,0.0,0.0,0.0,0.0,0.0,0.0,0.0,0.0,0.0,0.0,0.0,0.0,0.0,0.0,0.0,0.0,0.0,0.0,0.0,0.0,0.0,0.0,0.0,0.0,0.0,0.0,0.0,0.0,0.0,0.0,0.0,0.0,0.0,0.0,0.0,0.0,0.0,0.0,0.0,0.0,0.0,0.0,0.0,0.0,0.0,0.0,0.0,0.0,0.0,0.0,0.0,0.0,0.0,0.0,0.0,0.0,0.0,0.0,0.0,0.0,0.0,0.0,0.0,0.0,0.0,0.0,0.0,0.0,0.0,0.0,0.0,0.0,0.0,0.0,0.0,0.0,0.0,0.0,0.0,0.0,0.0,0.0,0.0,0.0,0.0,0.0,0.0,0.0,0.0,0.0,0.0,0.0,0.0,0.0,0.0,0.0,0.0,0.0,0.0,0.0,0.0,0.0,0.0,-2.0637,-2.1834,-2.1677,-2.1064,-2.0016,-1.8313,-1.682,0.0,0.0,0.0,0.0,0.0,0.0,0.0,0.0,0.0,0.0,0.0,0.0,0.0,0.0,0.0,0.0,0.0,0.0,0.0,0.0,0.0,0.0,0.0,0.0,0.0,0.0,0.0,0.0,0.0,0.0,0.0,0.0,0.0,0.0,0.0,0.0,0.0,0.0,0.0,0.0,0.0,0.0,0.0,0.0,0.0,0.0,0.0,0.0,-0.6547,0.0,0.0,0.0,0.0,0.0,0.0,0.0,0.0,0.0,0.0,0.0,0.0,0.0,0.0,0.0,0.0,0.0,0.0,0.0,0.0,0.0,0.0,0.0,0.0,0.0,0.0,0.0,0.0,0.0,0.0,0.0,0.0,0.0,0.0,0.0,0.0,0.0,0.0,0.0,0.0,0.0,0.0,0.0,0.0,0.0,0.0,0.0,0.0,0.0,0.0,0.0,0.0,0.0,0.0,0.0,0.0,0.0,0.0,0.0,-2.071,-2.1749,-2.151,-2.0892,-1.994,-1.9019,-1.7649,0.0,0.0,0.0,0.0,0.0,0.0,0.0,0.0,0.0,0.0,0.0,0.0,0.0,0.0,0.0,0.0,0.0,0.0,0.0,0.0,0.0,0.0,0.0,0.0,0.0,0.0,0.0,0.0,0.0,0.0,0.0,0.0,0.0,0.0,0.0,0.0,0.0,0.0,0.0,0.0,0.0,0.0,0.0,0.0,0.0,0.0,0.0,0.0,0.0,0.0,0.0,0.0,0.0,0.0,0.0,0.0,0.0,0.0,0.0,0.0,0.0,0.0,0.0,0.0,0.0,0.0,0.0,0.0,0.0,0.0,0.0,0.0,0.0,0.0,0.0,0.0,0.0,0.0,0.0,0.0,0.0,0.0,0.0,0.0,0.0,0.0,0.0,0.0,0.0,0.0,0.0,0.0,0.0,0.0,0.0,0.0,0.0,0.0,0.0,0.0,0.0,0.0,0.0,0.0,0.0,0.0,0.0,-1.8935,-2.0422,-2.1651,-2.1353,-2.0713,-1.9862,-1.9798,-1.8519,-1.5849,0.0,0.0,0.0,0.0,0.0,0.0,0.0,0.0,0.0,0.0,0.0,0.0,0.0,0.0,0.0,0.0,0.0,0.0,0.0,0.0,0.0,0.0,0.0,0.0,0.0,0.0,0.0,0.0,0.0,0.0,0.0,0.0,0.0,0.0,0.0,0.0,0.0,0.0,-0.7512,-0.8648,0.0,0.0,0.0,0.0,0.0,0.0,0.0,0.0,-0.7302,0.0,0.0,0.0,0.0,0.0,0.0,0.0,0.0,0.0,0.0,0.0,0.0,0.0,0.0,0.0,0.0,0.0,0.0,0.0,0.0,0.0,0.0,0.0,0.0,0.0,0.0,0.0,0.0,0.0,0.0,0.0,0.0,0.0,0.0,0.0,0.0,0.0,0.0,0.0,0.0,0.0,0.0,0.0,0.0,0.0,0.0,0.0,0.0,0.0,0.0,0.0,0.0,0.0,0.0,0.0,0.0,-1.9986,-2.0404,-2.1011,-2.1852,-2.1772,-2.1171,-2.0041,-1.9862,-1.8597,-1.6086,0.0,0.0,0.0,0.0,0.0,0.0,0.0,0.0,0.0,0.0,0.0,0.0,0.0,0.0,0.0,0.0,0.0,0.0,0.0,0.0,0.0,0.0,0.0,0.0,0.0,0.0,0.0,0.0,0.0,0.0,0.0,0.0,0.0,0.0,0.0,0.0,0.0,0.0,0.0,-1.2215,-1.2711,0.0,0.0,0.0,0.0,0.0,0.0,0.0,0.0,-0.8318,0.0,0.0,0.0,0.0,0.0,0.0,0.0,0.0,0.0,0.0,0.0,0.0,0.0,0.0,0.0,0.0,0.0,0.0,0.0,0.0,0.0,0.0,0.0,0.0,0.0,0.0,0.0,0.0,0.0,0.0,0.0,0.0,0.0,0.0,0.0,0.0,0.0,0.0,0.0,0.0,0.0,0.0,0.0,0.0,0.0,0.0,0.0,0.0,0.0,0.0,0.0,0.0,0.0,0.0,0.0,-1.9071,-2.1517,-2.2488,-2.1955,-2.2237,-2.1656,-2.0054,-1.9952,-1.8494,0.0,0.0,0.0,0.0,0.0,0.0,0.0,0.0,0.0,0.0,0.0,0.0,0.0,0.0,0.0,0.0,0.0,0.0,0.0,0.0,0.0,0.0,0.0,0.0,0.0,0.0,0.0,0.0,0.0,0.0,0.0,0.0,0.0,0.0,0.0,0.0,0.0,0.0,0.0,0.0,-1.3388,-1.3994,-1.4265,0.0,0.0,0.0,0.0,0.0,0.0,-0.919,-0.8554,0.0,0.0,0.0,0.0,0.0,0.0,0.0,0.0,0.0,0.0,0.0,0.0,0.0,0.0,0.0,0.0,0.0,0.0,0.0,0.0,0.0,0.0,0.0,0.0,0.0,0.0,0.0,0.0,0.0,0.0,0.0,0.0,0.0,0.0,0.0,0.0,0.0,0.0,0.0,0.0,0.0,0.0,0.0,0.0,0.0,0.0,0.0,0.0,0.0,0.0,0.0,0.0,0.0,0.0,0.0,-1.7852,-2.1928,-2.3441,-2.2217,-2.254,-2.193,-2.0296,-2.008,-1.8412,0.0,0.0,0.0,0.0,0.0,0.0,0.0,0.0,0.0,0.0,0.0,0.0,0.0,0.0,0.0,0.0,0.0,0.0,0.0,0.0,0.0,0.0,0.0,0.0,0.0,0.0,0.0,0.0,0.0,0.0,0.0,0.0,0.0,0.0,0.0,0.0,0.0,0.0,0.0,0.0,0.0,-1.5327,-1.5777,-1.4857,0.0,0.0,0.0,0.0,-1.1384,-1.0434,0.0,0.0,0.0,0.0,0.0,0.0,0.0,0.0,0.0,0.0,0.0,0.0,0.0,0.0,0.0,0.0,0.0,0.0,0.0,0.0,0.0,0.0,0.0,0.0,0.0,0.0,0.0,0.0,0.0,0.0,0.0,0.0,0.0,0.0,0.0,0.0,0.0,0.0,0.0,0.0,0.0,0.0,0.0,0.0,0.0,0.0,0.0,0.0,0.0,0.0,0.0,0.0,0.0,0.0,0.0,0.0,-1.7984,-2.0838,-2.2506,-2.2912,-2.2471,-2.1845,-2.1093,-2.0372,-1.8517,0.0,0.0,0.0,0.0,0.0,0.0,0.0,0.0,0.0,0.0,0.0,0.0,0.0,0.0,0.0,0.0,0.0,0.0,0.0,0.0,0.0,0.0,0.0,0.0,0.0,0.0,0.0,0.0,0.0,0.0,0.0,0.0,0.0,0.0,0.0,0.0,0.0,0.0,0.0,0.0,0.0,-1.8187,-1.656,-1.6216,-1.566,0.0,0.0,-1.4302,-1.4315,-1.4083,0.0,0.0,0.0,0.0,0.0,0.0,0.0,0.0,0.0,0.0,0.0,0.0,0.0,0.0,0.0,0.0,0.0,0.0,0.0,0.0,0.0,0.0,0.0,0.0,0.0,0.0,0.0,0.0,0.0,0.0,0.0,0.0,0.0,0.0,0.0,0.0,0.0,0.0,0.0,0.0,0.0,0.0,0.0,0.0,0.0,0.0,0.0,0.0,0.0,0.0,0.0,0.0,0.0,0.0,0.0,-1.6402,-1.8222,-2.2048,-2.3728,-2.3135,-2.289,-2.2398,-2.1612,-2.0734,-1.883,0.0,0.0,0.0,0.0,0.0,0.0,0.0,0.0,0.0,0.0,0.0,0.0,0.0,0.0,0.0,0.0,0.0,0.0,0.0,0.0,0.0,0.0,0.0,0.0,0.0,0.0,0.0,0.0,0.0,0.0,0.0,0.0,0.0,0.0,0.0,0.0,0.0,0.0,0.0,0.0,0.0,0.0,-1.99,-1.8891,0.0,0.0,0.0,-1.6627,-1.6412,0.0,0.0,0.0,0.0,0.0,0.0,0.0,0.0,0.0,0.0,0.0,0.0,0.0,0.0,0.0,0.0,0.0,0.0,0.0,0.0,0.0,0.0,0.0,0.0,0.0,0.0,0.0,0.0,0.0,0.0,0.0,0.0,0.0,0.0,0.0,0.0,0.0,0.0,0.0,0.0,0.0,0.0,0.0,0.0,0.0,0.0,0.0,0.0,0.0,0.0,0.0,0.0,0.0,0.0,0.0,0.0,0.0,-1.8575,-2.3214,-2.5019,-2.3769,-2.3572,-2.3226,-2.2653,-2.1645,0.0,0.0,0.0,0.0,0.0,0.0,0.0,0.0,0.0,0.0,0.0,0.0,0.0,0.0,0.0,0.0,0.0,0.0,0.0,0.0,0.0,0.0,0.0,0.0,0.0,0.0,0.0,-0.6726,0.0,0.0,0.0,0.0,0.0,0.0,0.0,0.0,0.0,0.0,0.0,0.0,0.0,0.0,-2.0621,-2.2833,-2.1588,-2.0615,0.0,0.0,-1.9145,-1.8688,-1.7789,-1.6519,0.0,0.0,0.0,0.0,0.0,0.0,0.0,0.0,0.0,0.0,0.0,0.0,0.0,0.0,0.0,0.0,0.0,0.0,0.0,0.0,0.0,0.0,0.0,0.0,0.0,0.0,0.0,0.0,0.0,0.0,0.0,0.0,0.0,0.0,0.0,0.0,0.0,0.0,0.0,0.0,0.0,0.0,0.0,0.0,0.0,0.0,0.0,0.0,0.0,0.0,0.0,0.0,0.0,0.0,-1.8294,-1.9151,-2.3499,-2.5691,-2.5412,-2.453,-2.4265,-2.465,-2.3417,-2.0927,0.0,0.0,0.0,0.0,0.0,0.0,0.0,0.0,0.0,0.0,0.0,0.0,0.0,0.0,0.0,0.0,0.0,0.0,0.0,0.0,0.0,0.0,0.0,0.0,0.0,0.0,0.0,0.0,0.0,0.0,0.0,0.0,0.0,0.0,0.0,0.0,0.0,0.0,0.0,0.0,0.0,-2.2445,-2.4142,-2.3818,-2.3416,0.0,0.0,-2.2303,-2.1554,-2.1239,-1.956,-1.5081,0.0,0.0,0.0,0.0,0.0,0.0,0.0,0.0,0.0,0.0,0.0,0.0,0.0,0.0,0.0,0.0,0.0,0.0,0.0,0.0,0.0,0.0,0.0,0.0,0.0,0.0,0.0,0.0,0.0,0.0,0.0,0.0,0.0,0.0,0.0,0.0,0.0,0.0,0.0,0.0,0.0,0.0,0.0,0.0,0.0,0.0,0.0,0.0,0.0,0.0,0.0,0.0,0.0,-1.8343,-1.9339,-2.4151,-2.637,-2.5764,-2.5472,-2.5371,-2.5435,-2.435,-2.2681,0.0,0.0,0.0,0.0,0.0,0.0,0.0,0.0,0.0,0.0,0.0,0.0,0.0,0.0,0.0,0.0,0.0,0.0,0.0,0.0,0.0,0.0,0.0,0.0,0.0,0.0,0.0,0.0,-1.463,-1.4648,-1.3204,0.0,0.0,0.0,0.0,0.0,0.0,0.0,0.0,0.0,0.0,-2.6375,-2.737,-2.6598,0.0,0.0,-2.5493,-2.4773,-2.4191,-2.3043,-2.1407,-1.8907,-1.7488,0.0,0.0,0.0,0.0,0.0,0.0,0.0,0.0,0.0,0.0,0.0,0.0,0.0,0.0,0.0,0.0,0.0,0.0,0.0,0.0,0.0,0.0,0.0,0.0,0.0,0.0,0.0,0.0,0.0,0.0,0.0,0.0,0.0,0.0,0.0,0.0,0.0,0.0,0.0,0.0,0.0,0.0,0.0,0.0,0.0,0.0,0.0,0.0,0.0,0.0,0.0,0.0,-1.8555,-1.9939,-2.4729,-2.7074,-2.6812,-2.6692,-2.6641,-2.6641,-2.5657,-2.4332,0.0,0.0,0.0,0.0,0.0,0.0,0.0,0.0,0.0,0.0,0.0,0.0,0.0,0.0,0.0,0.0,0.0,0.0,0.0,0.0,0.0,0.0,0.0,0.0,0.0,0.0,0.0,0.0,-1.6561,-1.5862,-1.3505,0.0,0.0,0.0,0.0,0.0,0.0,0.0,0.0,0.0,0.0,-2.9454,-3.0669,-2.9417,-2.8363,-2.8509,-2.7308,-2.6182,-2.5664,-2.458,-2.328,-2.1661,0.0,0.0,0.0,0.0,0.0,0.0,0.0,0.0,0.0,0.0,0.0,0.0,0.0,0.0,0.0,0.0,0.0,0.0,0.0,0.0,0.0,0.0,0.0,0.0,0.0,0.0,0.0,0.0,0.0,0.0,-0.9768,0.0,0.0,0.0,0.0,0.0,0.0,0.0,0.0,0.0,0.0,0.0,0.0,0.0,0.0,0.0,0.0,0.0,0.0,0.0,0.0,0.0,0.0,-1.9062,-2.1177,-2.518,-2.7871,-2.9033,-2.8307,-2.8128,-2.8576,-2.7524,-2.5839,-2.3561,0.0,0.0,0.0,0.0,0.0,0.0,0.0,0.0,0.0,0.0,0.0,0.0,0.0,0.0,0.0,0.0,0.0,0.0,0.0,0.0,0.0,0.0,0.0,0.0,0.0,0.0,-1.2647,-1.432,-1.526,0.0,0.0,0.0,0.0,0.0,0.0,0.0,0.0,0.0,0.0,-2.9391,-3.1172,-3.3762,-3.2178,-3.0657,-3.048,-2.8338,-2.6416,-2.5777,-2.6026,-2.5463,0.0,0.0,0.0,0.0,0.0,0.0,0.0,0.0,0.0,0.0,0.0,0.0,0.0,0.0,0.0,0.0,0.0,0.0,0.0,0.0,0.0,0.0,0.0,0.0,0.0,0.0,0.0,-1.5206,-1.3971,0.0,0.0,0.0,0.0,0.0,0.0,0.0,0.0,0.0,0.0,0.0,-2.432,-2.6138,0.0,0.0,0.0,0.0,0.0,0.0,0.0,0.0,0.0,0.0,0.0,0.0,-1.9887,-2.1507,-2.6733,-2.9484,-2.9343,-2.9517,-2.9518,-2.93,-2.8646,-2.7088,-2.4645,0.0,0.0,0.0,0.0,0.0,0.0,0.0,0.0,0.0,0.0,0.0,0.0,0.0,0.0,0.0,0.0,0.0,0.0,0.0,0.0,0.0,0.0,0.0,0.0,0.0,-1.7329,0.0,0.0,0.0,0.0,0.0,0.0,0.0,0.0,0.0,0.0,0.0,-2.7827,-3.043,-3.3317,-3.5357,-3.5826,-3.4821,-3.3684,0.0,0.0,0.0,0.0,0.0,0.0,0.0,0.0,0.0,0.0,0.0,0.0,0.0,0.0,-2.2853,-1.8862,-1.7498,-1.6997,-1.6977,0.0,0.0,0.0,0.0,0.0,0.0,0.0,0.0,0.0,0.0,0.0,0.0,0.0,0.0,0.0,0.0,-1.8254,0.0,0.0,0.0,0.0,0.0,0.0,0.0,0.0,-2.5422,-2.7477,-2.8118,-2.9575,-2.945,0.0,-2.662,-2.3803,0.0,0.0,0.0,0.0,0.0,0.0,0.0,0.0,-2.1355,-2.3719,-2.8288,-3.0536,-3.0222,-3.0625,-3.0693,-3.0288,-3.0037,-2.924,-2.7819,-2.6257,-2.4438,0.0,0.0,0.0,0.0,0.0,0.0,0.0,0.0,0.0,0.0,0.0,0.0,0.0,0.0,0.0,0.0,0.0,0.0,0.0,0.0,0.0,0.0,0.0,-1.9749,0.0,0.0,0.0,0.0,0.0,0.0,0.0,0.0,0.0,-2.2508,-2.7077,-3.1213,-3.3393,-3.6043,-3.7767,-3.7792,0.0,0.0,0.0,0.0,0.0,0.0,0.0,-2.9692,-2.9829,-2.8281,-2.6648,-2.5618,-2.671,-2.7422,-2.6386,0.0,0.0,-2.2963,-2.1407,-2.0901,-2.1104,-2.1215,-2.1232,-2.1312,-2.1922,-2.2625,0.0,0.0,0.0,0.0,0.0,0.0,0.0,0.0,-2.3973,-2.3499,0.0,-2.2678,0.0,0.0,0.0,0.0,0.0,0.0,0.0,0.0,-3.1508,-3.3472,-3.367,-3.3443,-3.3371,-3.3371,-3.2469,-3.0496,-2.7423,-2.3592,0.0,0.0,0.0,0.0,0.0,0.0,-2.3441,-2.7617,-2.9768,-3.1097,-3.1675,-3.1688,-3.1634,-3.1636,-3.1772,-3.2103,-3.2595,-2.913,-2.6985,-2.6582,-2.0533,0.0,0.0,0.0,0.0,0.0,0.0,0.0,0.0,0.0,0.0,0.0,0.0,0.0,0.0,0.0,0.0,0.0,0.0,0.0,0.0,-2.0226,0.0,0.0,0.0,0.0,0.0,0.0,0.0,0.0,0.0,0.0,-2.801,-2.9977,-3.2747,-3.6338,0.0,0.0,0.0,0.0,-3.8417,-3.8951,-3.6224,-3.4085,-3.4017,-3.3737,-3.3531,-3.3575,0.0,0.0,-2.9876,-3.11,-3.1613,-2.8899,-3.0168,-3.0965,-2.9044,-2.6618,-2.538,-2.6303,-2.5999,-2.5775,-2.6315,-2.7353,-2.8436,-2.6854,0.0,0.0,0.0,0.0,-2.448,-2.6171,-2.9052,-2.9044,-2.8267,-2.6922,-2.6922,0.0,0.0,0.0,0.0,0.0,0.0,-2.6231,-2.9204,-3.0717,-3.2299,-3.3855,-3.3793,-3.3684,-3.3516,-3.3241,-3.2645,-3.1724,-3.0532,-2.5405,-1.6828,0.0,0.0,0.0,0.0,-2.6573,-2.8146,-3.093,-3.2453,-3.2559,-3.2535,-3.2493,-3.2381,-3.2892,-3.3097,-3.2951,-3.2192,-3.0715,-2.8318,-2.5894,0.0,0.0,0.0,0.0,0.0,0.0,0.0,0.0,0.0,0.0,0.0,0.0,0.0,0.0,0.0,0.0,0.0,0.0,0.0,-1.992,-2.2879,-2.4096,0.0,0.0,0.0,0.0,0.0,0.0,0.0,0.0,0.0,-3.4018,-3.5188,-3.6383,0.0,0.0,-4.0197,-4.0045,-4.0643,-4.0977,-4.0629,0.0,0.0,0.0,-3.618,-3.5278,-3.5705,-3.5467,-3.4844,-3.3855,-3.4222,-3.4379,-3.3452,-3.3506,-3.3523,-3.3302,-3.1316,-2.9769,-2.9814,-2.9663,-2.9696,-3.015,-3.0528,-3.0816,-3.1769,-2.9808,-2.7135,-2.6969,-2.8402,-2.8316,-2.9977,-3.275,-3.2735,-3.2131,-3.1166,-3.1166,-2.9025,-2.5394,-2.439,0.0,0.0,0.0,-2.8805,-3.1742,-3.1973,-3.284,-3.4171,-3.4476,-3.4498,-3.4355,-3.4252,-3.432,-3.4578,-3.4109,-3.0041,-2.2714,0.0,0.0,-2.2881,-2.6684,-2.9411,-3.0834,-3.2649,-3.37,-3.3934,-3.4031,-3.4111,-3.4141,-3.4509,-3.4521,-3.4053,-3.4137,-3.3281,-3.1314,-2.9517,-2.7427,0.0,0.0,0.0,0.0,0.0,0.0,0.0,0.0,0.0,0.0,0.0,-1.4111,-1.1393,0.0,0.0,0.0,-2.165,-2.3158,-2.4733,-2.7029,0.0,0.0,0.0,0.0,0.0,0.0,0.0,-3.1965,-3.4501,-3.6688,-3.8328,-3.9191,-3.9546,-3.9259,-4.0612,-4.1593,-4.1431,0.0,-4.2692,-4.2562,-4.2265,-4.1737,-4.0842,-3.9093,-3.7791,-3.7528,-3.7045,-3.6537,-3.6297,-3.6267,-3.6267,-3.6186,-3.5922,-3.5756,-3.6075,-3.4826,-3.3599,-3.2945,-3.2778,-3.2764,-3.2673,-3.2549,-3.2514,-3.5544,-3.5194,-3.029,-2.9673,-3.1853,-3.178,-3.2993,-3.5066,-3.5018,-3.4983,-3.4917,-3.4917,-3.3192,-3.0197,-2.793,0.0,0.0,-3.0977,-3.2553,-3.4992,-3.4618,-3.458,-3.4845,-3.5451,-3.5698,-3.5608,-3.5429,-3.5636,-3.6144,-3.5283,-3.3716,-3.1615,-3.0846,-3.0337,-3.0046,-3.0435,-3.2083,-3.4856,-3.4652,-3.4878,-3.5575,-3.5919,-3.6211,-3.6457,-3.6481,-3.6303,-3.5842,-3.5345,-3.5046,-3.4939,-3.2097,-2.9917,-2.8697,0.0,0.0,0.0,0.0,0.0,0.0,0.0,0.0,0.0,0.0,0.0,0.0,0.0,0.0,0.0,-2.845,0.0,-3.2124,-3.1769,0.0,0.0,0.0,-2.9651,-3.0717,-3.2544,-3.4349,-3.587,0.0,0.0,-4.1204,0.0,-4.2134,-4.1474,-4.1965,-4.2608,-4.3223,-4.3358,-4.3758,-4.4373,-4.3914,-4.3383,-4.3047,-4.174,-4.0325,-3.9102,-3.8702,-3.8267,-3.7773,-3.7603,-3.7603,-3.7603,-3.7569,-3.755,-3.7535,-3.7455,-3.7158,-3.5768,-3.5419,-3.5073,-3.4358,-3.4079,-3.3811,-3.556,-3.5624,-3.4269,-3.4072,-3.4627,-3.4454,-3.4703,-3.5235,-3.5126,-3.5075,-3.5047,-3.5057,-3.4609,-3.383,-3.3301,-3.335,-3.3878,-3.4096,-3.4495,-3.5094,-3.56,-3.5815,-3.5794,-3.6484,-3.6754,-3.6644,-3.6543,-3.6441,-3.6362,-3.6109,-3.586,-3.561,-3.5518,-3.3984,-3.1252,-3.3474,-3.5052,-3.5787,-3.5728,-3.5914,-3.6335,-3.7307,-3.784,-3.7897,-3.8171,-3.8192,-3.7978,-3.7518,-3.726,-3.7124,-3.5883,-3.5003,-3.4645,-2.8119,0.0,0.0,0.0,0.0,0.0,0.0,0.0,0.0,0.0,-2.1819,-1.753,0.0,-2.5598,0.0,-3.3182,-3.481,-3.1765,-3.2835,0.0,0.0,-3.2513,-3.2936,-3.6468,-3.6857,-3.7618,-3.9648,-4.1001,-4.1847,-4.2016,-4.2675,-4.3098,-4.2885,-4.3031,-4.3014,-4.2675,-4.3589,-4.4395,-4.4553,-4.4462,-4.4102,-4.3566,-4.223,-4.1091,-4.0542,-3.9995,-3.9567,-3.94,-3.9249,-3.9143,-3.9128,-3.9037,-3.8945,-3.8945,-3.8945,-3.8823,-3.8404,-3.7514,-3.6636,-3.6217,-3.5707,-3.5221,-3.5713,-3.5849,-3.5757,-3.5725,-3.5732,-3.5541,-3.5425,-3.5324,-3.5224,-3.5149,-3.5092,-3.5092,-3.5092,-3.5092,-3.5138,-3.5138,-3.5092,-3.5164,-3.5354,-3.5699,-3.6166,-3.653,-3.6844,-3.7622,-3.7933,-3.786,-3.8104,-3.8051,-3.7703,-3.7576,-3.7581,-3.7681,-3.7742,-3.6723,-3.4793,-3.5978,-3.6479,-3.6194,-3.689,-3.7499,-3.8008,-3.8688,-3.8582,-3.7683,-3.8827,-3.8836,-3.7513,-3.8239,-3.7988,-3.6543,-3.5895,-3.5651,-3.5671,-3.1149,-2.9413,0.0,0.0,0.0,0.0,0.0,0.0,0.0,0.0,0.0,0.0,0.0,-2.9524,-3.0821,-3.5162,-3.6603,-3.3457,-3.5487,-3.6992,-3.6975,-3.6863,-3.776,-4.0206,-4.0104,-4.0324,-4.1542,-4.2337,-4.2794,-4.2811,-4.347,-4.3927,-4.3927,-4.3944,-4.3792,-4.3504,-4.4333,-4.5077,-4.5122,-4.5348,-4.5198,-4.4252,-4.3313,-4.2435,-4.1719,-4.1222,-4.0891,-4.0891,-4.0731,-4.0607,-4.0555,-4.0424,-4.0292,-4.0292,-4.0038,-3.9822,-3.9695,-3.8964,-3.8098,-3.7582,-3.7116,-3.6663,-3.6084,-3.6045,-3.5947,-3.5889,-3.5883,-3.5788,-3.5605,-3.5444,-3.5334,-3.5239,-3.511,-3.511,-3.511,-3.511,-3.511,-3.511,-3.5129,-3.5287,-3.5742,-3.641,-3.6684,-3.7188,-3.7884,-3.8735,-3.9117,-3.9118,-3.9677,-3.9751,-3.9344,-3.9136,-3.8857,-3.8554,-3.8554,-3.8533,-3.8475,-3.7809,-3.7241,-3.6798,-3.7936,-3.8899,-3.9642,-3.977,-3.8915,-3.7227,-3.9319,-3.9371,-3.6946,-3.8658,-3.8475,-3.5784,-3.5182,-3.5072,-3.5265,-3.4246,-3.3697,0.0,-3.2529,0.0,0.0,0.0,0.0,0.0,0.0,0.0,0.0,-3.36,-3.4434,-3.2891,-3.6297,-3.8024,-3.6678,-3.8877,-4.0375,-4.0417,-4.1534,-4.2303,-4.2286,-4.2371,-4.2439,-4.2422,-4.3098,-4.3544,-4.3589,-4.4164,-4.4615,-4.4733,-4.475,-4.4801,-4.4902,-4.5314,-4.5669,-4.5805,-4.6376,-4.6171,-4.5066,-4.4571,-4.391,-4.2736,-4.2154,-4.2036,-4.1982,-4.1797,-4.1663,-4.1625,-4.143,-4.1362,-4.1384,-4.0891,-4.0546,-4.0516,-4.0046,-3.9401,-3.8728,-3.8339,-3.784,-3.6941,-3.6883,-3.6201,-3.5889,-3.5889,-3.5872,-3.5779,-3.564,-3.545,-3.5311,-3.5185,-3.5185,-3.5176,-3.5185,-3.5176,-3.5185,-3.5223,-3.5929,-3.632,-3.6521,-3.784,-3.8555,-3.8801,-3.9585,-3.9996,-4.0043,-4.0168,-4.0008,-3.9637,-3.9679,-3.9402,-3.8759,-3.8818,-3.8398,-3.7628,0.0,0.0,0.0,-3.8245,-3.8102,-3.8878,-3.9554,-3.9687,-3.9335,-4.1324,0.0,-4.1478,-4.1502,-4.1203,-4.0495,-3.982,0.0,0.0,0.0,0.0,0.0,0.0,0.0,0.0,0.0,0.0,0.0,-3.4801,-3.496,-3.4234,-3.7797,-3.9388,-3.7615,-4.0252,-4.1997,-4.1722,-4.1776,-4.1863,-4.1924,-4.2161,-4.2303,-4.2303,-4.2828,-4.3172,-4.3217,-4.3876,-4.4378,-4.4333,-4.453,-4.4835,-4.5348,-4.5483,-4.5754,-4.6278,-4.6024,-4.5974,-4.6452,-4.6817,-4.6529,-4.5632,-4.504,-4.4464,-4.3494,-4.2711,-4.2319,-4.2282,-4.2023,-4.1731,-4.1746,-4.1535,-4.1467,-4.1467,-4.1302,-4.119,-4.1205,-4.107,-4.0808,-4.0137,-3.9413,-3.8765,-3.7194,0.0,-3.6259,-3.6142,0.0,-3.6086,-3.5852,-3.579,-3.5616,-3.5463,-3.5289,-3.5231,-3.5182,-3.522,-3.5641,-3.5832,-3.587,-3.6719,-3.733,-3.7761,-3.8564,-3.9175,-3.9652,-4.0053,-4.0282,-4.0301,-4.032,-4.0128,-3.9821,-3.9862,-3.958,-3.8952,-3.8994,-3.8648,-3.8041,-3.8792,-3.9428,-3.9882,-3.9108,-3.9273,-4.0432,-4.0873,-4.0689,-3.9992,0.0,0.0,0.0,0.0,0.0,0.0,0.0,0.0,0.0,0.0,0.0,-3.8904,-3.7413,-3.6693,-3.7309,-3.7462,-3.8266,-3.9966,-4.092,-4.0933,-3.9724,-4.1753,-4.2665,-4.1709,-4.2778,-4.3467,-4.3502,-4.3546,-4.3528,-4.3288,-4.356,-4.3702,-4.3535,-4.3758,-4.3978,-4.4012,-4.4361,-4.4598,-4.4615,-4.4942,-4.5246,-4.5652,-4.6041,-4.6498,-4.7158,-4.7039,-4.7056,-4.775,-4.7894,-4.7483,-4.6464,-4.6003,-4.5318,-4.4359,-4.3712,-4.3438,-4.331,-4.3046,-4.2795,-4.268,-4.2511,-4.2357,-4.2327,-4.2102,-4.1886,-4.1856,-4.1647,-4.1459,-4.1309,-4.0783,-4.0055,-3.7331,-3.7116,-3.6259,-3.6298,-3.6921,-3.6356,-3.6123,-3.61,0.0,0.0,0.0,-3.5274,-3.531,-3.5469,-3.6175,-3.6576,-3.6767,-3.7559,-3.8304,-3.8992,-3.9164,-3.9603,-4.0301,-4.032,-4.032,-4.032,-4.032,-4.0186,-3.9986,-3.9975,-3.9728,-3.9253,-3.921,-3.9095,-3.8977,-3.9551,-4.0029,-4.0302,-4.0029,-4.0598,-4.2029,-4.2084,-4.146,-4.0139,-4.2321,-4.2578,-4.0669,-4.2383,-4.2201,-3.9637,-3.9336,-3.9341,-3.9491,-3.9067,-4.0257,-4.3324,-4.33,-4.3552,-4.4582,-4.4637,-4.4983,-4.5669,-4.5723,-4.5434,-4.4803,-4.4886,-4.4975,-4.4954,-4.4609,-4.4447,-4.4424,-4.4758,-4.4876,-4.4457,-4.4862,-4.5008,-4.4665,-4.475,-4.4818,-4.4818,-4.4953,-4.5004,-4.5089,-4.5551,-4.5974,-4.6143,-4.6667,-4.7276,-4.7919,-4.8041,-4.8223,-4.8748,-4.8804,-4.8416,-4.7221,-4.6728,-4.6218,-4.4796,-4.4526,-4.4458,-4.4305,-4.4089,-4.391,-4.3609,-4.3463,-4.3284,-4.323,-4.2865,-4.2605,-4.256,-4.2102,-4.1878,-4.2327,-4.2102,-4.149,-3.7876,-3.7116,-3.6259,-3.5967,-3.6142,-3.6746,-3.7038,-3.6935,-3.6083,-3.5591,-3.5398,-3.5378,-3.5706,-3.6328,-3.6443,-3.6863,-3.7578,-3.8438,-3.8877,0.0,-3.9785,-4.0186,-4.0301,-4.032,-4.032,-4.032,-4.032,-4.0291,-4.0244,-4.0244,-4.0087,-3.9804,-3.9544,-3.9532,-3.9709,-3.9827,-4.0561,-4.1882,-4.0616,-4.0341,-4.1224,-4.126,-4.1168,-4.1022,-4.2598,-4.3368,-4.302,-4.3296,-4.3296,-4.2855,-4.3427,-4.3776,-4.383,-4.4218,-4.4894,-4.5462,-4.5406,-4.5424,-4.5589,-4.5607,-4.5899,-4.6532,-4.6561,-4.619,-4.5477,-4.6021,-4.6379,-4.6238,-4.6319,-4.6478,-4.6433,-4.5789,-4.5329,-4.5182,-4.4875,-4.4682,-4.4699,-4.5196,-4.5551,-4.5551,-4.6126,-4.6413,-4.6363,-4.6532,-4.687,-4.7411,-4.7614,-4.802,-4.8595,-4.8866,-4.8883,-4.8984,-4.9018,-4.8403,-4.7153,-4.6795,-4.6182,-4.4821,-4.4473,-4.4358,-4.432,-4.4026,-4.3808,-4.369,-4.3518,-4.3344,-4.3305,-4.3245,-4.311,-4.312,-4.297,-4.3015,-4.312,-4.2976,-4.2679,-3.8967,-3.85,-3.7681,-3.7584,-3.8013,-3.7935,-3.7915,-3.7873,-3.7436,-3.6852,-3.6292,-3.6219,-3.6613,-3.7275,-3.7766,-3.8112,-3.8438,-3.9317,-3.9699,-3.9747,-4.0119,-4.032,-4.032,-4.032,-4.032,-4.032,-4.032,-4.032,-4.032,-4.032,-4.0166,-3.9911,-3.9902,-3.9974,-4.0159,-4.0841,-4.1552,-4.2249,-4.157,-4.1589,-4.2359,-4.2396,-4.2396,-4.2415,-4.3149,-4.3479,-4.3497,-4.392,-4.414,-4.414,-4.4929,-4.5369,-4.5369,-4.5682,-4.5865,-4.5902,-4.5883,-4.6048,-4.647,-4.689,-4.7217,-4.7524,-4.7461,-4.7436,-4.745,-4.7334,-4.7215,-4.7156,-4.727,-4.7521,-4.7913,-4.7234,-4.6796,-4.6978,-4.6525,-4.6107,-4.5891,-4.6058,-4.6295,-4.6329,-4.6566,-4.6786,-4.6786,-4.7158,-4.7496,-4.7872,-4.8206,-4.8615,-4.8951,-4.9018,-4.9018,-4.9018,-4.9001,-4.8386,-4.7069,-4.6795,-4.6182,-4.4821,-4.4534,-4.4435,-4.432,-4.4104,-4.3949,-4.3729,-4.3596,-4.3463,-4.3344,-4.3305,-4.3305,-4.3305,-4.3305,-4.3305,-4.3305,-4.3305,-4.2835,-3.9666,-3.9415,-3.8792,-3.9006,-3.9705,-3.887,-3.8597,-3.8772,-3.8578,-3.8179,-3.7658,-3.7352,-3.7589,-3.8241,-3.8919,-3.9221,-3.9373,-3.9976,-4.0301,-4.032,-4.032,-4.032,-4.032,-4.032,-4.032,-4.0339,-4.0482,-4.0578,-4.0568,-4.0759,-4.0719,-4.0506,-4.0672,-4.0826,-4.0947,-4.1974,-4.2558,-4.2677,-4.2678,-4.2958,-4.3478,-4.3479,-4.3479,-4.3479,-4.3479,-4.3571,-4.3773,-4.4378,-4.4783,-4.4966,-4.5736,-4.6159,-4.6195,-4.6361,-4.6434,-4.6434,-4.6452,-4.6709,-4.7314,-4.7899,-4.83,-4.8483,-4.8384,-4.863,-4.9237,-4.8729,-4.8264,-4.8261,-4.8275,-4.8486,-4.8758,-4.8406,-4.8141,-4.8172,-4.7734,-4.7159,-4.6857,-4.6938,-4.7039,-4.7056,-4.7175,-4.7327,-4.7394,-4.78,-4.8156,-4.8244,-4.8663,-4.8984,-4.9018,-4.9018,-4.9018,-4.9018,-4.9018,-4.8418,-4.7103,-4.6795,-4.6182,-4.4843,-4.4572,-4.4496,-4.4396,-4.432,-4.4143,-4.3847,-4.3636,-4.3503,-4.3344,-4.3305,-4.3305,-4.3305,-4.3305,-4.3305,-4.3305,-4.3076,-4.2522,-3.9376,-3.8656,-3.8617,-3.9006,-3.9708,-3.8909,-3.8987,-3.9532,-3.887,-3.8925,-3.9396,-3.8595,-3.8535,-3.9037,-3.9188,-3.9575,-4.0129,-4.0263,-4.032,-4.032,-4.032,-4.032,-4.032,-4.032,-4.032,-4.0416,-4.1036,-4.1399,-4.1437,-4.2144,-4.2406,-4.2212,-4.2188,-4.2422,-4.2862,-4.3052,-4.3347,-4.3828,-4.3846,-4.374,-4.3513,-4.3479,-4.3479,-4.3479,-4.3497,-4.3846,-4.4507,-4.4654,-4.504,-4.5755,-4.6562,-4.6984,-4.7058,-4.7663,-4.8067,-4.8031,-4.8049,-4.8141,-4.8177,-4.8232,-4.8654,-4.9277,-4.9307,-4.9551,-5.0195,-5.0144,-4.9981,-4.9898,-4.9894,-4.9586,-4.921,-4.8714,-4.8277,-4.7961,-4.741,-4.6844,-4.6984,-4.7411,-4.7787,-4.7817,-4.8291,-4.8781,-4.8663,-4.8748,-4.8849,-4.8798,-4.8883,-4.9018,-4.9018,-4.9018,-4.9018,-4.9018,-4.9018,-4.8386,-4.7171,-4.6795,-4.6147,-4.4955,-4.461,-4.4572,-4.4496,-4.4281,-4.3988,-4.3949,-4.3636,-4.3423,-4.3329,-4.3305,-4.3305,-4.3305,-4.3305,-4.3305,-4.321,-4.2795,-4.1949,-4.037,-4.0039,-4.0039,-4.0234,-4.0487,-4.0175,-4.0253,-4.0506,-4.0192,-4.0253,-4.0503,-4.0146,-4.0047,-4.0188,-4.0127,-4.0222,-4.0402,-4.0337,-4.032,-4.032,-4.032,-4.032,-4.0339,-4.0807,-4.1017,-4.1094,-4.1858,-4.2259,-4.2335,-4.2641,-4.2725,-4.2699,-4.2948,-4.3237,-4.3467,-4.3764,-4.3942,-4.4002,-4.4005,-4.3846,-4.3549,-4.3479,-4.3479,-4.3551,-4.3956,-4.4342,-4.4764,-4.5572,-4.6269,-4.6636,-4.7369,-4.781,-4.781,-4.8122,-4.8324,-4.8343,-4.8783,-4.9058,-4.9058,-4.9499,-4.9881,-5.0134,-5.011,-5.0373,-5.0969,-5.1031,-5.1129,-5.1344,-5.0691,-5.0015,-4.9877,-4.9384,-4.8993,-4.8894,-4.8443,-4.8088,-4.8105,-4.8342,-4.8562,-4.8578,-4.8815,-4.9018,-4.9018,-4.9018,-4.9018,-4.9018,-4.9018,-4.9018,-4.9018,-4.9018,-4.9018,-4.9018,-4.9018,-4.8386,-4.7137,-4.6795,-4.6111,-4.5067,-4.461,-4.461,-4.4503,-4.4396,-4.4166,-4.4011,-4.3699,-4.3463,-4.3329,-4.329,-4.3305,-4.3305,-4.3305,-4.3305,-4.3305,-4.3036,-4.2263,-4.1107,-4.1107,-4.1107,-4.1107,-4.1107,-4.1107,-4.1107,-4.1107,-4.1107,-4.1107,-4.1107,-4.1107,-4.1041,-4.0935,-4.0765,-4.0622,-4.0508,-4.0354,-4.0444,-4.0597,-4.0635,-4.0759,-4.1017,-4.1552,-4.1858,-4.1991,-4.2717,-4.3252,-4.3443,-4.3482,-4.3482,-4.3557,-4.3866,-4.4072,-4.4075,-4.4405,-4.4393,-4.414,-4.4051,-4.3846,-4.3566,-4.3699,-4.3809,-4.3864,-4.4397,-4.4893,-4.537,-4.647,-4.7223,-4.7424,-4.8012,-4.8324,-4.8324,-4.8324,-4.8398,-4.871,-4.9444,-4.9941,-4.9941,-5.0472,-5.0853,-5.0957,-5.0952,-5.1195,-5.1697,-5.1831,-5.2018,-5.2286,-5.143,-5.0803,-5.0428,-4.9969,-4.9681,-4.9646,-4.9229,-4.9001,-4.8968,-4.9018,-4.8984,-4.9018,-4.8984,-4.9018,-4.9018,-4.9018,-4.9018,-4.9018,-4.9018,-4.9018,-4.9018,-4.9018,-4.9018,-4.9018,-4.9018,-4.8386,-4.7103,-4.6795,-4.6111,-4.5142,-4.4594,-4.4533,-4.4418,-4.4251,-4.4044,-4.3707,-4.3696,-4.3621,-4.3369,-4.3305,-4.3275,-4.329,-4.3305,-4.3305,-4.3305,-4.3115,-4.2441,-4.1107,-4.1107,-4.1107,-4.1107,-4.1107,-4.1107,-4.1107,-4.1107,-4.1107,-4.1107,-4.1107,-4.1107,-4.1107,-4.1068,-4.0818,-4.0622,-4.0489,-4.0363,-4.0692,-4.1323,-4.139,-4.1858,-4.266,-4.2737,-4.2737,-4.2794,-4.3558,-4.4322,-4.5029,-4.5105,-4.5211,-4.5144,-4.5104,-4.518,-4.5099,-4.4865,-4.4637,-4.436,-4.4121,-4.3846,-4.3622,-4.4232,-4.4617,-4.4672,-4.4728,-4.548,-4.6709,-4.7039,-4.7443,-4.8214,-4.8269,-4.8324,-4.8324,-4.8343,-4.871,-4.95,-5.0288,-5.0765,-5.0747,-5.0875,-5.1206,-5.1773,-5.1797,-5.2002,-5.2528,-5.2512,-5.2472,-5.2462,-5.2271,-5.1766,-5.0832,-5.0268,-4.9665,-4.9165,-4.9063,-4.9018,-4.9018,-4.9018,-4.9018,-4.9018,-4.9018,-4.9018,-4.9018,-4.9018,-4.9018,-4.9018,-4.9018,-4.8968,-4.8917,-4.8951,-4.8984,-4.892,-4.8827,-4.845,-4.7137,-4.6795,-4.6147,-4.5048,-4.4409,-4.4409,-4.4119,-4.3837,-4.3632,-4.3404,-4.3324,-4.3296,-4.3294,-4.3275,-4.3245,-4.3245,-4.329,-4.3305,-4.3305,-4.2578,-4.2032,-4.1107,-4.1107,-4.1107,-4.1107,-4.1107,-4.1107,-4.1107,-4.1107,-4.1107,-4.1107,-4.1107,-4.1107,-4.1107,-4.1081,-4.0823,-4.0668,-4.0602,-4.0396,-4.0731,-4.1447,-4.1504,-4.1953,-4.2775,-4.331,-4.3577,-4.3711,-4.4418,-4.4972,-4.5239,-4.5277,-4.5277,-4.5277,-4.5277,-4.5277,-4.5246,-4.4957,-4.4663,-4.4402,-4.4136,-4.3846,-4.3641,-4.4287,-4.4929,-4.548,-4.5975,-4.6489,-4.7076,-4.759,-4.7993,-4.8306,-4.8324,-4.8324,-4.8361,-4.8838,-4.9499,-5.0325,-5.1114,-5.1573,-5.1628,-5.2068,-5.2454,-5.269,-5.2642,-5.2568,-5.2733,-5.2676,-5.2563,-5.2457,-5.2114,-5.1669,-5.1355,-5.0742,-5.0028,-4.9212,-4.9018,-4.9018,-4.9018,-4.9018,-4.9018,-4.9018,-4.9018,-4.9018,-4.9018,-4.9018,-4.9018,-4.9018,-4.9001,-4.8798,-4.8494,-4.868,-4.8798,-4.8419,-4.8274,-4.7967,-4.7017,-4.6811,-4.6279,-4.4945,-4.4132,-4.4132,-4.3934,-4.3616,-4.3358,-4.3001,-4.2893,-4.255,-4.2432,-4.2611,-4.2701,-4.3105,-4.311,-4.3155,-4.3305,-4.2776,-4.2426,-4.1114,-4.1117,-4.111,-4.1107,-4.1107,-4.1107,-4.1107,-4.1107,-4.1107,-4.1107,-4.1149,-4.1361,-4.1477,-4.1493,-4.1502,-4.1487,-4.1435,-4.0987,-4.1132,-4.1896,-4.2183,-4.2775,-4.3577,-4.4169,-4.4437,-4.4494,-4.4991,-4.5277,-4.5277,-4.5277,-4.5277,-4.5277,-4.5277,-4.5277,-4.5235,-4.4887,-4.4572,-4.4393,-4.4271,-4.4122,-4.4029,-4.4947,-4.57,-4.6324,-4.7076,-4.748,-4.748,-4.7993,-4.8324,-4.8324,-4.8324,-4.8434,-4.8765,-4.9517,-5.0343,-5.1132,-5.194,-5.2399,-5.2435,-5.2913,-5.3167,-5.3124,-5.2999,-5.2872,-5.2761,-5.2631,-5.2554,-5.2392,-5.1975,-5.1569,-5.1235,-5.0769,-5.0124,-4.9424,-4.9124,-4.9001,-4.9018,-4.9018,-4.9018,-4.9018,-4.9018,-4.9018,-4.9001,-4.9018,-4.9018,-4.9001,-4.8849,-4.8409,-4.8122,-4.8037,-4.8156,-4.7656,-4.73,-4.6863,-4.6072,-4.5602,-4.5693,-4.4563,-4.4071,-4.3987,-4.3613,-4.3304,-4.2963,-4.2599,-4.2206,-4.1791,-4.17,-4.1856,-4.2192,-4.2656,-4.2821,-4.2821,-4.3,-4.3155,-4.2797,-4.1178,-4.1248,-4.1117,-4.1211,-4.1211,-4.1133,-4.111,-4.111,-4.111,-4.1149,-4.1344,-4.1926,-4.2218,-4.24,-4.2718,-4.3066,-4.2813,-4.2042,-4.2049,-4.2794,-4.3491,-4.4265,-4.5059,-4.5105,-4.5163,-4.5163,-4.5277,-4.5277,-4.5277,-4.5277,-4.5277,-4.5277,-4.5277,-4.5277,-4.5277,-4.4764,-4.4448,-4.4514,-4.4619,-4.4653,-4.4911,-4.6122,-4.6892,-4.7094,-4.7792,-4.8214,-4.8251,-4.8288,-4.8324,-4.8324,-4.8324,-4.871,-4.9555,-5.0362,-5.1187,-5.194,-5.2729,-5.3133,-5.313,-5.3148,-5.3143,-5.302,-5.289,-5.2761,-5.2654,-5.2554,-5.248,-5.2322,-5.1957,-5.1432,-5.0849,-5.0377,-4.9959,-4.9803,-4.932,-4.9001,-4.9018,-4.9018,-4.9018,-4.9001,-4.8951,-4.8984,-4.8968,-4.8765,-4.8663,-4.8595,-4.8274,-4.7817,-4.7597,-4.7327,-4.6938,-4.6654,-4.6293,-4.5766,-4.4965,-4.4235,-4.433,-4.4242,-4.4108,-4.3972,-4.3232,-4.2779,-4.2394,-4.2017,-4.1625,-4.1213,-4.1168,-4.1347,-4.1444,-4.1833,-4.2058,-4.2396,-4.2462,-4.2626,-4.2991,-4.2827,-4.2755,-4.2214,-4.2,-4.1902,-4.1354,-4.1117,-4.1109,-4.1109,-4.1412,-4.1909,-4.2179,-4.2627,-4.3078,-4.3228,-4.3241,-4.3253,-4.3211,-4.3376,-4.3643,-4.3911,-4.4494,-4.5163,-4.5277,-4.5277,-4.5277,-4.5277,-4.5277,-4.5277,-4.5277,-4.5277,-4.5277,-4.5277,-4.5277,-4.5256,-4.4745,-4.4627,-4.5128,-4.4885,-4.4947,-4.5553,-4.6544,-4.7094,-4.7186,-4.7884,-4.8324,-4.8324,-4.8324,-4.8324,-4.8324,-4.8324,-4.8948,-5.0233,-5.1187,-5.1995,-5.2729,-5.3041,-5.3185,-5.3185,-5.3185,-5.3143,-5.2999,-5.2872,-5.2743,-5.2631,-5.2549,-5.2322,-5.2048,-5.2048,-5.1842,-5.0911,-5.0562,-5.0096,-4.9364,-4.9124,-4.9018,-4.9018,-4.9018,-4.9018,-4.8934,-4.8578,-4.8308,-4.8173,-4.7953,-4.7614,-4.7597,-4.731,-4.7039,-4.6566,-4.6633,-4.6292,-4.5581,-4.5166,-4.4675,-4.3922,-4.3234,-4.3027,-4.322,-4.3325,-4.3414,-4.279,-4.2315,-4.1917,-4.1413,-4.1009,-4.0763,-4.0718,-4.0741,-4.0846,-4.1145,-4.1519,-4.1722,-4.1796,-4.2073,-4.2453,-4.3643,-4.3551,-4.2734,-4.2381,-4.2298,-4.1476,-4.11,-4.1109,-4.1106,-4.1571,-4.2266,-4.2659,-4.3266,-4.3968,-4.4176,-4.4238,-4.4266,-4.4506,-4.4576,-4.4506,-4.4475,-4.4819,-4.5258,-4.5277,-4.5277,-4.5277,-4.5277,-4.5277,-4.5277,-4.5277,-4.5277,-4.5277,-4.5277,-4.5277,-4.5292,-4.5029,-4.5181,-4.5669,-4.5673,-4.5901,-4.6524,-4.7206,-4.7535,-4.7645,-4.8049,-4.8288,-4.8324,-4.8324,-4.8324,-4.8379,-4.8581,-4.9462,-5.071,-5.1536,-5.2362,-5.2983,-5.3185,-5.3185,-5.3185,-5.3185,-5.3103,-5.2955,-5.285,-5.2717,-5.2604,-5.2526,-5.2298,-5.2072,-5.1793,-5.1533,-5.0849,-5.0248,-4.9739,-4.9107,-4.9001,-4.9018,-4.9018,-4.9018,-4.9018,-4.8866,-4.8392,-4.799,-4.7753,-4.7276,-4.6819,-4.6769,-4.6549,-4.6312,-4.5855,-4.5838,-4.5236,-4.4547,-4.3981,-4.3477,-4.2911,-4.2344,-4.1791,-4.1971,-4.2262,-4.2346,-4.2138,-4.1893,-4.1556,-4.0895,-4.0381,-4.0074,-4.0023,-4.0038,-4.0127,-4.0546,-4.0905,-4.101,-4.113,-4.1617,-4.1876,-4.3858,-4.3726,-4.2858,-4.2539,-4.2409,-4.1512,-4.1173,-4.1217,-4.123,-4.1802,-4.2646,-4.3376,-4.4142,-4.4958,-4.5451,-4.5617,-4.5763,-4.5472,-4.5358,-4.5265,-4.5223,-4.526,-4.5288,-4.5277,-4.5277,-4.5277,-4.5277,-4.5277,-4.5277,-4.5277,-4.5277,-4.5277,-4.5277,-4.5343,-4.5406,-4.5544,-4.5814,-4.6345,-4.6793,-4.7185,-4.7613,-4.7997,-4.8251,-4.8213,-4.8288,-4.8324,-4.8324,-4.8434,-4.8453,-4.8489,-4.9224,-5.005,-5.0857,-5.1628,-5.2491,-5.3148,-5.3185,-5.3185,-5.3185,-5.3164,-5.306,-5.2868,-5.2783,-5.2712,-5.2549,-5.248,-5.2345,-5.2072,-5.1457,-5.0805,-5.0425,-4.9855,-4.9229,-4.9032,-4.9018,-4.9018,-4.9018,-4.9018,-4.8951,-4.8765,-4.8325,-4.777,-4.7567,-4.6921,-4.6566,-4.6397,-4.5974,-4.5652,-4.5483,-4.5122,-4.4347,-4.3724,-4.3127,-4.2478,-4.1987,-4.1522,-4.1025,-4.1021,-4.125,-4.1309,-4.1383,-4.1185,-4.0977,-4.0312,-3.9918,-3.9619,-3.9448,-3.9604,-3.9619,-3.9843,-4.0098,-4.0277,-4.0681,-4.1175,-4.1337,-4.5618,-4.5464,-4.3987,-4.3343,-4.3127,-4.1772,-4.1493,-4.1998,-4.2044,-4.276,-4.3964,-4.4429,-4.4952,-4.5737,-4.5803,-4.585,-4.5815,-4.5599,-4.5447,-4.541,-4.537,-4.5338,-4.5307,-4.5277,-4.5277,-4.5277,-4.5277,-4.5277,-4.5277,-4.5335,-4.5316,-4.5277,-4.5411,-4.5543,-4.5821,-4.5963,-4.6574,-4.74,-4.7457,-4.7804,-4.834,-4.8311,-4.8306,-4.8324,-4.8324,-4.8324,-4.8379,-4.8912,-4.9262,-4.9317,-5.0031,-5.0839,-5.1591,-5.238,-5.2931,-5.3112,-5.3185,-5.3185,-5.3185,-5.3103,-5.2977,-5.2824,-5.2721,-5.2604,-5.2521,-5.2498,-5.2072,-5.1508,-5.1139,-5.0769,-4.9826,-4.9568,-4.9424,-4.9094,-4.8951,-4.8951,-4.8968,-4.9001,-4.8815,-4.824,-4.753,-4.6955,-4.6413,-4.5805,-4.5314,-4.5246,-4.5128,-4.4959,-4.4925,-4.4699,-4.4121,-4.3213,-4.2523,-4.1737,-4.112,-4.0655,-4.0333,-4.0233,-4.0269,-4.0202,-4.02,-4.0106,-3.9922,-3.9604,-3.9664,-3.9433,-3.9403,-3.9448,-3.9403,-3.9388,-3.9523,-3.9888,-4.0427,-4.092,-4.0971,-4.6292,-4.6175,-4.4815,-4.4034,-4.3562,-4.2229,-4.1735,-4.1905,-4.2271,-4.3075,-4.4171,-4.4769,-4.5367,-4.6045,-4.5993,-4.5924,-4.585,-4.5669,-4.551,-4.539,-4.536,-4.5328,-4.5307,-4.5277,-4.5277,-4.5277,-4.5277,-4.5277,-4.5373,-4.5621,-4.5632,-4.5526,-4.6023,-4.6272,-4.612,-4.6891,-4.7402,-4.7992,-4.8089,-4.837,-4.8744,-4.8495,-4.8325,-4.8324,-4.8324,-4.8416,-4.8838,-4.9335,-4.9592,-4.9831,-5.0637,-5.1518,-5.1977,-5.2766,-5.3167,-5.3185,-5.3185,-5.3185,-5.3164,-5.3082,-5.2955,-5.2806,-5.2676,-5.2581,-5.2457,-5.2298,-5.1719,-5.1329,-5.1044,-5.0366,-4.9686,-4.9496,-4.9333,-4.9029,-4.8731,-4.8562,-4.8562,-4.8528,-4.8206,-4.753,-4.6802,-4.6227,-4.572,-4.5043,-4.4671,-4.4632,-4.4733,-4.4666,-4.4604,-4.431,-4.3885,-4.2953,-4.2141,-4.1426,-4.0836,-4.0366,-4.0051,-3.994,-3.9798,-3.9625,-3.9553,-3.9496,-3.9475,-3.9433,-3.9403,-3.9388,-3.9388,-3.9388,-3.9388,-3.9388,-3.9388,-3.9538,-4.0083,-4.0457,-4.0508,-4.6302,-4.6223,-4.5382,-4.4499,-4.3634,-4.2754,-4.2087,-4.1686,-4.231,-4.3122,-4.403,-4.4802,-4.5532,-4.6068,-4.6033,-4.6011,-4.5892,-4.5761,-4.5613,-4.5448,-4.536,-4.5317,-4.5307,-4.5277,-4.5277,-4.5277,-4.5277,-4.5411,-4.5621,-4.6175,-4.6175,-4.6137,-4.7131,-4.7212,-4.7011,-4.7845,-4.8385,-4.8401,-4.8656,-4.8736,-4.8745,-4.8495,-4.8324,-4.8324,-4.8324,-4.8728,-4.9317,-4.9721,-4.9831,-4.9886,-5.1242,-5.1922,-5.2197,-5.2894,-5.313,-5.3185,-5.3185,-5.3185,-5.3164,-5.306,-5.2915,-5.2806,-5.2654,-5.2581,-5.2415,-5.2048,-5.1576,-5.1304,-5.0505,-4.9988,-4.9656,-4.9273,-4.9094,-4.8917,-4.8409,-4.7939,-4.777,-4.7753,-4.7513,-4.6802,-4.6075,-4.5771,-4.5432,-4.5077,-4.4598,-4.4598,-4.4598,-4.4598,-4.4395,-4.4076,-4.3529,-4.2738,-4.1949,-4.1176,-4.0631,-4.0101,-3.991,-3.9696,-3.9568,-3.946,-3.946,-3.9424,-3.9424,-3.9388,-3.9388,-3.9388,-3.9388,-3.9388,-3.9388,-3.9388,-3.9388,-3.9448,-3.9576,-3.9891,-4.004,-4.6302,-4.6223,-4.5363,-4.4502,-4.3642,-4.2778,-4.268,-4.3111,-4.3298,-4.4092,-4.5319,-4.5848,-4.5952,-4.5959,-4.5959,-4.5892,-4.5815,-4.5704,-4.5549,-4.5438,-4.538,-4.5338,-4.5337,-4.5403,-4.5335,-4.5354,-4.5316,-4.566,-4.6194,-4.6538,-4.6806,-4.7272,-4.7605,-4.791,-4.8137,-4.8561,-4.9035,-4.9051,-4.9134,-4.9015,-4.8746,-4.8495,-4.8324,-4.8324,-4.8343,-4.8783,-4.9574,-5.0196,-5.082,-5.1408,-5.1811,-5.2325,-5.2784,-5.3038,-5.3167,-5.3185,-5.3185,-5.3185,-5.3164,-5.2977,-5.2828,-5.2783,-5.2622,-5.2503,-5.2457,-5.1909,-5.1381,-5.0929,-5.0293,-4.9669,-4.9218,-4.9073,-4.8917,-4.8765,-4.8223,-4.7567,-4.7192,-4.7056,-4.6701,-4.6126,-4.5771,-4.5483,-4.4942,-4.4835,-4.4598,-4.4598,-4.4598,-4.4598,-4.4265,-4.3898,-4.3243,-4.252,-4.1641,-4.0888,-4.0405,-3.996,-3.9732,-3.9589,-3.9496,-3.9388,-3.9388,-3.9388,-3.9388,-3.9388,-3.9388,-3.9388,-3.9388,-3.9388,-3.9388,-3.9388,-3.9418,-3.9486,-3.9533,-3.9616,-3.9498,-4.6302,-4.6243,-4.5812,-4.5109,-4.4249,-4.3408,-4.329,-4.3645,-4.37,-4.4375,-4.542,-4.6009,-4.6144,-4.591,-4.5899,-4.5858,-4.5754,-4.5635,-4.5504,-4.5515,-4.5734,-4.5922,-4.6025,-4.6245,-4.636,-4.6033,-4.6347,-4.6748,-4.7092,-4.7474,-4.778,-4.7903,-4.8514,-4.8767,-4.8789,-4.9274,-4.9367,-4.9124,-4.9206,-4.908,-4.8604,-4.8402,-4.8324,-4.8453,-4.8691,-4.9297,-5.0141,-5.093,-5.1738,-5.2344,-5.2564,-5.2729,-5.3075,-5.3185,-5.3185,-5.3185,-5.3185,-5.3164,-5.3082,-5.2934,-5.2783,-5.2698,-5.2577,-5.2503,-5.2257,-5.1701,-5.1087,-5.0616,-4.9976,-4.9201,-4.8575,-4.8494,-4.8494,-4.8291,-4.753,-4.687,-4.6752,-4.6481,-4.5991,-4.5399,-4.5145,-4.4976,-4.475,-4.4615,-4.4598,-4.4598,-4.4598,-4.457,-4.4207,-4.3781,-4.3075,-4.2284,-4.136,-4.0646,-4.0141,-3.9803,-3.9589,-3.9496,-3.9424,-3.9388,-3.9388,-3.9388,-3.9388,-3.9388,-3.9388,-3.9388,-3.9388,-3.9388,-3.9388,-3.9388,-3.9412,-3.9488,-3.9475,-3.9283,-3.9099,-4.6302,-4.6302,-4.6302,-4.5792,-4.4953,-4.4211,-4.3918,-4.392,-4.3899,-4.4484,-4.5078,-4.5974,-4.6147,-4.594,-4.5905,-4.5865,-4.5776,-4.5858,-4.5802,-4.5534,-4.6473,-4.6595,-4.6755,-4.7312,-4.7665,-4.7038,-4.7343,-4.7734,-4.8124,-4.864,-4.8678,-4.8525,-4.948,-4.9673,-4.9309,-4.9676,-4.9813,-4.9129,-4.9174,-4.8982,-4.8458,-4.8306,-4.8324,-4.8434,-4.9077,-4.9867,-5.0637,-5.1463,-5.2307,-5.3112,-5.3185,-5.3185,-5.3185,-5.3185,-5.3185,-5.3185,-5.3185,-5.3143,-5.302,-5.2872,-5.2721,-5.259,-5.2531,-5.2521,-5.2257,-5.1508,-5.0885,-5.0369,-4.9775,-4.8673,-4.7902,-4.797,-4.7902,-4.7581,-4.6515,-4.6126,-4.6312,-4.5974,-4.528,-4.484,-4.4784,-4.4733,-4.4666,-4.4598,-4.4598,-4.4598,-4.4598,-4.444,-4.4076,-4.3545,-4.28,-4.1981,-4.1057,-4.0335,-3.9874,-3.9711,-3.946,-3.9424,-3.9388,-3.9388,-3.9388,-3.9388,-3.9388,-3.9388,-3.9388,-3.9388,-3.9388,-3.9388,-3.9388,-3.9388,-3.9382,-3.9384,-3.9193,-3.8907,-3.8767,-4.6302,-4.6302,-4.6302,-4.5792,-4.5051,-4.4836,-4.4758,-4.4777,-4.4758,-4.5262,-4.598,-4.6218,-4.6147,-4.5945,-4.5905,-4.5816,-4.58,-4.6047,-4.6118,-4.5946,-4.6916,-4.7423,-4.7268,-4.8303,-4.8771,-4.8556,-4.8381,-4.8378,-4.8785,-4.9022,-4.9366,-4.9805,-5.0111,-5.0052,-5.0021,-5.0178,-4.9942,-4.9252,-4.924,-4.8949,-4.8458,-4.8324,-4.8398,-4.8489,-4.9297,-5.0086,-5.0839,-5.161,-5.238,-5.3075,-5.3185,-5.3185,-5.3185,-5.3185,-5.3185,-5.3185,-5.3185,-5.3143,-5.2999,-5.2872,-5.2761,-5.2649,-5.2531,-5.248,-5.2209,-5.1404,-5.0611,-5.0164,-4.9457,-4.8409,-4.7124,-4.7394,-4.7462,-4.6972,-4.6278,-4.5737,-4.5754,-4.5348,-4.4886,-4.4632,-4.4598,-4.4598,-4.4598,-4.4598,-4.4598,-4.4598,-4.4598,-4.4265,-4.3781,-4.3152,-4.2395,-4.1542,-4.0681,-4.0071,-3.9532,-3.9496,-3.9424,-3.9424,-3.9388,-3.9388,-3.9388,-3.9388,-3.9388,-3.9388,-3.9388,-3.9388,-3.9388,-3.9388,-3.9388,-3.9388,-3.9352,-3.9265,-3.9031,-3.8782,-3.8598,-4.6302,-4.6302,-4.6302,-4.6066,-4.5636,-4.5168,-4.5285,-4.5578,-4.5226,-4.548,-4.6085,-4.6278,-4.6147,-4.5949,-4.5905,-4.5783,-4.5825,-4.597,-4.6174,-4.6407,-4.7396,-4.8154,-4.7999,-4.9303,-4.9682,-4.9677,-4.9398,-4.9269,-4.9671,-4.9729,-4.992,-5.0149,-5.0302,-5.0302,-5.0302,-5.0259,-4.9929,-4.9453,-4.9252,-4.8965,-4.8364,-4.8324,-4.8489,-4.9095,-4.9774,-5.06,-5.1389,-5.2197,-5.2766,-5.3133,-5.3185,-5.3185,-5.3185,-5.3185,-5.3185,-5.3185,-5.3185,-5.3103,-5.2937,-5.2828,-5.2735,-5.2577,-5.2503,-5.248,-5.2083,-5.1162,-5.001,-4.9183,-4.8506,-4.7614,-4.6887,-4.6853,-4.6566,-4.6227,-4.5602,-4.5415,-4.5415,-4.4959,-4.475,-4.4598,-4.4598,-4.4598,-4.4598,-4.4598,-4.4598,-4.4598,-4.457,-4.4105,-4.3512,-4.28,-4.2046,-4.1227,-4.0405,-3.991,-3.9496,-3.9424,-3.9388,-3.9388,-3.9388,-3.9388,-3.9388,-3.9388,-3.9388,-3.9388,-3.9388,-3.9388,-3.9388,-3.9388,-3.9388,-3.9388,-3.9265,-3.9141,-3.8907,-3.8671,-3.8501,-4.6302,-4.6302,-4.6302,-4.6397,-4.6397,-4.5617,-4.5773,-4.628,-4.5656,-4.5675,-4.6223,-4.6277,-4.6147,-4.5935,-4.5865,-4.5812,-4.5845,-4.6067,-4.6606,-4.7213,-4.8222,-4.8932,-4.9305,-4.9993,-5.0413,-5.0254,-5.024,-5.0359,-5.0199,-5.0187,-5.0264,-5.0302,-5.0302,-5.0302,-5.0302,-5.0302,-4.9889,-4.9512,-4.9268,-4.8949,-4.8458,-4.8508,-4.8857,-4.9665,-5.0508,-5.1353,-5.1903,-5.2674,-5.3038,-5.3167,-5.3185,-5.3185,-5.3185,-5.3185,-5.3185,-5.3185,-5.3185,-5.306,-5.289,-5.2806,-5.2712,-5.2508,-5.248,-5.2498,-5.2029,-5.0827,-4.9102,-4.777,-4.7242,-4.665,-4.621,-4.5957,-4.5703,-4.5382,-4.5026,-4.4784,-4.5043,-4.4942,-4.4699,-4.4598,-4.4598,-4.4598,-4.4598,-4.4598,-4.4598,-4.4395,-4.4367,-4.3752,-4.3136,-4.2458,-4.1706,-4.0925,-4.0216,-3.9753,-3.946,-3.9424,-3.9388,-3.9388,-3.9388,-3.9388,-3.9388,-3.9388,-3.9388,-3.9388,-3.9388,-3.9388,-3.9388,-3.9388,-3.9337,-3.9301,-3.9177,-3.898,-3.876,-3.8612,-3.8464,-4.6302,-4.63,-4.63,-4.6749,-4.7256,-4.6534,-4.6671,-4.7274,-4.6515,-4.6184,-4.6397,-4.6275,-4.6141,-4.5914,-4.5781,-4.6089,-4.6672,-4.7278,-4.7654,-4.8125,-4.9279,-4.9702,-4.9596,-5.021,-5.0464,-5.0468,-5.0424,-5.0359,-5.0314,-5.0302,-5.0302,-5.0302,-5.0302,-5.0302,-5.0302,-5.0302,-4.9955,-4.9405,-4.9268,-4.8949,-4.8531,-4.8985,-4.9408,-4.9996,-5.093,-5.1867,-5.2179,-5.2839,-5.3167,-5.3185,-5.3185,-5.3185,-5.3185,-5.3185,-5.3185,-5.3185,-5.3164,-5.3082,-5.285,-5.2783,-5.2712,-5.2549,-5.2498,-5.2498,-5.1658,-5.0474,-4.8553,-4.6197,-4.6329,-4.6273,-4.5551,-4.5449,-4.5263,-4.5026,-4.475,-4.4632,-4.475,-4.4874,-4.4632,-4.4598,-4.4598,-4.4598,-4.4598,-4.4598,-4.457,-4.4367,-4.4047,-4.3393,-4.266,-4.1917,-4.1278,-4.0478,-4.0056,-3.9589,-3.946,-3.9424,-3.9388,-3.9388,-3.9388,-3.9388,-3.9388,-3.9388,-3.9388,-3.9388,-3.9388,-3.9388,-3.9388,-3.9388,-3.9301,-3.9213,-3.9104,-3.8848,-3.859,-3.8478,-3.8404,-4.7042,-4.7022,-4.7022,-4.753,-4.8193,-4.7861,-4.792,-4.8057,-4.7412,-4.7042,-4.6899,-4.6387,-4.6064,-4.5932,-4.613,-4.6528,-4.7028,-4.7778,-4.8394,-4.8779,-4.9644,-5.0019,-5.0162,-5.0371,-5.0511,-5.0427,-5.0371,-5.0325,-5.0302,-5.0302,-5.0302,-5.0302,-5.0302,-5.0302,-5.0302,-5.0302,-4.9897,-4.9394,-4.8949,-4.8586,-4.8603,-4.9114,-4.9831,-5.027,-5.1426,-5.2142,-5.2656,-5.2949,-5.3185,-5.3185,-5.3185,-5.3185,-5.3185,-5.3185,-5.3185,-5.3185,-5.3124,-5.2999,-5.2828,-5.2806,-5.269,-5.2549,-5.2361,-5.1813,-5.0615,-4.9513,-4.8153,-4.5953,-4.5551,-4.5382,-4.5213,-4.5111,-4.4891,-4.4716,-4.4649,-4.4598,-4.4598,-4.4598,-4.4598,-4.4598,-4.4598,-4.4598,-4.4598,-4.4598,-4.457,-4.4412,-4.3914,-4.3152,-4.2189,-4.1129,-4.0531,-3.995,-3.9646,-3.946,-3.9424,-3.9388,-3.9388,-3.9388,-3.9388,-3.9388,-3.9388,-3.9388,-3.9388,-3.9388,-3.9388,-3.9388,-3.9388,-3.9337,-3.9286,-3.9141,-3.8995,-3.8738,-3.8516,-3.8366,-3.8277,-4.8016,-4.8211,-4.7977,-4.8369,-4.9072,-4.8896,-4.8935,-4.9013,-4.7996,-4.7586,-4.7318,-4.6563,-4.6051,-4.6181,-4.6662,-4.7096,-4.7644,-4.8163,-4.8913,-4.9452,-4.9779,-5.0096,-5.0372,-5.0551,-5.0468,-5.0382,-5.0337,-5.0314,-5.0302,-5.0302,-5.0302,-5.0302,-5.0302,-5.0302,-5.0302,-5.0248,-4.9968,-4.9314,-4.8676,-4.8511,-4.8783,-4.9499,-5.0306,-5.1077,-5.1867,-5.2601,-5.3075,-5.3185,-5.3185,-5.3185,-5.3185,-5.3185,-5.3185,-5.3185,-5.3185,-5.3164,-5.3103,-5.2955,-5.2828,-5.2739,-5.2667,-5.2549,-5.2297,-5.1586,-4.947,-4.8617,-4.7891,-4.6191,-4.519,-4.5297,-4.5517,-4.5213,-4.4936,-4.4835,-4.4739,-4.4666,-4.4598,-4.4598,-4.4598,-4.4598,-4.4598,-4.4598,-4.4598,-4.4598,-4.4542,-4.444,-4.3827,-4.2892,-4.1739,-4.0497,-4.0076,-3.9625,-3.9517,-3.9388,-3.9388,-3.9388,-3.9388,-3.9388,-3.9388,-3.9388,-3.9388,-3.9388,-3.9388,-3.9388,-3.9388,-3.9388,-3.9388,-3.9337,-3.925,-3.9031,-3.8833,-3.8649,-3.8427,-3.8277,-3.8202,-4.9189,-4.987,-4.9072,-4.9245,-4.9948,-4.913,-4.9286,-4.9733,-4.8289,-4.7604,-4.7289,-4.6571,-4.6393,-4.6803,-4.7155,-4.7894,-4.9125,-4.926,-4.9779,-5.0279,-5.0606,-5.0519,-5.0593,-5.0521,-5.0468,-5.0412,-5.0356,-5.0314,-5.0302,-5.0314,-5.0302,-5.0302,-5.0302,-5.0302,-5.0248,-5.0156,-4.9984,-4.9402,-4.8844,-4.8913,-4.9517,-5.0288,-5.1059,-5.1811,-5.2601,-5.3148,-5.3185,-5.3185,-5.3185,-5.3185,-5.3185,-5.3185,-5.3185,-5.3185,-5.3185,-5.3143,-5.302,-5.2857,-5.2656,-5.2621,-5.2581,-5.2526,-5.2224,-5.1539,-4.9563,-4.8766,-4.7889,-4.6742,-4.5495,-4.5466,-4.5754,-4.5647,-4.5004,-4.5106,-4.4959,-4.4666,-4.4598,-4.4598,-4.4598,-4.4598,-4.4598,-4.4598,-4.4598,-4.4598,-4.4598,-4.4514,-4.329,-4.2332,-4.1078,-3.9985,-3.9788,-3.9517,-3.946,-3.9388,-3.9388,-3.9388,-3.9388,-3.9388,-3.9388,-3.9388,-3.9388,-3.9388,-3.9388,-3.9388,-3.9388,-3.9388,-3.9352,-3.9228,-3.9068,-3.887,-3.8686,-3.8538,-3.8389,-3.824,-3.8202,-4.9811,-5.0104,-5.0301,-5.0594,-5.0867,-5.0555,-5.0282,-4.9928,-4.8835,-4.7591,-4.6618,-4.6644,-4.6784,-4.7155,-4.8121,-4.874,-4.9452,-5.001,-5.0356,-5.0567,-5.0683,-5.0614,-5.0563,-5.0511,-5.0468,-5.0412,-5.0379,-5.0367,-5.0359,-5.0337,-5.0325,-5.0314,-5.034,-5.0302,-5.0236,-5.0037,-4.9877,-4.9934,-4.9546,-4.9519,-5.0325,-5.1077,-5.1665,-5.1995,-5.2784,-5.3148,-5.3185,-5.3185,-5.3185,-5.3185,-5.3185,-5.3185,-5.3185,-5.3185,-5.3164,-5.3063,-5.2919,-5.259,-5.2302,-5.2377,-5.2581,-5.2399,-5.1999,-5.1173,-4.9749,-4.8898,-4.7939,-4.6885,-4.594,-4.5889,-4.6329,-4.5568,-4.4818,-4.5229,-4.5179,-4.475,-4.4598,-4.4598,-4.4598,-4.4598,-4.4598,-4.4598,-4.4598,-4.4598,-4.4598,-4.4468,-4.3061,-4.1723,-4.0547,-3.9711,-3.9532,-3.946,-3.9424,-3.9388,-3.9388,-3.9388,-3.9388,-3.9388,-3.9388,-3.9388,-3.9388,-3.9388,-3.9388,-3.9388,-3.9388,-3.9352,-3.9265,-3.9068,-3.8907,-3.876,-3.8612,-3.8478,-3.8329,-3.8202,-3.8202,-5.0475,-5.0573,-5.1141,-5.1394,-5.1394,-5.1394,-5.0887,-5.0046,-4.9169,-4.7902,-4.6366,-4.6917,-4.7393,-4.7918,-4.8721,-4.9567,-4.9894,-5.0366,-5.0587,-5.0683,-5.0663,-5.0594,-5.0542,-5.0511,-5.0478,-5.0435,-5.0401,-5.0382,-5.0382,-5.039,-5.0337,-5.0378,-5.055,-5.0608,-5.0201,-4.9963,-5.0056,-5.0551,-5.0361,-5.0363,-5.1151,-5.1628,-5.2197,-5.2362,-5.2968,-5.3148,-5.3185,-5.3185,-5.3185,-5.3185,-5.3185,-5.3185,-5.3185,-5.3185,-5.3124,-5.2926,-5.2634,-5.2211,-5.209,-5.1928,-5.2209,-5.1978,-5.1445,-5.0735,-4.9922,-4.8916,-4.7807,-4.7716,-4.6752,-4.6312,-4.6887,-4.5957,-4.5229,-4.5534,-4.4993,-4.4598,-4.4598,-4.4598,-4.4598,-4.4598,-4.4598,-4.4598,-4.4525,-4.444,-4.3943,-4.3663,-4.2426,-4.1211,-4.0235,-3.9625,-3.946,-3.9424,-3.9388,-3.9388,-3.9388,-3.9388,-3.9388,-3.9388,-3.9388,-3.9388,-3.9388,-3.9388,-3.9388,-3.9388,-3.9352,-3.9301,-3.9156,-3.8995,-3.8833,-3.8723,-3.8538,-3.8366,-3.8329,-3.8202,-3.8202,-5.1336,-5.1375,-5.1375,-5.1394,-5.1394,-5.1394,-5.0906,-5.0046,-4.9163,-4.8146,-4.7132,-4.7184,-4.7967,-4.897,-4.9433,-4.9913,-5.0375,-5.0616,-5.0683,-5.0683,-5.0653,-5.0613,-5.0582,-5.0532,-5.0511,-5.0489,-5.0457,-5.0424,-5.0412,-5.057,-5.0478,-5.0684,-5.1123,-5.1276,-5.0453,-5.0449,-5.0935,-5.1553,-5.1064,-5.1305,-5.183,-5.2105,-5.2509,-5.2876,-5.3075,-5.3185,-5.3185,-5.3185,-5.3185,-5.3185,-5.3185,-5.3185,-5.3185,-5.3185,-5.3124,-5.298,-5.2251,-5.2087,-5.2395,-5.1715,-5.1379,-5.1452,-5.1099,-5.036,-5.0101,-4.9057,-4.795,-4.7958,-4.7462,-4.7192,-4.7056,-4.6583,-4.5957,-4.5466,-4.4942,-4.4598,-4.4598,-4.4598,-4.4598,-4.4598,-4.4598,-4.457,-4.4497,-4.4236,-4.3469,-4.2707,-4.1657,-4.0687,-3.9879,-3.9553,-3.9424,-3.9388,-3.9388,-3.9388,-3.9388,-3.9388,-3.9388,-3.9388,-3.9388,-3.9388,-3.9388,-3.9388,-3.9388,-3.9388,-3.9352,-3.9316,-3.9104,-3.8907,-3.8723,-3.8501,-3.8389,-3.824,-3.8202,-3.8202,-3.8202,-5.1394,-5.1394,-5.1394,-5.1394,-5.1394,-5.1394,-5.0906,-5.0042,-4.9129,-4.8156,-4.7592,-4.8152,-4.885,-4.9479,-4.999,-5.0404,-5.0606,-5.0683,-5.0683,-5.0683,-5.0653,-5.0633,-5.0603,-5.0582,-5.0572,-5.0542,-5.05,-5.0487,-5.0487,-5.0841,-5.1128,-5.1384,-5.1964,-5.2193,-5.1923,-5.1735,-5.1783,-5.2306,-5.2047,-5.1958,-5.2674,-5.2784,-5.2873,-5.3185,-5.3185,-5.3185,-5.3185,-5.3185,-5.3185,-5.3185,-5.3185,-5.3185,-5.3185,-5.3185,-5.3082,-5.2934,-5.2382,-5.2134,-5.1524,-5.0622,-5.0408,-5.0844,-5.0576,-4.9806,-4.9714,-4.8514,-4.8117,-4.815,-4.7851,-4.7652,-4.7597,-4.6481,-4.5771,-4.5551,-4.5111,-4.4733,-4.4598,-4.4598,-4.4598,-4.4598,-4.4598,-4.4497,-4.4412,-4.4035,-4.3336,-4.2552,-4.1592,-4.0619,-3.9737,-3.9553,-3.9388,-3.9388,-3.9388,-3.9388,-3.9388,-3.9388,-3.9388,-3.9388,-3.9388,-3.9388,-3.9388,-3.9388,-3.9388,-3.9388,-3.9352,-3.9316,-3.8995,-3.8723,-3.8464,-3.8277,-3.824,-3.8202,-3.8202,-3.8202,-3.8202,-5.1394,-5.1394,-5.1394,-5.1394,-5.1394,-5.1394,-5.0879,-4.9976,-4.9068,-4.8365,-4.8335,-4.9154,-4.9686,-4.9961,-5.0375,-5.0683,-5.0683,-5.0663,-5.0702,-5.0673,-5.0643,-5.0633,-5.0623,-5.0603,-5.0593,-5.0582,-5.0589,-5.0585,-5.0993,-5.1427,-5.1962,-5.2518,-5.2977,-5.3416,-5.3288,-5.3013,-5.2627,-5.3023,-5.2899,-5.2619,-5.3023,-5.313,-5.3148,-5.3185,-5.3185,-5.3185,-5.3185,-5.3185,-5.3185,-5.3185,-5.3185,-5.3185,-5.3185,-5.3124,-5.3039,-5.2868,-5.2422,-5.1922,-5.0862,-4.9923,-5.0168,-5.134,-4.9827,-4.9062,-4.8949,-4.8017,-4.8001,-4.8026,-4.8003,-4.772,-4.7394,-4.621,-4.572,-4.5483,-4.5043,-4.4649,-4.4598,-4.4598,-4.4598,-4.4598,-4.457,-4.444,-4.4253,-4.3743,-4.3202,-4.2411,-4.1592,-4.0619,-3.9702,-3.9517,-3.9388,-3.9388,-3.9388,-3.9388,-3.9388,-3.9388,-3.9388,-3.9388,-3.9388,-3.9388,-3.9388,-3.9388,-3.9388,-3.9388,-3.9265,-3.9119,-3.876,-3.8486,-3.8315,-3.824,-3.8202,-3.8202,-3.8202,-3.8202,-3.8202,-5.1394,-5.1394,-5.1394,-5.1394,-5.1394,-5.1394,-5.0823,-4.9859,-4.9027,-4.9,-4.9552,-4.9444,-4.9913,-5.0539,-5.0683,-5.0683,-5.0683,-5.0643,-5.0673,-5.0653,-5.0604,-5.0633,-5.0643,-5.0623,-5.0603,-5.0602,-5.0713,-5.107,-5.1618,-5.2107,-5.2855,-5.3741,-5.4046,-5.439,-5.4305,-5.3876,-5.3506,-5.3695,-5.3379,-5.3104,-5.3185,-5.3185,-5.3185,-5.3185,-5.3185,-5.3185,-5.3185,-5.3185,-5.3185,-5.3185,-5.3185,-5.3185,-5.3164,-5.3082,-5.2955,-5.2613,-5.2048,-5.0992,-5.0506,-4.9692,-4.9398,-4.9961,-4.8727,-4.8346,-4.823,-4.7826,-4.7687,-4.8098,-4.8291,-4.7581,-4.6887,-4.6227,-4.5585,-4.5179,-4.4767,-4.4598,-4.4598,-4.4598,-4.4598,-4.457,-4.4542,-4.4412,-4.4184,-4.373,-4.3188,-4.2205,-4.1411,-4.0687,-3.9879,-3.9481,-3.9388,-3.9388,-3.9388,-3.9388,-3.9388,-3.9388,-3.9388,-3.9388,-3.9388,-3.9388,-3.9388,-3.9388,-3.9352,-3.9301,-3.9156,-3.8958,-3.8649,-3.8427,-3.824,-3.8202,-3.8202,-3.8202,-3.8202,-3.8202,-3.8202,-5.1394,-5.1394,-5.1394,-5.1394,-5.1394,-5.1394,-5.0879,-5.0093,-5.0126,-5.0157,-4.9763,-5.0175,-5.0423,-5.0683,-5.0683,-5.0683,-5.0683,-5.0692,-5.0673,-5.0663,-5.0643,-5.0682,-5.0673,-5.0633,-5.0603,-5.0792,-5.1064,-5.1469,-5.1989,-5.26,-5.3817,-5.4868,-5.4829,-5.5004,-5.4709,-5.4248,-5.4178,-5.3995,-5.3522,-5.3293,-5.3185,-5.3185,-5.3185,-5.3185,-5.3185,-5.3185,-5.3185,-5.3185,-5.3185,-5.3185,-5.3185,-5.3185,-5.3185,-5.3082,-5.2893,-5.2422,-5.1006,-4.9528,-4.9866,-4.8214,-4.7492,-4.8415,-4.7648,-4.7957,-4.8009,-4.7875,-4.7458,-4.8037,-4.8308,-4.7648,-4.6921,-4.6227,-4.5517,-4.4953,-4.4632,-4.4598,-4.457,-4.4553,-4.4525,-4.4485,-4.444,-4.4344,-4.4114,-4.391,-4.3295,-4.2158,-4.1243,-4.0581,-4.0021,-3.9589,-3.9388,-3.9388,-3.9388,-3.9388,-3.9388,-3.9388,-3.9388,-3.9388,-3.9388,-3.9388,-3.9388,-3.9388,-3.9352,-3.9192,-3.8958,-3.8775,-3.8553,-3.8366,-3.8202,-3.8202,-3.8202,-3.8202,-3.8202,-3.8202,-3.8202,-5.1394,-5.1453,-5.1785,-5.2097,-5.2351,-5.2058,-5.1542,-5.1115,-5.1026,-5.0649,-5.0232,-5.0526,-5.0683,-5.0683,-5.0683,-5.0683,-5.0683,-5.0653,-5.0653,-5.0683,-5.0692,-5.0653,-5.0633,-5.0671,-5.0821,-5.1086,-5.1529,-5.2028,-5.2731,-5.3804,-5.5002,-5.5256,-5.5286,-5.5052,-5.4712,-5.427,-5.4032,-5.3833,-5.3542,-5.3272,-5.3185,-5.3185,-5.3185,-5.3185,-5.3185,-5.3185,-5.3185,-5.3185,-5.3185,-5.3185,-5.3185,-5.3164,-5.3103,-5.2937,-5.2492,-5.1878,-5.0452,-4.9442,-4.9192,-4.7634,-4.717,-4.7232,-4.7219,-4.769,-4.7997,-4.8048,-4.8081,-4.8325,-4.8088,-4.7716,-4.6972,-4.6227,-4.5478,-4.4716,-4.4649,-4.4598,-4.4553,-4.4497,-4.444,-4.4384,-4.427,-4.4172,-4.4027,-4.3881,-4.3342,-4.2126,-4.1243,-4.0668,-4.0056,-3.9517,-3.9388,-3.9388,-3.9388,-3.9388,-3.9388,-3.9388,-3.9388,-3.9388,-3.9388,-3.9388,-3.9388,-3.9265,-3.9156,-3.8922,-3.8664,-3.8516,-3.8441,-3.8329,-3.8202,-3.8202,-3.8202,-3.8202,-3.8202,-3.8202,-3.8202,-5.1394,-5.1472,-5.2331,-5.3171,-5.3891,-5.3069,-5.2567,-5.2438,-5.1445,-5.087,-5.0709,-5.0683,-5.0683,-5.0683,-5.0683,-5.0683,-5.0683,-5.0653,-5.0653,-5.0702,-5.0653,-5.0633,-5.0632,-5.0708,-5.1116,-5.1518,-5.2142,-5.293,-5.404,-5.483,-5.5199,-5.5358,-5.5127,-5.4884,-5.4604,-5.4209,-5.3907,-5.3602,-5.34,-5.3185,-5.3185,-5.3185,-5.3185,-5.3185,-5.3185,-5.3185,-5.3185,-5.3185,-5.3185,-5.3185,-5.3185,-5.3143,-5.2955,-5.2747,-5.2209,-5.1225,-5.0033,-4.9107,-4.8391,-4.7123,-4.7109,-4.72,-4.7293,-4.7844,-4.8212,-4.8128,-4.8122,-4.8376,-4.824,-4.7614,-4.6853,-4.6058,-4.5263,-4.4801,-4.4615,-4.4598,-4.457,-4.4468,-4.4338,-4.427,-4.4126,-4.4027,-4.391,-4.3704,-4.2974,-4.1884,-4.1176,-4.065,-4.0091,-3.9496,-3.9388,-3.9388,-3.9388,-3.9388,-3.9388,-3.9388,-3.9388,-3.9388,-3.9388,-3.9388,-3.9388,-3.9192,-3.8943,-3.8738,-3.8553,-3.8404,-3.8277,-3.824,-3.8202,-3.8202,-3.8202,-3.8202,-3.8202,-3.8202,-3.8202,-5.1394,-5.1472,-5.2331,-5.3561,-5.4669,-5.3247,-5.2866,-5.3172,-5.1599,-5.091,-5.0833,-5.0749,-5.0683,-5.0683,-5.0683,-5.0683,-5.0683,-5.0673,-5.0692,-5.0741,-5.0721,-5.0786,-5.0794,-5.1242,-5.159,-5.207,-5.2846,-5.3937,-5.4772,-5.525,-5.539,-5.539,-5.5159,-5.4903,-5.446,-5.4088,-5.3795,-5.342,-5.3274,-5.3185,-5.3185,-5.3185,-5.3185,-5.3185,-5.3185,-5.3185,-5.3185,-5.3185,-5.3185,-5.3185,-5.3185,-5.3082,-5.285,-5.2676,-5.2229,-5.137,-4.9766,-4.8644,-4.7652,-4.6839,-4.6687,-4.7124,-4.7462,-4.8156,-4.8426,-4.8122,-4.8088,-4.8376,-4.8189,-4.7445,-4.6718,-4.5906,-4.5162,-4.484,-4.4598,-4.4598,-4.457,-4.4412,-4.4224,-4.408,-4.3981,-4.3835,-4.3704,-4.3204,-4.2443,-4.1722,-4.1008,-4.0409,-3.9915,-3.9388,-3.9388,-3.9388,-3.9388,-3.9388,-3.9388,-3.9388,-3.9388,-3.9388,-3.9388,-3.9388,-3.9388,-3.9083,-3.8775,-3.8627,-3.8441,-3.8329,-3.824,-3.824,-3.8202,-3.8202,-3.8202,-3.8202,-3.8202,-3.8202,-3.8202,-5.1394,-5.155,-5.2761,-5.4231,-5.524,-5.3818,-5.3253,-5.3151,-5.1648,-5.0866,-5.081,-5.0721,-5.0683,-5.0683,-5.0683,-5.0683,-5.0683,-5.0683,-5.0663,-5.0692,-5.1066,-5.1158,-5.1423,-5.1877,-5.251,-5.3025,-5.3995,-5.4944,-5.5333,-5.539,-5.539,-5.5332,-5.5159,-5.4754,-5.4245,-5.4017,-5.3679,-5.3227,-5.3206,-5.3185,-5.3185,-5.3185,-5.3185,-5.3185,-5.3185,-5.3185,-5.3185,-5.3185,-5.3185,-5.3143,-5.3082,-5.2934,-5.2739,-5.2604,-5.1811,-5.061,-4.9212,-4.7936,-4.6995,-4.6538,-4.6346,-4.6972,-4.7868,-4.868,-4.824,-4.7986,-4.8274,-4.846,-4.7699,-4.6955,-4.6515,-4.5788,-4.5139,-4.4682,-4.4587,-4.4559,-4.4457,-4.431,-4.408,-4.3818,-4.3595,-4.3232,-4.2988,-4.2522,-4.1819,-4.1227,-4.0581,-4.0216,-3.9717,-3.9388,-3.9388,-3.9388,-3.9388,-3.9388,-3.9388,-3.9388,-3.9388,-3.9388,-3.9388,-3.9265,-3.9156,-3.8848,-3.8627,-3.8478,-3.8329,-3.8277,-3.8202,-3.8202,-3.8202,-3.8202,-3.8202,-3.8202,-3.8202,-3.8202,-3.8202,-5.155,-5.196,-5.3474,-5.4947,-5.5922,-5.445,-5.3596,-5.3139,-5.1625,-5.081,-5.0721,-5.0702,-5.0683,-5.0683,-5.0683,-5.0683,-5.0779,-5.0991,-5.0903,-5.1104,-5.1689,-5.1836,-5.2173,-5.269,-5.3401,-5.409,-5.4906,-5.5193,-5.5371,-5.539,-5.5345,-5.5233,-5.4829,-5.4366,-5.4106,-5.3719,-5.3295,-5.3227,-5.3185,-5.3185,-5.3185,-5.3185,-5.3185,-5.3185,-5.3185,-5.3185,-5.3185,-5.3185,-5.3185,-5.306,-5.2934,-5.2783,-5.2672,-5.2518,-5.1419,-5.0278,-4.9374,-4.7902,-4.6704,-4.6742,-4.6827,-4.731,-4.8342,-4.8528,-4.8037,-4.8037,-4.8325,-4.7936,-4.7175,-4.6667,-4.6256,-4.5681,-4.5004,-4.4587,-4.4559,-4.4446,-4.4298,-4.4167,-4.3906,-4.3611,-4.3218,-4.2818,-4.2427,-4.1917,-4.1227,-4.0684,-4.025,-3.993,-3.9625,-3.9496,-3.9388,-3.9388,-3.9388,-3.9388,-3.9388,-3.9388,-3.9388,-3.9388,-3.9352,-3.9141,-3.8922,-3.8701,-3.8516,-3.8315,-3.8202,-3.8202,-3.8202,-3.8202,-3.8202,-3.8202,-3.8202,-3.8202,-3.8202,-3.8202,-3.8202,-5.2234,-5.3596,-5.4525,-5.5424,-5.592,-5.4278,-5.3433,-5.3111,-5.1517,-5.0721,-5.0702,-5.0683,-5.0683,-5.0683,-5.0683,-5.076,-5.0971,-5.1298,-5.1576,-5.1746,-5.2464,-5.2655,-5.2943,-5.3527,-5.4364,-5.49,-5.5256,-5.5333,-5.539,-5.539,-5.539,-5.5332,-5.4947,-5.4544,-5.4229,-5.3814,-5.34,-5.3293,-5.3185,-5.3185,-5.3185,-5.3185,-5.3185,-5.3185,-5.3185,-5.3185,-5.3185,-5.3185,-5.3124,-5.2999,-5.2787,-5.2676,-5.2604,-5.2449,-5.1551,-5.0416,-4.9503,-4.8437,-4.7557,-4.7233,-4.7293,-4.7378,-4.8088,-4.8054,-4.772,-4.7669,-4.7699,-4.731,-4.6718,-4.643,-4.5974,-4.5258,-4.4632,-4.4514,-4.4468,-4.4258,-4.4085,-4.3981,-4.3835,-4.3432,-4.3005,-4.2694,-4.2412,-4.1689,-4.0752,-4.0266,-3.993,-3.9589,-3.9517,-3.946,-3.9388,-3.9388,-3.9388,-3.9388,-3.9388,-3.9388,-3.9388,-3.9388,-3.9316,-3.9068,-3.8848,-3.8627,-3.8404,-3.824,-3.8202,-3.8202,-3.8202,-3.8202,-3.8202,-3.8202,-3.8202,-3.8202,-3.8202,-3.8202,-3.8202]},{"header":{"parameterUnit":"m.s-1","parameterCategory":1,"la1":31.0,"la2":29.5877,"lo1":-88.7671,"lo2":-86.6584,"dx":0.0162,"dy":0.0185,"nx":115,"ny":88,"refTime":"2023-01-06T18:00:00:Z","depth":0,"parameterNumber":3,"parameterNumberName":"V-component_of_WINDS"},"data":[0.0,0.0,0.0,0.0,0.0,0.0,0.0,0.0,0.0,0.0,0.0,0.0,0.0,0.0,0.0,0.0,0.0,0.0,0.0,0.0,0.0,0.0,0.0,0.0,0.0,0.0,0.0,0.0,0.0,0.0,0.0,0.0,0.0,0.0,0.0,0.0,0.0,0.0,0.0,0.0,0.0,0.0,0.0,0.0,0.0,0.0,0.0,0.0,0.0,0.0,0.0,0.0,0.0,0.0,0.0,0.0,0.0,0.0,0.0,0.0,0.0,0.0,0.0,0.0,0.0,0.0,0.0,0.0,0.0,0.0,0.0,0.0,0.0,0.0,0.0,0.0,0.0,0.0,0.0,0.0,0.0,0.0,0.0,0.0,0.0,0.0,0.0,0.0,0.0,0.0,0.0,0.0,0.0,0.0,0.0,0.0,0.0,0.0,0.0,0.0,0.0,0.0,0.0,0.0,0.0,0.0,0.0,0.0,0.0,0.0,0.0,0.0,0.0,0.0,0.0,0.0,0.0,0.0,0.0,0.0,0.0,0.0,0.0,0.0,0.0,0.0,0.0,0.0,0.0,0.0,0.0,0.0,0.0,0.0,0.0,0.0,0.0,0.0,0.0,0.0,0.0,0.0,0.0,0.0,0.0,0.0,0.0,0.0,0.0,0.0,0.0,0.0,0.0,0.0,0.0,0.0,0.0,0.0,0.0,0.0,0.0,0.0,0.0,0.0,0.0,0.0,0.0,0.0,0.0,0.0,0.0,0.0,0.0,0.0,0.0,0.0,0.0,0.0,0.0,0.0,0.0,0.0,0.0,0.0,0.0,0.0,0.0,0.0,0.0,0.0,0.0,0.0,0.0,0.0,0.0,0.0,0.0,0.0,0.0,0.0,0.0,0.0,0.0,0.0,0.0,0.0,0.0,0.0,0.0,0.0,0.0,0.0,0.0,0.0,0.0,0.0,0.0,0.0,0.0,0.0,0.0,0.0,0.0,0.0,0.0,0.0,0.0,0.0,0.0,0.0,0.0,0.0,0.0,0.0,0.0,0.0,0.0,0.0,0.0,0.0,0.0,0.0,0.0,0.0,0.0,0.0,0.0,0.0,0.0,0.0,0.0,0.0,0.0,0.0,0.0,0.0,0.0,0.0,0.0,0.0,0.0,0.0,0.0,0.0,0.0,0.0,0.0,0.0,0.0,0.0,0.0,0.0,0.0,0.0,0.0,0.0,0.0,0.0,0.0,0.0,0.0,0.0,0.0,0.0,0.0,0.0,0.0,0.0,0.0,0.0,0.0,0.0,0.0,0.0,0.0,0.0,0.0,0.0,0.0,0.0,0.0,0.0,0.0,0.0,0.0,0.0,0.0,0.0,0.0,0.0,0.0,0.0,0.0,0.0,0.0,0.0,0.0,0.0,0.0,0.0,0.0,0.0,0.0,0.0,0.0,0.0,0.0,0.0,0.0,0.0,0.0,0.0,0.0,0.0,0.0,0.0,0.0,0.0,0.0,0.0,0.0,0.0,0.0,0.0,0.0,0.0,0.0,0.0,0.0,0.0,0.0,0.0,0.0,0.0,0.0,0.0,0.0,0.0,0.0,0.0,0.0,0.0,0.0,0.0,0.0,0.0,0.0,0.0,0.0,0.0,0.0,0.0,0.0,0.0,0.0,0.0,0.0,0.0,0.0,0.0,0.0,0.0,0.0,0.0,0.0,0.0,0.0,0.0,0.0,0.0,0.0,0.0,0.0,0.0,0.0,0.0,0.0,0.0,0.0,0.0,0.0,0.0,0.0,0.0,0.0,0.0,0.0,0.0,0.0,0.0,0.0,0.0,0.0,0.0,0.0,0.0,0.0,0.0,0.0,0.0,0.0,0.0,0.0,0.0,0.0,0.0,0.0,0.0,0.0,0.0,0.0,0.0,0.0,0.0,0.0,0.0,0.0,0.0,0.0,0.0,0.0,0.0,0.0,0.0,0.0,0.0,0.0,0.0,0.0,0.0,0.0,0.0,0.0,0.0,0.0,0.0,0.0,0.0,0.0,0.0,0.0,0.0,0.0,0.0,0.0,0.0,0.0,0.0,0.0,0.0,0.0,0.0,0.0,0.0,0.0,0.0,0.0,0.0,0.0,0.0,0.0,0.0,0.0,0.0,0.0,0.0,0.0,0.0,0.0,0.0,0.0,0.0,0.0,0.0,0.0,0.0,0.0,0.0,0.0,0.0,0.0,0.0,0.0,0.0,0.0,0.0,0.0,0.0,0.0,0.0,0.0,0.0,0.0,0.0,0.0,0.0,0.0,0.0,0.0,0.0,0.0,0.0,0.0,0.0,0.0,0.0,0.0,0.0,0.0,0.0,0.0,0.0,0.0,0.0,0.0,0.0,0.0,0.0,0.0,0.0,0.0,0.0,0.0,0.0,0.0,0.0,0.0,0.0,0.0,0.0,0.0,0.0,0.0,0.0,0.0,0.0,0.0,0.0,0.0,0.0,0.0,0.0,0.0,0.0,0.0,0.0,0.0,0.0,0.0,0.0,0.0,0.0,0.0,0.0,0.0,0.0,0.0,0.0,0.0,0.0,0.0,0.0,0.0,0.0,0.0,0.0,0.0,0.0,0.0,0.0,0.0,0.0,0.0,0.0,0.0,0.0,0.0,0.0,0.0,0.0,0.0,0.0,0.0,0.0,0.0,0.0,0.0,0.0,0.0,0.0,0.0,0.0,0.0,0.0,0.0,0.0,0.0,0.0,0.0,0.0,0.0,0.0,0.0,0.0,0.0,0.0,0.0,0.0,0.0,0.0,0.0,0.0,0.0,0.0,0.0,0.0,0.0,0.0,0.0,0.0,0.0,0.0,0.0,0.0,0.0,0.0,0.0,0.0,0.0,0.0,0.0,0.0,0.0,0.0,0.0,0.0,0.0,0.0,0.0,0.0,0.0,0.0,0.0,0.0,0.0,0.0,0.0,0.0,0.0,0.0,0.0,0.0,0.0,0.0,0.0,0.0,0.0,0.0,0.0,0.0,0.0,0.0,0.0,0.0,0.0,0.0,0.0,0.0,0.0,0.0,0.0,0.0,0.0,0.0,0.0,0.0,0.0,0.0,0.0,0.0,0.0,0.0,0.0,0.0,0.0,0.0,0.0,0.0,0.0,0.0,0.0,0.0,0.0,0.0,0.0,0.0,0.0,0.0,0.0,0.0,0.0,0.0,0.0,0.0,0.0,0.0,0.0,0.0,0.0,0.0,0.0,0.0,0.0,0.0,0.0,0.0,0.0,0.0,0.0,0.0,0.0,0.0,0.0,0.0,0.0,0.0,0.0,0.0,0.0,0.0,0.0,0.0,0.0,0.0,0.0,0.0,0.0,0.0,0.0,0.0,0.0,0.0,0.0,0.0,0.0,0.0,0.0,0.0,0.0,0.0,0.0,0.0,0.0,0.0,0.0,0.0,0.0,0.0,0.0,0.0,0.0,0.0,0.0,0.0,0.0,0.0,0.0,0.0,0.0,0.0,0.0,0.0,0.0,0.0,0.0,0.0,0.0,0.0,0.0,0.0,0.0,0.0,0.0,0.0,0.0,0.0,0.0,0.0,0.0,0.0,0.0,0.0,0.0,0.0,0.0,0.0,0.0,0.0,0.0,0.0,0.0,0.0,0.0,0.0,0.0,0.0,0.0,0.0,0.0,0.0,0.0,0.0,0.0,0.0,0.0,0.0,0.0,0.0,0.0,0.0,0.0,0.0,0.0,0.0,0.0,0.0,0.0,0.0,0.0,0.0,0.0,0.0,0.0,0.0,0.0,0.0,0.0,0.0,0.0,0.0,0.0,0.0,0.0,0.0,0.0,0.0,0.0,0.0,0.0,0.0,0.0,0.0,0.0,0.0,0.0,0.0,0.0,0.0,0.0,0.0,0.0,0.0,0.0,0.0,0.0,0.0,0.0,0.0,0.0,0.0,0.0,0.0,0.0,0.0,0.0,0.0,0.0,0.0,0.0,0.0,0.0,0.0,0.0,0.0,0.0,0.0,0.0,0.0,0.0,0.0,0.0,0.0,0.0,0.0,0.0,0.0,0.0,0.0,0.0,0.0,0.0,0.0,0.0,0.0,0.0,0.0,0.0,0.0,0.0,0.0,0.0,0.0,0.0,0.0,0.0,0.0,0.0,0.0,0.0,0.0,0.0,0.0,0.0,0.0,0.0,0.0,0.0,0.0,0.0,0.0,0.0,0.0,0.0,0.0,0.0,0.0,0.0,0.0,0.0,0.0,0.0,0.0,1.018,0.0,0.0,0.0,1.0442,0.0,0.0,0.0,0.0,0.0,0.0,0.0,0.0,0.0,0.0,0.0,0.0,0.0,0.0,0.0,0.0,0.0,0.0,0.0,0.0,0.0,0.0,0.0,0.0,0.0,0.0,0.0,0.0,0.0,0.0,0.0,0.0,0.0,0.0,0.0,0.0,0.0,0.0,0.0,0.0,0.0,0.0,0.0,0.0,0.0,0.0,0.0,0.0,0.0,0.0,0.0,0.0,0.0,0.0,0.0,0.0,0.0,0.0,0.0,0.0,0.0,0.0,0.0,0.0,0.0,0.0,0.0,0.0,0.0,0.0,0.0,0.0,0.0,0.0,0.0,0.0,0.0,0.0,0.0,0.0,0.0,0.0,0.0,0.0,0.0,0.0,0.0,0.0,0.0,0.0,0.0,0.0,0.0,0.0,0.0,0.0,0.0,0.0,0.0,0.0,0.0,0.0,0.0,0.0,0.0,0.0,0.0,0.0,0.0,0.0,1.0236,0.9799,1.0914,1.1227,1.0562,0.0,0.0,0.0,0.0,0.0,0.0,0.0,0.0,0.0,0.0,0.0,0.0,0.0,0.0,0.0,0.0,0.0,0.0,0.0,0.0,0.0,0.0,0.0,0.0,0.0,0.0,0.0,0.0,0.0,0.0,0.0,0.0,0.0,0.0,0.0,0.0,0.0,0.0,0.0,0.0,0.0,0.0,0.0,0.0,0.0,0.0,0.0,0.0,0.0,0.0,0.0,0.0,0.0,0.0,0.0,0.0,0.0,0.0,0.0,0.0,0.0,0.0,0.0,0.0,0.0,0.0,0.0,0.0,0.0,0.0,0.0,0.0,0.0,0.0,0.0,0.0,0.0,0.0,0.0,0.0,0.0,0.0,0.0,0.0,0.0,0.0,0.0,0.0,0.0,0.0,0.0,0.0,0.0,0.0,0.0,0.0,0.0,0.0,0.0,0.0,0.0,0.0,0.0,0.0,0.0,0.0,0.0,0.0,0.0,0.0,0.0,0.0,1.1469,1.1884,1.1368,0.0,0.0,0.0,0.0,0.0,0.0,0.0,0.0,0.0,0.0,0.0,0.0,0.0,0.0,0.0,0.0,0.0,0.0,0.0,0.0,0.0,0.0,0.0,0.0,0.0,0.0,0.0,0.0,0.0,0.0,0.0,0.0,0.0,0.0,0.0,0.0,0.0,0.0,0.0,0.0,0.0,0.0,0.0,0.0,0.0,0.0,0.0,0.0,0.0,0.0,0.0,0.0,0.0,0.0,0.0,0.0,0.0,0.0,0.0,0.0,0.0,0.0,0.0,0.0,0.0,0.0,0.0,0.0,0.0,0.0,0.0,0.0,0.0,0.0,0.0,0.0,0.0,0.0,0.0,0.0,0.0,0.0,0.0,0.0,0.0,0.0,0.0,0.0,0.0,0.0,0.0,0.0,0.0,0.0,0.0,0.0,0.0,0.0,0.0,0.0,0.0,0.0,0.0,0.0,0.0,0.0,0.0,0.0,0.0,0.0,1.0446,1.1666,1.2244,0.0,1.3159,0.0,0.0,0.0,0.0,0.0,0.0,0.0,0.0,0.0,0.0,0.0,0.0,0.0,0.0,0.0,0.0,0.0,0.0,0.0,0.0,0.0,0.0,0.0,0.0,0.0,0.0,0.0,0.0,0.0,0.0,0.0,0.0,0.0,0.0,0.0,0.0,0.0,0.0,0.0,0.0,0.0,0.0,0.0,0.0,0.0,0.0,0.0,0.0,0.0,0.0,0.0,0.0,0.0,0.0,0.0,0.0,0.0,0.0,0.0,0.0,0.0,0.0,0.0,0.0,0.0,0.0,0.0,0.0,0.0,0.0,0.0,0.0,0.0,0.0,0.0,0.0,0.0,0.0,0.0,0.0,0.0,0.0,0.0,0.0,0.0,0.0,0.0,0.0,0.0,0.0,0.0,0.0,0.0,0.0,0.0,0.0,0.0,0.0,0.0,0.0,0.0,0.0,0.0,0.0,0.0,0.0,0.0,0.0,0.0,0.0,1.1133,1.2164,1.2699,1.2899,0.0,0.0,0.0,0.0,0.0,0.0,0.0,0.0,0.0,0.0,0.0,0.0,0.0,0.0,0.0,0.0,0.0,0.0,0.0,0.0,0.0,0.0,0.0,0.0,0.0,0.0,0.0,0.0,0.0,0.0,0.0,0.0,0.0,0.0,0.0,0.0,0.0,0.0,0.0,0.0,0.0,0.0,0.0,0.0,0.0,0.0,0.0,0.0,0.0,0.0,0.0,0.0,0.0,0.0,0.0,0.0,0.0,0.0,0.0,0.0,0.0,0.0,0.0,0.0,0.0,0.0,0.0,0.0,0.0,0.0,0.0,0.0,0.0,0.0,0.0,0.0,0.0,0.0,0.0,0.0,0.0,0.0,0.0,0.0,0.0,0.0,0.0,0.0,0.0,0.0,0.0,0.0,0.0,0.0,0.0,0.0,0.0,0.0,0.0,0.0,0.0,0.0,0.0,0.0,0.0,0.0,0.0,0.0,0.0,0.0,1.1277,1.2267,1.3281,1.3479,1.3277,1.2742,0.0,0.0,0.0,0.0,0.0,0.0,0.0,0.0,0.0,0.0,0.0,0.0,0.0,0.0,0.0,0.0,0.0,0.0,0.0,0.0,0.0,0.0,0.0,0.0,0.0,0.0,0.0,0.0,0.0,0.0,0.0,0.0,0.0,0.0,0.0,0.0,0.0,0.0,0.0,0.0,0.0,0.0,0.0,0.0,0.0,0.0,0.0,0.0,0.0,0.0,0.0,0.0,0.0,0.0,0.0,0.0,0.0,0.0,0.0,0.0,0.0,0.0,0.0,0.0,0.0,0.0,0.0,0.0,0.0,0.0,0.0,0.0,0.0,0.0,0.0,0.0,0.0,0.0,0.0,0.0,0.0,0.0,0.0,0.0,0.0,0.0,0.0,0.0,0.0,0.0,0.0,0.0,0.0,0.0,0.0,0.0,0.0,0.0,0.0,0.0,0.0,0.0,0.0,0.0,0.0,0.0,0.0,0.0,1.3486,1.3285,1.3946,1.559,1.4876,1.4133,0.0,0.0,0.0,0.0,0.0,0.0,0.0,0.0,0.0,0.0,0.0,0.0,0.0,0.0,0.0,0.0,0.0,0.0,0.0,0.0,0.0,0.0,0.0,0.0,0.0,0.0,0.0,0.0,0.0,0.0,0.0,0.0,0.0,0.0,0.0,0.0,0.0,0.0,0.0,0.0,0.0,0.0,0.0,0.0,0.0,0.0,0.0,0.0,0.0,0.0,0.0,0.0,0.0,0.0,0.0,0.0,0.0,0.0,0.0,0.0,0.0,0.0,0.0,0.0,0.0,0.0,0.0,0.0,0.0,0.0,0.0,0.0,0.0,0.0,0.0,0.0,0.0,0.0,0.0,0.0,0.0,0.0,0.0,0.0,0.0,0.0,0.0,0.0,0.0,0.0,0.0,0.0,0.0,0.0,0.0,0.0,0.0,0.0,0.0,0.0,0.0,0.0,0.0,0.0,0.0,0.0,0.0,0.0,0.0,1.058,1.2283,1.3943,1.5405,1.4496,1.397,0.0,0.0,0.0,0.0,0.0,0.0,0.0,0.0,0.0,0.0,0.0,0.0,0.0,0.0,0.0,0.0,0.0,0.0,0.0,0.0,0.0,0.0,0.0,0.0,0.0,0.0,0.0,0.0,0.0,0.0,0.0,0.0,0.0,0.0,0.0,0.0,0.0,0.0,0.0,0.0,0.0,0.0,0.0,0.0,0.0,0.0,0.0,0.0,0.0,0.0,0.0,0.0,0.0,0.0,0.0,0.0,0.0,0.0,0.0,0.0,0.0,0.0,0.0,0.0,0.0,0.0,0.0,0.0,0.0,0.0,0.0,0.0,0.0,0.0,0.0,0.0,0.0,0.0,0.0,0.0,0.0,0.0,0.0,0.0,0.0,0.0,0.0,0.0,0.0,0.0,0.0,0.0,0.0,0.0,0.0,0.0,0.0,0.0,0.0,0.0,0.0,0.0,0.0,0.0,0.0,0.0,0.0,0.0,0.0,1.0899,1.3693,1.5433,1.5831,1.4811,1.3984,0.0,0.0,0.0,0.0,0.0,0.0,0.0,0.0,0.0,0.0,0.0,0.0,0.0,0.0,0.0,0.0,0.0,0.0,0.0,0.0,0.0,0.0,0.0,0.0,0.0,0.0,0.0,0.0,0.0,0.0,0.0,0.0,0.0,0.0,0.0,0.0,0.0,0.0,0.0,0.0,0.0,0.0,0.0,0.0,0.0,0.0,0.0,0.0,0.0,0.0,0.0,0.0,0.0,0.0,0.0,0.0,0.0,0.0,0.0,0.0,0.0,0.0,0.0,0.0,0.0,0.0,0.0,0.0,0.0,0.0,0.0,0.0,0.0,0.0,0.0,0.0,0.0,0.0,0.0,0.0,0.0,0.0,0.0,0.0,0.0,0.0,0.0,0.0,0.0,0.0,0.0,0.0,0.0,0.0,0.0,0.0,0.0,0.0,0.0,0.0,0.0,0.0,0.0,0.0,0.0,0.0,0.0,0.0,1.0057,1.5252,1.7805,1.8337,1.7226,1.6018,1.4271,0.0,0.0,0.0,0.0,0.0,0.0,0.0,0.0,0.0,0.0,0.0,0.0,0.0,0.0,0.0,0.0,0.0,0.0,0.0,0.0,0.0,0.0,0.0,0.0,0.0,0.0,0.0,0.0,0.0,0.0,0.0,0.0,0.0,0.0,0.0,0.0,0.0,0.0,0.0,0.0,0.0,0.0,0.0,0.0,0.0,0.0,0.0,0.0,0.0,0.0,0.0,0.0,0.0,0.0,0.0,0.0,0.0,0.0,0.0,0.0,0.0,0.0,0.0,0.0,0.0,0.0,0.0,0.0,0.0,0.0,0.0,0.0,0.0,0.0,0.0,0.0,0.0,0.0,0.0,0.0,0.0,0.0,0.0,0.0,0.0,0.0,0.0,0.0,0.0,0.0,0.0,0.0,0.0,0.0,0.0,0.0,0.0,0.0,0.0,0.0,0.0,0.0,0.0,0.0,0.0,0.0,0.0,0.0,0.0,1.2306,1.5569,1.7269,1.7137,1.5592,1.4803,0.0,0.0,0.0,0.0,0.0,0.0,0.0,0.0,0.0,0.0,0.0,0.0,0.0,0.0,0.0,0.0,0.0,0.0,0.0,0.0,0.0,0.0,0.0,0.0,0.0,0.0,0.0,0.0,0.0,0.0,0.0,0.0,0.0,0.0,0.0,0.0,0.0,0.0,0.0,0.0,0.0,0.0,0.0,0.0,0.0,0.0,0.0,0.0,0.0,0.0,0.0,0.0,0.0,0.0,0.0,0.0,0.0,0.0,0.0,0.0,0.0,0.0,0.0,0.0,0.0,0.0,0.0,0.0,0.0,0.0,0.0,0.0,0.0,0.0,0.0,0.0,0.0,0.0,0.0,0.0,0.0,0.0,0.0,0.0,0.0,0.0,0.0,0.0,0.0,0.0,0.0,0.0,0.0,0.0,0.0,0.0,0.0,0.0,0.0,0.0,0.0,0.0,0.0,0.0,0.0,0.0,0.0,0.0,0.0,1.3248,1.6537,1.8335,1.8339,1.656,1.5639,1.5699,0.0,0.0,0.0,0.0,0.0,0.0,0.0,0.0,0.0,0.0,0.0,0.0,0.0,0.0,0.0,0.0,0.0,0.0,0.0,0.0,0.0,0.0,0.0,0.0,0.0,0.0,0.0,0.0,0.0,0.0,0.0,0.0,0.0,0.0,0.0,0.0,0.0,0.0,0.0,0.0,0.0,0.0,0.0,0.0,0.0,0.0,0.0,0.0,0.0,0.0,0.0,0.0,0.0,0.0,0.0,0.0,0.0,0.0,0.0,0.0,0.0,0.0,0.0,0.0,0.0,0.0,0.0,0.0,0.0,0.0,0.0,0.0,0.0,0.0,0.0,0.0,0.0,0.0,0.0,0.0,0.0,0.0,0.0,0.0,0.0,0.0,0.0,0.0,0.0,0.0,0.0,0.0,0.0,0.0,0.0,0.0,0.0,0.0,0.0,0.0,0.0,0.0,0.0,0.0,0.0,0.0,0.0,0.0,1.7098,2.0055,2.1139,2.025,1.8517,1.6752,0.0,0.0,0.0,0.0,0.0,0.0,0.0,0.0,0.0,0.0,0.0,0.0,0.0,0.0,0.0,0.0,0.0,0.0,0.0,0.0,0.0,0.0,0.0,0.0,0.0,0.0,0.0,0.0,0.0,0.0,0.0,0.0,0.0,0.0,0.0,0.0,0.0,0.0,0.0,0.0,0.0,0.0,0.0,0.0,0.0,0.0,0.0,0.0,0.0,0.0,0.0,0.0,0.0,0.0,0.0,0.0,0.0,0.0,0.0,0.0,0.0,0.0,0.0,0.0,0.0,0.0,0.0,0.0,0.0,0.0,0.0,0.0,0.0,0.0,0.0,0.0,0.0,0.0,0.0,0.0,0.0,0.0,0.0,0.0,0.0,0.0,0.0,0.0,0.0,0.0,0.0,0.0,0.0,0.0,0.0,0.0,0.0,0.0,0.0,0.0,0.0,0.0,0.0,0.0,0.0,0.0,0.0,0.0,0.0,1.8358,2.0543,2.144,2.0898,1.8782,1.7359,0.0,0.0,0.0,0.0,0.0,0.0,0.0,0.0,0.0,0.0,0.0,0.0,0.0,0.0,0.0,0.0,0.0,0.0,0.0,0.0,0.0,0.0,0.0,0.0,0.0,0.0,0.0,0.0,0.0,0.0,0.0,0.0,0.0,0.0,0.0,0.0,0.0,0.0,0.0,0.0,0.0,0.0,0.0,0.0,0.0,0.0,0.0,0.0,0.0,0.0,0.0,0.0,0.0,0.0,0.0,0.0,0.0,0.0,0.0,0.0,0.0,0.0,0.0,0.0,0.0,0.0,0.0,0.0,0.0,0.0,0.0,0.0,0.0,0.0,0.0,0.0,0.0,0.0,0.0,0.0,0.0,0.0,0.0,0.0,0.0,0.0,0.0,0.0,0.0,0.0,0.0,0.0,0.0,0.0,0.0,0.0,0.0,0.0,0.0,0.0,0.0,0.0,0.0,0.0,0.0,0.0,0.0,0.0,1.6824,1.9968,2.1347,2.2073,2.217,2.0061,1.851,0.0,0.0,0.0,0.0,0.0,0.0,0.0,0.0,0.0,0.0,0.0,0.0,0.0,0.0,0.0,0.0,0.0,0.0,0.0,0.0,0.0,0.0,0.0,0.0,0.0,0.0,0.0,0.0,0.0,0.0,0.0,0.0,0.0,0.0,0.0,0.0,0.0,0.0,0.0,0.0,0.0,0.0,0.0,0.0,0.0,0.0,0.0,0.0,0.0,0.0,0.0,0.0,0.0,0.0,0.0,0.0,0.0,0.0,0.0,0.0,0.0,0.0,0.0,0.0,0.0,0.0,0.0,0.0,0.0,0.0,0.0,0.0,0.0,0.0,0.0,0.0,0.0,0.0,0.0,0.0,0.0,0.0,0.0,0.0,0.0,0.0,0.0,0.0,0.0,0.0,0.0,0.0,0.0,0.0,0.0,0.0,0.0,0.0,0.0,0.0,0.0,0.0,0.0,0.0,0.0,0.0,0.0,0.0,1.8443,2.1503,2.2128,2.2762,2.3406,2.168,1.9791,0.0,0.0,0.0,0.0,0.0,0.0,0.0,0.0,0.0,0.0,0.0,0.0,0.0,0.0,0.0,0.0,0.0,0.0,0.0,0.0,0.0,0.0,0.0,0.0,0.0,0.0,0.0,0.0,0.0,0.0,0.0,0.0,0.0,0.0,0.0,0.0,0.0,0.0,0.0,0.0,0.0,0.0,0.0,0.0,0.0,0.0,0.0,0.0,0.0,0.0,0.0,0.0,0.0,0.0,0.0,0.0,0.0,0.0,0.0,0.0,0.0,0.0,0.0,0.0,0.0,0.0,0.0,0.0,0.0,0.0,0.0,0.0,0.0,0.0,0.0,0.0,0.0,0.0,0.0,0.0,0.0,0.0,0.0,0.0,0.0,0.0,0.0,0.0,0.0,0.0,0.0,0.0,0.0,0.0,0.0,0.0,0.0,0.0,0.0,0.0,0.0,0.0,0.0,0.0,0.0,0.0,0.0,0.0,1.8704,2.1503,2.1771,2.2392,2.3487,2.168,2.0001,0.0,0.0,0.0,0.0,0.0,0.0,0.0,0.0,0.0,0.0,0.0,0.0,0.0,0.0,0.0,0.0,0.0,0.0,0.0,0.0,0.0,0.0,0.0,0.0,0.0,0.0,0.0,0.0,0.0,0.0,0.0,0.0,0.0,0.0,0.0,0.0,0.0,0.0,0.0,0.0,0.0,0.0,0.0,0.0,0.0,0.0,0.0,0.0,1.8048,0.0,0.0,0.0,0.0,0.0,0.0,0.0,0.0,0.0,0.0,0.0,0.0,0.0,0.0,0.0,0.0,0.0,0.0,0.0,0.0,0.0,0.0,0.0,0.0,0.0,0.0,0.0,0.0,0.0,0.0,0.0,0.0,0.0,0.0,0.0,0.0,0.0,0.0,0.0,0.0,0.0,0.0,0.0,0.0,0.0,0.0,0.0,0.0,0.0,0.0,0.0,0.0,0.0,0.0,0.0,0.0,0.0,0.0,0.0,1.9144,2.156,2.1936,2.2552,2.345,2.2566,2.0987,0.0,0.0,0.0,0.0,0.0,0.0,0.0,0.0,0.0,0.0,0.0,0.0,0.0,0.0,0.0,0.0,0.0,0.0,0.0,0.0,0.0,0.0,0.0,0.0,0.0,0.0,0.0,0.0,0.0,0.0,0.0,0.0,0.0,0.0,0.0,0.0,0.0,0.0,0.0,0.0,0.0,0.0,0.0,0.0,0.0,0.0,0.0,0.0,0.0,0.0,0.0,0.0,0.0,0.0,0.0,0.0,0.0,0.0,0.0,0.0,0.0,0.0,0.0,0.0,0.0,0.0,0.0,0.0,0.0,0.0,0.0,0.0,0.0,0.0,0.0,0.0,0.0,0.0,0.0,0.0,0.0,0.0,0.0,0.0,0.0,0.0,0.0,0.0,0.0,0.0,0.0,0.0,0.0,0.0,0.0,0.0,0.0,0.0,0.0,0.0,0.0,0.0,0.0,0.0,0.0,0.0,0.0,1.7237,1.9593,2.1604,2.2306,2.2954,2.3566,2.3595,2.2119,1.9056,0.0,0.0,0.0,0.0,0.0,0.0,0.0,0.0,0.0,0.0,0.0,0.0,0.0,0.0,0.0,0.0,0.0,0.0,0.0,0.0,0.0,0.0,0.0,0.0,0.0,0.0,0.0,0.0,0.0,0.0,0.0,0.0,0.0,0.0,0.0,0.0,0.0,0.0,1.4585,1.6394,0.0,0.0,0.0,0.0,0.0,0.0,0.0,0.0,1.8073,0.0,0.0,0.0,0.0,0.0,0.0,0.0,0.0,0.0,0.0,0.0,0.0,0.0,0.0,0.0,0.0,0.0,0.0,0.0,0.0,0.0,0.0,0.0,0.0,0.0,0.0,0.0,0.0,0.0,0.0,0.0,0.0,0.0,0.0,0.0,0.0,0.0,0.0,0.0,0.0,0.0,0.0,0.0,0.0,0.0,0.0,0.0,0.0,0.0,0.0,0.0,0.0,0.0,0.0,0.0,0.0,1.6807,1.8291,1.9852,2.1568,2.2743,2.3409,2.3517,2.3566,2.241,1.9997,0.0,0.0,0.0,0.0,0.0,0.0,0.0,0.0,0.0,0.0,0.0,0.0,0.0,0.0,0.0,0.0,0.0,0.0,0.0,0.0,0.0,0.0,0.0,0.0,0.0,0.0,0.0,0.0,0.0,0.0,0.0,0.0,0.0,0.0,0.0,0.0,0.0,0.0,0.0,1.9128,1.9714,0.0,0.0,0.0,0.0,0.0,0.0,0.0,0.0,1.8253,0.0,0.0,0.0,0.0,0.0,0.0,0.0,0.0,0.0,0.0,0.0,0.0,0.0,0.0,0.0,0.0,0.0,0.0,0.0,0.0,0.0,0.0,0.0,0.0,0.0,0.0,0.0,0.0,0.0,0.0,0.0,0.0,0.0,0.0,0.0,0.0,0.0,0.0,0.0,0.0,0.0,0.0,0.0,0.0,0.0,0.0,0.0,0.0,0.0,0.0,0.0,0.0,0.0,0.0,0.0,1.6074,1.8623,2.0471,2.1575,2.2481,2.3122,2.348,2.3516,2.2089,0.0,0.0,0.0,0.0,0.0,0.0,0.0,0.0,0.0,0.0,0.0,0.0,0.0,0.0,0.0,0.0,0.0,0.0,0.0,0.0,0.0,0.0,0.0,0.0,0.0,0.0,0.0,0.0,0.0,0.0,0.0,0.0,0.0,0.0,0.0,0.0,0.0,0.0,0.0,0.0,1.9617,2.0267,2.1099,0.0,0.0,0.0,0.0,0.0,0.0,1.8791,1.8035,0.0,0.0,0.0,0.0,0.0,0.0,0.0,0.0,0.0,0.0,0.0,0.0,0.0,0.0,0.0,0.0,0.0,0.0,0.0,0.0,0.0,0.0,0.0,0.0,0.0,0.0,0.0,0.0,0.0,0.0,0.0,0.0,0.0,0.0,0.0,0.0,0.0,0.0,0.0,0.0,0.0,0.0,0.0,0.0,0.0,0.0,0.0,0.0,0.0,0.0,0.0,0.0,0.0,0.0,0.0,1.4913,1.8563,2.0784,2.1361,2.215,2.2808,2.3246,2.3407,2.1749,0.0,0.0,0.0,0.0,0.0,0.0,0.0,0.0,0.0,0.0,0.0,0.0,0.0,0.0,0.0,0.0,0.0,0.0,0.0,0.0,0.0,0.0,0.0,0.0,0.0,0.0,0.0,0.0,0.0,0.0,0.0,0.0,0.0,0.0,0.0,0.0,0.0,0.0,0.0,0.0,0.0,2.034,2.1224,2.0638,0.0,0.0,0.0,0.0,2.0643,1.947,0.0,0.0,0.0,0.0,0.0,0.0,0.0,0.0,0.0,0.0,0.0,0.0,0.0,0.0,0.0,0.0,0.0,0.0,0.0,0.0,0.0,0.0,0.0,0.0,0.0,0.0,0.0,0.0,0.0,0.0,0.0,0.0,0.0,0.0,0.0,0.0,0.0,0.0,0.0,0.0,0.0,0.0,0.0,0.0,0.0,0.0,0.0,0.0,0.0,0.0,0.0,0.0,0.0,0.0,0.0,0.0,1.4661,1.8035,2.0043,2.0585,2.2275,2.297,2.2472,2.3127,2.2019,0.0,0.0,0.0,0.0,0.0,0.0,0.0,0.0,0.0,0.0,0.0,0.0,0.0,0.0,0.0,0.0,0.0,0.0,0.0,0.0,0.0,0.0,0.0,0.0,0.0,0.0,0.0,0.0,0.0,0.0,0.0,0.0,0.0,0.0,0.0,0.0,0.0,0.0,0.0,0.0,0.0,2.0287,1.9912,1.9715,1.9512,0.0,0.0,2.0956,2.2096,2.2106,0.0,0.0,0.0,0.0,0.0,0.0,0.0,0.0,0.0,0.0,0.0,0.0,0.0,0.0,0.0,0.0,0.0,0.0,0.0,0.0,0.0,0.0,0.0,0.0,0.0,0.0,0.0,0.0,0.0,0.0,0.0,0.0,0.0,0.0,0.0,0.0,0.0,0.0,0.0,0.0,0.0,0.0,0.0,0.0,0.0,0.0,0.0,0.0,0.0,0.0,0.0,0.0,0.0,0.0,0.0,1.2472,1.4365,1.7774,1.9822,2.0423,2.1816,2.2349,2.1945,2.2777,2.1518,0.0,0.0,0.0,0.0,0.0,0.0,0.0,0.0,0.0,0.0,0.0,0.0,0.0,0.0,0.0,0.0,0.0,0.0,0.0,0.0,0.0,0.0,0.0,0.0,0.0,0.0,0.0,0.0,0.0,0.0,0.0,0.0,0.0,0.0,0.0,0.0,0.0,0.0,0.0,0.0,0.0,0.0,2.1154,2.0571,0.0,0.0,0.0,2.2368,2.3008,0.0,0.0,0.0,0.0,0.0,0.0,0.0,0.0,0.0,0.0,0.0,0.0,0.0,0.0,0.0,0.0,0.0,0.0,0.0,0.0,0.0,0.0,0.0,0.0,0.0,0.0,0.0,0.0,0.0,0.0,0.0,0.0,0.0,0.0,0.0,0.0,0.0,0.0,0.0,0.0,0.0,0.0,0.0,0.0,0.0,0.0,0.0,0.0,0.0,0.0,0.0,0.0,0.0,0.0,0.0,0.0,0.0,1.3839,1.7453,1.9591,2.0167,2.1224,2.1801,2.1781,2.2513,0.0,0.0,0.0,0.0,0.0,0.0,0.0,0.0,0.0,0.0,0.0,0.0,0.0,0.0,0.0,0.0,0.0,0.0,0.0,0.0,0.0,0.0,0.0,0.0,0.0,0.0,0.0,0.981,0.0,0.0,0.0,0.0,0.0,0.0,0.0,0.0,0.0,0.0,0.0,0.0,0.0,0.0,1.944,2.1763,2.1307,2.1254,0.0,0.0,2.3173,2.3866,2.3986,2.3483,0.0,0.0,0.0,0.0,0.0,0.0,0.0,0.0,0.0,0.0,0.0,0.0,0.0,0.0,0.0,0.0,0.0,0.0,0.0,0.0,0.0,0.0,0.0,0.0,0.0,0.0,0.0,0.0,0.0,0.0,0.0,0.0,0.0,0.0,0.0,0.0,0.0,0.0,0.0,0.0,0.0,0.0,0.0,0.0,0.0,0.0,0.0,0.0,0.0,0.0,0.0,0.0,0.0,0.0,1.2485,1.3101,1.7034,1.9228,1.9499,2.0629,2.1562,2.2244,2.2368,2.0836,0.0,0.0,0.0,0.0,0.0,0.0,0.0,0.0,0.0,0.0,0.0,0.0,0.0,0.0,0.0,0.0,0.0,0.0,0.0,0.0,0.0,0.0,0.0,0.0,0.0,0.0,0.0,0.0,0.0,0.0,0.0,0.0,0.0,0.0,0.0,0.0,0.0,0.0,0.0,0.0,0.0,1.8462,2.0392,2.1212,2.2028,0.0,0.0,2.3045,2.474,2.5088,2.3994,2.0475,0.0,0.0,0.0,0.0,0.0,0.0,0.0,0.0,0.0,0.0,0.0,0.0,0.0,0.0,0.0,0.0,0.0,0.0,0.0,0.0,0.0,0.0,0.0,0.0,0.0,0.0,0.0,0.0,0.0,0.0,0.0,0.0,0.0,0.0,0.0,0.0,0.0,0.0,0.0,0.0,0.0,0.0,0.0,0.0,0.0,0.0,0.0,0.0,0.0,0.0,0.0,0.0,0.0,1.1629,1.2679,1.6061,1.8251,1.9195,2.0216,2.1054,2.1675,2.2313,2.1383,0.0,0.0,0.0,0.0,0.0,0.0,0.0,0.0,0.0,0.0,0.0,0.0,0.0,0.0,0.0,0.0,0.0,0.0,0.0,0.0,0.0,0.0,0.0,0.0,0.0,0.0,0.0,0.0,1.525,1.4906,1.3147,0.0,0.0,0.0,0.0,0.0,0.0,0.0,0.0,0.0,0.0,1.965,2.1626,2.1683,0.0,0.0,2.3981,2.4028,2.4996,2.4873,2.409,2.2583,2.15,0.0,0.0,0.0,0.0,0.0,0.0,0.0,0.0,0.0,0.0,0.0,0.0,0.0,0.0,0.0,0.0,0.0,0.0,0.0,0.0,0.0,0.0,0.0,0.0,0.0,0.0,0.0,0.0,0.0,0.0,0.0,0.0,0.0,0.0,0.0,0.0,0.0,0.0,0.0,0.0,0.0,0.0,0.0,0.0,0.0,0.0,0.0,0.0,0.0,0.0,0.0,0.0,1.0984,1.2429,1.5452,1.7624,1.8949,1.9977,2.0815,2.1382,2.2107,2.1575,0.0,0.0,0.0,0.0,0.0,0.0,0.0,0.0,0.0,0.0,0.0,0.0,0.0,0.0,0.0,0.0,0.0,0.0,0.0,0.0,0.0,0.0,0.0,0.0,0.0,0.0,0.0,0.0,1.6028,1.4921,1.2321,0.0,0.0,0.0,0.0,0.0,0.0,0.0,0.0,0.0,0.0,2.0385,2.2384,2.2268,2.2511,2.4241,2.4107,2.4044,2.4568,2.442,2.4002,2.3331,0.0,0.0,0.0,0.0,0.0,0.0,0.0,0.0,0.0,0.0,0.0,0.0,0.0,0.0,0.0,0.0,0.0,0.0,0.0,0.0,0.0,0.0,0.0,0.0,0.0,0.0,0.0,0.0,0.0,0.0,0.3245,0.0,0.0,0.0,0.0,0.0,0.0,0.0,0.0,0.0,0.0,0.0,0.0,0.0,0.0,0.0,0.0,0.0,0.0,0.0,0.0,0.0,0.0,1.073,1.2227,1.5355,1.7501,1.8585,1.9913,2.0861,2.1534,2.1747,2.1253,1.999,0.0,0.0,0.0,0.0,0.0,0.0,0.0,0.0,0.0,0.0,0.0,0.0,0.0,0.0,0.0,0.0,0.0,0.0,0.0,0.0,0.0,0.0,0.0,0.0,0.0,0.0,1.1897,1.2641,1.2776,0.0,0.0,0.0,0.0,0.0,0.0,0.0,0.0,0.0,0.0,1.8679,2.0243,2.2241,2.2794,2.3154,2.3547,2.2948,2.2661,2.3415,2.3953,2.3641,0.0,0.0,0.0,0.0,0.0,0.0,0.0,0.0,0.0,0.0,0.0,0.0,0.0,0.0,0.0,0.0,0.0,0.0,0.0,0.0,0.0,0.0,0.0,0.0,0.0,0.0,0.0,0.4504,0.4205,0.0,0.0,0.0,0.0,0.0,0.0,0.0,0.0,0.0,0.0,0.0,0.9826,1.0594,0.0,0.0,0.0,0.0,0.0,0.0,0.0,0.0,0.0,0.0,0.0,0.0,1.027,1.1921,1.478,1.698,1.8425,1.9169,1.991,2.0707,2.1245,2.1068,2.0091,0.0,0.0,0.0,0.0,0.0,0.0,0.0,0.0,0.0,0.0,0.0,0.0,0.0,0.0,0.0,0.0,0.0,0.0,0.0,0.0,0.0,0.0,0.0,0.0,0.0,1.3478,0.0,0.0,0.0,0.0,0.0,0.0,0.0,0.0,0.0,0.0,0.0,1.6638,1.8374,2.0167,2.1773,2.3044,2.3048,2.3368,0.0,0.0,0.0,0.0,0.0,0.0,0.0,0.0,0.0,0.0,0.0,0.0,0.0,0.0,2.4994,2.1698,2.0398,1.9901,2.0277,0.0,0.0,0.0,0.0,0.0,0.0,0.0,0.0,0.0,0.0,0.0,0.0,0.0,0.0,0.0,0.0,0.4998,0.0,0.0,0.0,0.0,0.0,0.0,0.0,0.0,0.9854,1.0928,1.0899,1.1837,1.1936,0.0,1.0755,0.9647,0.0,0.0,0.0,0.0,0.0,0.0,0.0,0.0,1.0214,1.2216,1.4648,1.6537,1.7846,1.8767,1.9507,2.0095,2.0983,2.1293,2.0916,2.0514,1.9789,0.0,0.0,0.0,0.0,0.0,0.0,0.0,0.0,0.0,0.0,0.0,0.0,0.0,0.0,0.0,0.0,0.0,0.0,0.0,0.0,0.0,0.0,0.0,1.4119,0.0,0.0,0.0,0.0,0.0,0.0,0.0,0.0,0.0,1.3658,1.5989,1.8203,1.9621,2.1125,2.2469,2.3443,0.0,0.0,0.0,0.0,0.0,0.0,0.0,2.5081,2.5702,2.4476,2.3318,2.3067,2.4421,2.5349,2.4713,0.0,0.0,2.4733,2.3775,2.3676,2.4277,2.4621,2.4915,2.5231,2.63,2.7264,0.0,0.0,0.0,0.0,0.0,0.0,0.0,0.0,0.5977,0.5859,0.0,0.5681,0.0,0.0,0.0,0.0,0.0,0.0,0.0,0.0,1.182,1.2974,1.2338,1.3047,1.3441,1.3441,1.3119,1.2321,1.1114,0.9802,0.0,0.0,0.0,0.0,0.0,0.0,1.059,1.3099,1.4882,1.6188,1.6975,1.8666,1.9624,1.9768,2.093,2.1807,2.2298,2.0778,1.9877,1.9895,1.626,0.0,0.0,0.0,0.0,0.0,0.0,0.0,0.0,0.0,0.0,0.0,0.0,0.0,0.0,0.0,0.0,0.0,0.0,0.0,0.0,1.3707,0.0,0.0,0.0,0.0,0.0,0.0,0.0,0.0,0.0,0.0,1.6789,1.757,1.8906,2.0927,0.0,0.0,0.0,0.0,2.4064,2.4755,2.5188,2.5452,2.5575,2.6956,2.8011,2.811,0.0,0.0,2.5857,2.7454,2.8464,2.6773,2.8504,3.0099,2.962,2.8482,2.8187,2.9406,2.9258,2.9326,3.0073,3.1397,3.2784,0.6447,0.0,0.0,0.0,0.0,0.5877,0.6525,0.7243,0.7275,0.7081,0.6744,0.6744,0.0,0.0,0.0,0.0,0.0,0.0,0.7926,0.8755,1.0129,1.124,1.2114,1.2342,1.2636,1.3076,1.3136,1.2942,1.2616,1.2336,1.0426,0.6992,0.0,0.0,0.0,0.0,1.0973,1.2605,1.3892,1.5436,1.7312,1.7849,1.876,2.0087,2.0854,2.1545,2.2226,2.2229,2.1308,1.9417,1.8047,0.0,0.0,0.0,0.0,0.0,0.0,0.0,0.0,0.0,0.0,0.0,0.0,0.0,0.0,0.0,0.0,0.0,0.0,0.0,1.2237,1.3951,1.473,0.0,0.0,0.0,0.0,0.0,0.0,0.0,0.0,0.0,1.9789,2.0419,2.1006,0.0,0.0,2.3266,2.3295,2.3821,2.456,2.5573,0.0,0.0,0.0,2.77,2.7873,2.9367,2.9563,2.9302,2.8597,2.91,2.9428,2.8888,2.9775,3.0718,3.0987,3.0242,3.003,3.1213,3.1464,3.1915,3.3485,3.443,3.4984,0.6175,0.5289,0.583,0.5948,0.5779,0.6278,0.699,0.7825,0.7972,0.7974,0.7807,0.7807,0.727,0.6332,0.6081,0.0,0.0,0.0,0.7954,0.8617,0.9585,1.0354,1.0938,1.1327,1.1753,1.2166,1.2509,1.2832,1.3144,1.3436,1.1985,0.9004,0.0,0.0,0.8898,1.011,1.14,1.2732,1.3607,1.4872,1.6414,1.7014,1.8137,1.9811,2.0226,2.0742,2.1538,2.2275,2.1872,2.0239,1.949,1.8154,0.0,0.0,0.0,0.0,0.0,0.0,0.0,0.0,0.0,0.0,0.0,0.9675,0.7487,0.0,0.0,0.0,1.2849,1.3675,1.4388,1.5723,0.0,0.0,0.0,0.0,0.0,0.0,0.0,1.8502,1.9969,2.1182,2.2129,2.2627,2.2832,2.2666,2.3447,2.4014,2.3981,0.0,2.496,2.5827,2.6346,2.7104,2.8333,2.8599,2.9129,3.0593,3.081,3.0658,3.0457,3.0432,3.0432,3.0498,3.0748,3.1151,3.1498,3.1083,3.1126,3.2516,3.285,3.3414,3.4961,3.5289,3.556,0.5035,0.4711,0.5477,0.5801,0.5832,0.6321,0.7013,0.7774,0.8165,0.8479,0.8665,0.8665,0.8237,0.7494,0.6899,0.0,0.0,0.83,0.8532,0.8441,0.9722,0.9997,0.9337,1.0291,1.0829,1.1057,1.1554,1.2227,1.3021,1.3324,1.3154,1.2414,1.2073,1.1874,1.176,1.1455,1.1955,1.3293,1.3869,1.4402,1.4963,1.6322,1.7759,1.913,1.9295,1.9711,2.0537,2.1343,2.1793,2.178,2.0646,1.9521,1.8459,0.0,0.0,0.0,0.0,0.0,0.0,0.0,0.0,0.0,0.0,0.0,0.0,0.0,0.0,0.0,1.6426,0.0,1.85,1.8295,0.0,0.0,0.0,1.7119,1.7734,1.8789,1.9881,2.0762,0.0,0.0,2.3789,0.0,2.4326,2.3945,2.4228,2.46,2.5018,2.5096,2.5264,2.5683,2.6648,2.7505,2.7955,2.9636,3.1153,3.1877,3.2117,3.1968,3.1555,3.1483,3.1483,3.1483,3.1524,3.1578,3.1565,3.1568,3.1947,3.3354,3.3611,3.3943,3.4887,3.5213,3.5552,0.4919,0.4098,0.4702,0.4978,0.5098,0.6269,0.6942,0.7169,0.7868,0.8178,0.8212,0.8255,0.811,0.7927,0.7612,0.7661,0.7977,0.7989,0.8083,0.8183,0.8835,0.9179,0.934,0.9861,1.0279,1.0594,1.0868,1.1534,1.252,1.2654,1.3229,1.4207,1.3857,1.3003,1.1724,1.2474,1.3105,1.3425,1.3581,1.4237,1.5423,1.6854,1.7796,1.8178,1.9083,1.9775,2.014,2.1065,2.1675,2.1868,2.1242,2.0773,2.0458,1.6605,0.0,0.0,0.0,0.0,0.0,0.0,0.0,0.0,0.0,1.3175,1.03,0.0,1.4409,0.0,1.9206,2.0098,1.834,1.8909,0.0,0.0,1.8724,1.8968,2.1055,2.1279,2.1719,2.2891,2.3672,2.416,2.4258,2.4639,2.4883,2.4822,2.4844,2.4834,2.4639,2.5166,2.5567,2.5723,2.5995,2.6828,2.8767,3.0894,3.2394,3.283,3.2605,3.2327,3.2191,3.2283,3.2411,3.2399,3.2539,3.2679,3.2679,3.2679,3.2794,3.3164,3.3409,3.394,3.5204,3.5942,3.6473,0.3832,0.3255,0.36,0.3715,0.3834,0.5193,0.6047,0.6507,0.7126,0.7672,0.8102,0.8102,0.8102,0.8102,0.7991,0.7991,0.8102,0.7876,0.7919,0.8078,0.8225,0.8475,0.876,0.9032,0.9326,0.9615,1.0076,1.1001,1.2205,1.2527,1.3354,1.4653,1.4441,1.3822,1.2793,1.3362,1.3639,1.3397,1.3655,1.4254,1.526,1.6075,1.6626,1.6827,1.7899,1.8524,1.8652,1.9641,2.0039,1.9635,1.9642,1.9559,1.9318,1.7489,1.6472,0.0,0.0,0.0,0.0,0.0,0.0,0.0,0.0,0.0,0.0,0.0,1.5781,1.6953,1.9995,2.1133,1.9316,2.0488,2.1357,2.1348,2.1229,2.1746,2.3213,2.3154,2.3281,2.3984,2.4443,2.4707,2.4717,2.5098,2.5361,2.5361,2.5371,2.5283,2.5117,2.5596,2.6025,2.5986,2.6182,2.7091,2.9429,3.0895,3.2123,3.3111,3.3232,3.3113,3.3113,3.3279,3.3399,3.3431,3.362,3.3809,3.3809,3.3596,3.3488,3.3456,3.3352,3.3781,3.4816,3.5454,3.595,0.2523,0.252,0.2514,0.251,0.2588,0.3682,0.4727,0.5693,0.623,0.7049,0.8025,0.8025,0.8025,0.8025,0.8025,0.8025,0.803,0.7863,0.7883,0.803,0.7965,0.7947,0.8052,0.8277,0.8449,0.8628,0.9343,1.0419,1.1794,1.2339,1.319,1.4223,1.4223,1.4168,1.4099,1.4042,1.3831,1.3394,1.3808,1.4302,1.4772,1.482,1.5036,1.5468,1.6438,1.6966,1.7033,1.8078,1.8146,1.7164,1.7637,1.7726,1.7295,1.8257,1.7917,0.0,1.5997,0.0,0.0,0.0,0.0,0.0,0.0,0.0,0.0,1.7259,1.7687,1.6759,1.9965,2.1678,2.0963,2.2389,2.331,2.3276,2.3919,2.4424,2.4414,2.4463,2.4502,2.4492,2.4883,2.5204,2.5166,2.5498,2.5693,2.5762,2.5771,2.5801,2.5859,2.6162,2.6367,2.6445,2.6978,2.8086,2.9828,3.0562,3.1538,3.3239,3.3756,3.3964,3.3845,3.4073,3.4268,3.4313,3.4457,3.463,3.4726,3.4311,3.4022,3.3997,3.3677,3.3652,3.4189,3.4596,3.5055,0.2583,0.2579,0.2531,0.251,0.251,0.2744,0.3366,0.4297,0.5654,0.6784,0.7599,0.7599,0.7638,0.7599,0.7638,0.7599,0.7607,0.776,0.7803,0.7888,0.8259,0.8371,0.8247,0.8595,0.873,0.8603,0.8767,0.9467,1.0621,1.0539,1.1531,1.3535,1.3366,1.3503,1.4022,0.0,0.0,0.0,1.3873,1.3868,1.4247,1.4445,1.4592,1.4756,1.633,0.0,1.7553,1.8478,1.8995,1.8991,1.8727,0.0,0.0,0.0,0.0,0.0,0.0,0.0,0.0,0.0,0.0,0.0,1.6182,1.6349,1.6375,1.8384,1.8998,1.754,2.0509,2.2566,2.2418,2.3455,2.417,2.4144,2.428,2.4424,2.4424,2.4727,2.4988,2.4951,2.5332,2.5557,2.5596,2.5645,2.582,2.6182,2.626,2.6416,2.6719,2.6572,2.6543,2.6887,2.7922,2.9216,3.0563,3.1464,3.2305,3.3601,3.3746,3.3737,3.3783,3.4105,3.44,3.4413,3.4545,3.4718,3.4718,3.458,3.4562,3.4575,3.4462,3.4318,3.4054,3.4564,3.5521,0.2601,0.0,0.2535,0.2527,0.0,0.2484,0.2743,0.3249,0.4491,0.5696,0.6899,0.7288,0.7518,0.7526,0.7616,0.7657,0.7665,0.7805,0.7935,0.8069,0.8329,0.8461,0.8473,0.8651,0.87,0.8612,0.8616,0.9126,1.0067,0.9985,1.0977,1.3033,1.2905,1.326,1.4034,1.4311,1.4448,1.4516,1.4186,1.4246,1.4716,1.4877,1.481,1.4556,0.0,0.0,0.0,0.0,0.0,0.0,0.0,0.0,0.0,0.0,0.0,1.6115,1.5833,1.5528,1.5216,1.4993,1.5509,1.7016,1.7317,1.7586,1.8051,1.9248,1.9556,1.8734,2.0691,2.2028,2.2046,2.2729,2.3389,2.3871,2.4146,2.4412,2.4945,2.5264,2.5391,2.541,2.5547,2.5684,2.5693,2.5947,2.6123,2.6357,2.6582,2.6846,2.7226,2.7158,2.7168,2.7568,2.8212,2.9384,3.09,3.1617,3.2624,3.3884,3.4305,3.4244,3.4373,3.4703,3.5043,3.5183,3.5356,3.5542,3.5516,3.5328,3.5069,3.5044,3.4868,3.4788,3.4663,3.4832,3.5283,0.261,0.2595,0.2535,0.2538,0.2582,0.2542,0.2526,0.2564,0.0,0.0,0.0,0.6976,0.7385,0.758,0.7731,0.7816,0.7857,0.7983,0.8142,0.8288,0.8325,0.8418,0.8612,0.8616,0.8616,0.8616,0.8616,0.8955,0.9646,0.9689,1.0506,1.2095,1.2363,1.3034,1.409,1.4396,1.4569,1.4619,1.4569,1.4776,1.5297,1.5317,1.509,1.4609,1.5351,1.5445,1.4752,1.5636,1.5621,1.4672,1.5247,1.5447,1.506,1.6232,1.6829,1.6685,1.7385,1.7596,1.7058,1.7023,1.7267,1.7875,1.7953,1.8414,1.9365,1.9517,1.9556,1.9605,2.0565,2.1141,2.1189,2.189,2.2619,2.3514,2.4042,2.4756,2.5528,2.5771,2.581,2.581,2.5888,2.5918,2.5966,2.6299,2.6543,2.6641,2.6943,2.7295,2.7666,2.7806,2.7842,2.8144,2.8319,2.9092,3.0959,3.1593,3.2437,3.4374,3.4787,3.4969,3.5163,3.5464,3.5716,3.5868,3.6228,3.632,3.6355,3.5968,3.5671,3.5633,3.5328,3.514,3.5516,3.5328,3.5357,0.2649,0.2595,0.2535,0.2515,0.2527,0.257,0.259,0.2664,0.3474,0.4686,0.6202,0.6318,0.69,0.7763,0.7788,0.7877,0.7988,0.817,0.8264,0.0,0.8502,0.8588,0.8612,0.8616,0.8616,0.8616,0.8616,0.8656,0.8784,0.8784,0.9301,1.0294,1.1106,1.2512,1.4306,1.4496,1.4763,1.5244,1.4783,1.4683,1.5055,1.5068,1.5035,1.4981,1.5504,1.5731,1.5658,1.5758,1.5758,1.5598,1.5967,1.615,1.6116,1.6698,1.6953,1.6715,1.7033,1.7153,1.7102,1.7109,1.7332,1.792,1.8223,1.8311,1.8201,1.8419,1.868,1.8975,2.014,2.0937,2.1038,2.2581,2.366,2.4024,2.4875,2.5538,2.5742,2.6094,2.6299,2.6299,2.6631,2.6797,2.6768,2.6865,2.706,2.7373,2.749,2.7725,2.8057,2.8213,2.8223,2.8281,2.8301,2.9227,3.1062,3.1564,3.2488,3.447,3.4981,3.5126,3.5175,3.5572,3.5872,3.6015,3.6193,3.637,3.6417,3.6367,3.6254,3.6182,3.6056,3.6094,3.6182,3.6141,3.6371,0.2725,0.2692,0.2635,0.2628,0.2658,0.2653,0.2651,0.269,0.3028,0.3833,0.4899,0.5413,0.6168,0.7119,0.7256,0.7624,0.817,0.8357,0.8438,0.8494,0.8528,0.8616,0.8616,0.8616,0.8616,0.8616,0.8616,0.8616,0.8616,0.8616,0.9043,0.9951,1.1489,1.2796,1.373,1.4563,1.5124,1.5378,1.513,1.5137,1.5418,1.5431,1.5431,1.5438,1.5705,1.5825,1.5832,1.5985,1.6066,1.6066,1.6353,1.6513,1.6513,1.674,1.6807,1.6707,1.6814,1.6931,1.7144,1.7415,1.7712,1.8005,1.8278,1.8506,1.8631,1.8765,1.8957,1.9052,1.9701,2.011,2.0338,2.1775,2.3014,2.3743,2.4868,2.5755,2.6295,2.6592,2.6728,2.6748,2.6885,2.7012,2.7012,2.7226,2.7422,2.7708,2.7832,2.8139,2.8262,2.8301,2.8301,2.8301,2.8291,2.9217,3.1154,3.1564,3.2488,3.447,3.4872,3.503,3.5175,3.5476,3.5668,3.5968,3.6098,3.6228,3.637,3.6417,3.6417,3.6417,3.6417,3.6417,3.6417,3.6417,3.6909,0.2817,0.2756,0.2713,0.2728,0.282,0.2718,0.2699,0.2711,0.2698,0.3047,0.3626,0.4462,0.5492,0.6614,0.6819,0.7446,0.8279,0.8543,0.8612,0.8616,0.8616,0.8616,0.8616,0.8616,0.8616,0.862,0.8605,0.8625,0.8669,0.871,0.9167,1.0146,1.171,1.2628,1.296,1.4095,1.4862,1.5113,1.5166,1.5371,1.5771,1.5825,1.5825,1.5825,1.5825,1.5858,1.5932,1.6152,1.6355,1.6422,1.6647,1.68,1.6814,1.6874,1.6901,1.6901,1.6907,1.7001,1.728,1.7671,1.7939,1.8007,1.8271,1.8667,1.9209,1.9379,1.9439,1.9499,1.9566,1.9774,2.0446,2.1362,2.2512,2.3887,2.5047,2.6073,2.6849,2.71,2.7158,2.7168,2.7236,2.7324,2.7363,2.7598,2.7803,2.7924,2.8096,2.8281,2.8301,2.8301,2.8301,2.8301,2.8301,2.9164,3.1103,3.1564,3.2488,3.4409,3.4823,3.492,3.5078,3.5175,3.5428,3.5824,3.6051,3.6181,3.637,3.6417,3.6417,3.6417,3.6417,3.6417,3.6417,3.6628,3.7209,0.2753,0.2703,0.27,0.2728,0.2777,0.2721,0.2726,0.2764,0.2718,0.2765,0.3014,0.3674,0.5073,0.6708,0.6866,0.7469,0.8484,0.8604,0.8616,0.8616,0.8616,0.8616,0.8616,0.8616,0.8616,0.8637,0.8723,0.88,0.8808,0.8958,0.9498,1.0329,1.0665,1.1317,1.2291,1.2549,1.3201,1.4399,1.4405,1.4848,1.573,1.5825,1.5825,1.5825,1.5832,1.5959,1.6199,1.6308,1.6449,1.6653,1.6947,1.7159,1.7186,1.7407,1.7495,1.7482,1.7488,1.7522,1.7594,1.7615,1.7769,1.7996,1.8313,1.8773,1.9331,1.9626,1.9877,2.0034,2.0095,2.0539,2.1717,2.2716,2.3808,2.5034,2.6144,2.691,2.7058,2.7373,2.766,2.7607,2.7881,2.8164,2.8096,2.8144,2.8203,2.8174,2.8223,2.8301,2.8301,2.8301,2.8301,2.8301,2.8301,2.9217,3.1,3.1564,3.2538,3.4262,3.4775,3.4823,3.492,3.5223,3.562,3.5668,3.6051,3.6275,3.6358,3.6417,3.6417,3.6417,3.6417,3.6417,3.6499,3.6956,3.7854,0.2823,0.28,0.28,0.2813,0.2831,0.2809,0.2815,0.2832,0.2855,0.2815,0.2877,0.3204,0.4077,0.538,0.5952,0.6731,0.7716,0.8344,0.8616,0.8616,0.8616,0.8616,0.862,0.8674,0.8718,0.8735,0.8897,0.8982,0.8999,0.9064,0.9325,0.9711,1.036,1.0981,1.1495,1.2188,1.3121,1.4244,1.4298,1.4777,1.5689,1.5825,1.5825,1.5798,1.5999,1.6139,1.6293,1.6643,1.6898,1.6974,1.73,1.746,1.746,1.7515,1.7589,1.7595,1.7756,1.7856,1.7856,1.8016,1.8279,1.8496,1.8673,1.9085,1.9821,2.0037,2.0269,2.0679,2.0416,2.0781,2.2141,2.3357,2.4561,2.5861,2.706,2.7764,2.7773,2.791,2.8037,2.8047,2.8184,2.8301,2.8301,2.8301,2.8301,2.8301,2.8301,2.8301,2.8301,2.8301,2.8301,2.8301,2.8301,2.9217,3.1051,3.1564,3.2588,3.4115,3.4775,3.4775,3.4848,3.5078,3.5368,3.556,3.5943,3.6228,3.6358,3.6405,3.6417,3.6417,3.6417,3.6417,3.6417,3.6675,3.7474,0.292,0.292,0.292,0.292,0.292,0.292,0.292,0.292,0.292,0.292,0.292,0.292,0.3275,0.4032,0.5186,0.6207,0.7143,0.8164,0.8597,0.8629,0.8637,0.871,0.8718,0.8832,0.8897,0.8926,0.908,0.9194,0.9234,0.9242,0.9242,0.9358,1.0127,1.053,1.0683,1.1691,1.2834,1.3811,1.4154,1.4777,1.5642,1.5905,1.5945,1.5965,1.6159,1.6395,1.6569,1.6971,1.7246,1.732,1.7475,1.7589,1.7589,1.7589,1.7615,1.7729,1.7996,1.8115,1.8115,1.837,1.8635,1.8862,1.8987,1.9396,2.0104,2.0352,2.0622,2.1058,2.0779,2.1173,2.2915,2.417,2.545,2.6816,2.7853,2.8291,2.8271,2.8301,2.8281,2.8301,2.8281,2.8301,2.8301,2.8301,2.8301,2.8301,2.8301,2.8301,2.8301,2.8301,2.8301,2.8301,2.8301,2.9217,3.1103,3.1564,3.2588,3.4017,3.4763,3.4715,3.4703,3.4884,3.5113,3.5315,3.5701,3.6038,3.631,3.6417,3.6392,3.6405,3.6417,3.6417,3.6417,3.6581,3.7302,0.292,0.292,0.292,0.292,0.292,0.292,0.292,0.292,0.292,0.292,0.292,0.292,0.292,0.3187,0.4921,0.6207,0.7139,0.812,0.8649,0.8783,0.875,0.8897,0.9068,0.9084,0.9084,0.9096,0.9259,0.9421,0.9571,0.9587,0.9558,0.9596,0.969,0.9706,0.9895,1.0823,1.1804,1.2877,1.3806,1.4777,1.5716,1.6099,1.6239,1.6259,1.6335,1.661,1.7058,1.7179,1.7326,1.7549,1.7569,1.7589,1.7589,1.7595,1.7729,1.7955,1.8303,1.8477,1.847,1.8517,1.8637,1.8908,1.9237,1.9637,2.0229,2.0487,2.0802,2.1196,2.1252,2.2107,2.4042,2.52,2.6616,2.7887,2.8184,2.8301,2.8301,2.8301,2.8301,2.8301,2.8301,2.8301,2.8301,2.8301,2.8301,2.8301,2.8301,2.8271,2.8242,2.8262,2.8281,2.8315,2.8475,2.9112,3.1051,3.1564,3.2538,3.3946,3.4619,3.4619,3.4547,3.4558,3.4784,3.5069,3.5476,3.5849,3.6248,3.6392,3.6367,3.6367,3.6405,3.6417,3.6417,3.7176,3.7763,0.292,0.292,0.292,0.292,0.292,0.292,0.292,0.292,0.292,0.292,0.292,0.292,0.292,0.3008,0.4877,0.5897,0.634,0.7852,0.8658,0.8763,0.8775,0.8917,0.9092,0.9206,0.9263,0.9291,0.9441,0.9559,0.9616,0.9624,0.9624,0.9624,0.9624,0.9624,0.9772,1.069,1.1707,1.2732,1.3757,1.4777,1.5722,1.6119,1.6353,1.6553,1.679,1.6978,1.7192,1.738,1.7527,1.7582,1.7589,1.7589,1.7602,1.7776,1.8016,1.8317,1.8604,1.8771,1.8791,1.8951,1.9092,1.9243,1.9486,1.9851,2.0242,2.0551,2.0838,2.1261,2.1987,2.2869,2.3472,2.468,2.6182,2.7843,2.8301,2.8301,2.8301,2.8301,2.8301,2.8301,2.8301,2.8301,2.8301,2.8301,2.8301,2.8301,2.8291,2.8174,2.7998,2.8105,2.8174,2.8166,2.872,2.9828,3.1268,3.1575,3.218,3.3562,3.4402,3.4402,3.4402,3.4616,3.4876,3.4821,3.5201,3.531,3.5604,3.5755,3.583,3.6169,3.6254,3.6292,3.6417,3.6858,3.7289,0.283,0.2785,0.2875,0.292,0.292,0.292,0.292,0.292,0.292,0.292,0.2877,0.2938,0.2946,0.3266,0.4958,0.5831,0.6054,0.7782,0.8743,0.8905,0.8966,0.9092,0.9263,0.9388,0.9445,0.9458,0.9563,0.9624,0.9624,0.9624,0.9624,0.9624,0.9624,0.9624,0.9821,1.0984,1.2047,1.2834,1.4171,1.53,1.5971,1.6359,1.669,1.686,1.7192,1.734,1.734,1.7527,1.7589,1.7589,1.7589,1.7629,1.7749,1.8023,1.8323,1.8611,1.8905,1.9072,1.9085,1.9259,1.9417,1.9533,1.9815,2.0097,2.0385,2.0666,2.0967,2.1368,2.2263,2.3095,2.3687,2.4625,2.5954,2.7466,2.8077,2.8291,2.8301,2.8301,2.8301,2.8301,2.8301,2.8301,2.8291,2.8301,2.8301,2.8291,2.8203,2.7949,2.7783,2.7734,2.7803,2.7653,2.8561,2.964,3.0784,3.1268,3.2368,3.381,3.4354,3.4366,3.4305,3.46,3.4713,3.4728,3.4715,3.4757,3.4835,3.5044,3.5403,3.5793,3.5931,3.5931,3.6081,3.6292,3.6714,0.2744,0.2568,0.2785,0.2837,0.2837,0.2831,0.2875,0.2875,0.2875,0.2877,0.2891,0.2978,0.2998,0.343,0.5151,0.61,0.6351,0.7982,0.8938,0.9096,0.9294,0.9409,0.9526,0.9587,0.96,0.96,0.9624,0.9624,0.9624,0.9624,0.9624,0.9624,0.9624,0.9624,0.9624,1.1473,1.264,1.3186,1.4929,1.6197,1.6346,1.6844,1.7125,1.7199,1.7395,1.7549,1.7562,1.7575,1.7589,1.7589,1.7589,1.7729,1.7975,1.833,1.8631,1.8905,1.9192,1.9339,1.9403,1.941,1.954,1.9758,2.0104,2.0385,2.0608,2.0967,2.1203,2.1539,2.2256,2.3303,2.4458,2.5461,2.6354,2.669,2.7691,2.8291,2.8301,2.8301,2.8301,2.8291,2.8262,2.8281,2.8271,2.8154,2.8096,2.8057,2.7871,2.7607,2.748,2.7324,2.71,2.7276,2.8299,2.965,3.033,3.1046,3.2653,3.4102,3.4306,3.4354,3.4158,3.4257,3.433,3.4329,3.4313,3.4352,3.4467,3.4618,3.4776,3.5102,3.529,3.5495,3.5629,3.5768,3.6153,0.2666,0.2568,0.2443,0.2431,0.2425,0.2439,0.247,0.2604,0.2604,0.276,0.2931,0.2996,0.3027,0.3532,0.5164,0.5981,0.6031,0.8106,0.9269,0.9326,0.9384,0.9458,0.96,0.9624,0.9624,0.9624,0.9624,0.9624,0.9624,0.9624,0.9624,0.9624,0.9624,0.9624,0.9723,1.1624,1.2797,1.3314,1.5182,1.6359,1.658,1.6998,1.7199,1.7233,1.7428,1.7589,1.7589,1.7589,1.7589,1.7589,1.7589,1.7816,1.8283,1.8631,1.8925,1.9192,1.9305,1.9424,1.9424,1.9424,1.954,1.9815,2.0097,2.0378,2.0666,2.1031,2.1539,2.2093,2.2093,2.2474,2.4283,2.5003,2.6009,2.7574,2.8077,2.8301,2.8301,2.8301,2.8301,2.8252,2.8047,2.7891,2.7812,2.7685,2.749,2.748,2.7314,2.7158,2.6885,2.6924,2.72,2.7591,2.8705,2.971,3.054,3.134,3.2571,3.354,3.3849,3.4148,3.3961,3.3961,3.4019,3.3987,3.3956,3.3977,3.4091,3.4186,3.4274,3.4525,3.4839,3.4931,3.4994,3.5303,3.5701,0.243,0.233,0.224,0.2267,0.2356,0.2355,0.2424,0.2604,0.2649,0.2725,0.2863,0.2843,0.2836,0.3171,0.4594,0.5432,0.5828,0.7748,0.8867,0.9308,0.9453,0.9527,0.962,0.9624,0.9624,0.9624,0.9624,0.9624,0.9624,0.9624,0.9624,0.9624,0.9624,0.9624,0.9834,1.1698,1.2849,1.2988,1.5227,1.648,1.6418,1.6949,1.736,1.7341,1.7488,1.7575,1.7589,1.7589,1.7589,1.7609,1.7682,1.8003,1.8457,1.8758,1.9058,1.935,1.9424,1.9424,1.9424,1.9424,1.9591,1.9931,2.0155,2.05,2.0788,2.1089,2.1596,2.2036,2.2587,2.3079,2.4458,2.5672,2.6726,2.8067,2.8291,2.8301,2.8301,2.8301,2.8301,2.8213,2.7939,2.7777,2.764,2.7295,2.7031,2.7002,2.6875,2.6738,2.6475,2.6465,2.6913,2.7634,2.8562,2.9602,3.082,3.1692,3.2577,3.3013,3.3242,3.3608,3.3744,3.3924,3.4028,3.3787,3.3734,3.3552,3.3583,3.3596,3.3671,3.4022,3.4324,3.4412,3.4512,3.4843,3.5294,0.2059,0.1957,0.2105,0.2229,0.2455,0.2403,0.2518,0.2747,0.2838,0.2786,0.2748,0.2653,0.2603,0.2701,0.3976,0.4895,0.567,0.705,0.8202,0.9004,0.9406,0.9517,0.9575,0.9624,0.9624,0.9624,0.9624,0.9624,0.9624,0.9624,0.9624,0.9624,0.9624,0.969,1.0222,1.2044,1.2544,1.2526,1.526,1.6362,1.5643,1.6879,1.7562,1.7608,1.7575,1.7589,1.7589,1.7629,1.7635,1.7649,1.7916,1.8217,1.851,1.8791,1.9105,1.941,1.9424,1.9424,1.9424,1.9482,1.9707,2.0162,2.0328,2.0565,2.1031,2.1203,2.1482,2.2036,2.3247,2.4505,2.5278,2.6509,2.7853,2.8237,2.8301,2.8301,2.8301,2.8301,2.8262,2.8154,2.79,2.765,2.7532,2.709,2.6885,2.6787,2.6543,2.6357,2.626,2.6182,2.6383,2.7256,2.8545,2.9674,3.0927,3.1646,3.2414,3.2702,3.2885,3.3154,3.3437,3.3649,3.3779,3.3602,3.3495,3.3244,3.3174,3.3232,3.3244,3.3432,3.3646,3.3796,3.4135,3.455,3.4994,0.2042,0.1985,0.1776,0.175,0.1789,0.1915,0.2038,0.2109,0.2341,0.2803,0.3219,0.2717,0.2799,0.36,0.4612,0.5275,0.5727,0.7375,0.8474,0.8878,0.9179,0.943,0.9579,0.9624,0.9624,0.9624,0.9624,0.9624,0.9624,0.9636,0.9632,0.9624,0.9652,1.0149,1.1107,1.1673,1.2425,1.3257,1.485,1.5937,1.6057,1.693,1.7582,1.7589,1.7589,1.7589,1.7609,1.7802,1.7869,1.7889,1.821,1.8504,1.8778,1.9065,1.9265,1.9397,1.9424,1.9424,1.9424,1.9591,1.9873,2.0277,2.0436,2.0788,2.1153,2.1211,2.2036,2.3135,2.3847,2.4625,2.6563,2.7124,2.7466,2.813,2.8262,2.8262,2.8271,2.8291,2.8184,2.7851,2.7441,2.7109,2.6797,2.6445,2.6162,2.6123,2.6055,2.5957,2.5937,2.6133,2.638,2.7662,2.8885,2.9977,3.0916,3.162,3.2155,3.2435,3.2609,3.2846,3.3064,3.3208,3.3277,3.3232,3.3282,3.3162,3.3136,3.3174,3.3136,3.3124,3.3237,3.347,3.3922,3.4336,3.4761,0.1819,0.1814,0.1614,0.1586,0.1664,0.1751,0.1868,0.2013,0.2123,0.2776,0.3331,0.2591,0.2725,0.3674,0.4277,0.4776,0.5275,0.6927,0.8127,0.8874,0.9229,0.948,0.9579,0.9624,0.9624,0.9624,0.9624,0.9624,0.9644,0.9697,0.9647,0.9677,0.9782,1.047,1.1446,1.1746,1.2425,1.3818,1.499,1.5716,1.5956,1.6995,1.7529,1.7589,1.7589,1.7622,1.7776,1.7896,1.7989,1.8075,1.843,1.8751,1.8918,1.9205,1.9417,1.9424,1.9424,1.9424,1.9482,1.9649,1.9931,2.027,2.0551,2.0845,2.1261,2.1596,2.2757,2.3528,2.4142,2.5525,2.6907,2.7295,2.7628,2.8165,2.8135,2.8037,2.8037,2.8018,2.7832,2.7441,2.7021,2.6689,2.6396,2.6006,2.5791,2.5703,2.5762,2.5723,2.5752,2.61,2.6696,2.8028,2.9235,3.0306,3.1193,3.1893,3.2288,3.2487,3.2661,3.281,3.2896,3.2995,3.305,3.3162,3.3136,3.3124,3.3124,3.3124,3.3124,3.3124,3.3124,3.325,3.3633,3.4098,3.4521,0.1566,0.1564,0.1585,0.17,0.181,0.182,0.1884,0.2093,0.2125,0.2637,0.3127,0.2348,0.2585,0.3373,0.3825,0.4076,0.5077,0.6431,0.7531,0.8577,0.9229,0.9529,0.9579,0.9624,0.9624,0.9624,0.9624,0.9652,0.9697,0.9815,0.9815,0.9807,1.0018,1.0737,1.1504,1.1874,1.2682,1.3879,1.4876,1.56,1.6015,1.6995,1.7589,1.7589,1.7589,1.7736,1.7889,1.8035,1.8075,1.8095,1.8651,1.8898,1.8998,1.9252,1.9403,1.9424,1.9424,1.9424,1.9482,1.9707,1.9982,2.027,2.0608,2.0845,2.131,2.2093,2.303,2.3584,2.525,2.63,2.6961,2.7736,2.813,2.8242,2.7949,2.7748,2.765,2.764,2.7432,2.7021,2.6602,2.6426,2.623,2.6025,2.5684,2.5684,2.5684,2.5684,2.5955,2.6418,2.72,2.8355,2.951,3.0678,3.146,3.2257,3.2463,3.2723,3.2909,3.3038,3.3038,3.3081,3.3081,3.3124,3.3124,3.3124,3.3124,3.3124,3.3124,3.3124,3.3124,3.3174,3.3356,3.377,3.4197,0.1566,0.1564,0.1584,0.1603,0.1619,0.1727,0.1724,0.1694,0.189,0.2455,0.2871,0.2152,0.276,0.4425,0.4425,0.5077,0.6032,0.7086,0.8134,0.873,0.913,0.943,0.9533,0.9599,0.9636,0.964,0.9632,0.9705,0.9819,0.9892,0.9949,1.0102,1.0227,1.0841,1.1835,1.1323,1.1942,1.3661,1.4438,1.5102,1.6074,1.6995,1.7589,1.7589,1.7595,1.7756,1.7982,1.827,1.8497,1.8711,1.8858,1.9045,1.9212,1.937,1.9417,1.9424,1.9424,1.9424,1.9482,1.9873,2.0213,2.0328,2.0795,2.1146,2.1261,2.2369,2.3416,2.4292,2.5626,2.6898,2.7634,2.8048,2.8242,2.8154,2.7842,2.7532,2.7246,2.7168,2.6963,2.6631,2.6426,2.626,2.5947,2.582,2.5684,2.5684,2.5684,2.5684,2.6139,2.6638,2.7615,2.868,2.9977,3.1092,3.1781,3.2431,3.268,3.2853,3.2995,3.3124,3.3124,3.3124,3.3124,3.3124,3.3124,3.3124,3.3124,3.3124,3.3124,3.3124,3.3149,3.328,3.3467,3.3761,3.3959,0.1566,0.1564,0.16,0.1575,0.1594,0.1611,0.1606,0.1524,0.1622,0.2277,0.2828,0.2059,0.2822,0.4724,0.4824,0.5377,0.6481,0.7637,0.8382,0.8847,0.9149,0.95,0.9678,0.9672,0.9696,0.9732,0.9851,0.9937,1.001,1.0091,1.0156,1.0237,1.0367,1.1035,1.1882,1.1093,1.2309,1.426,1.44,1.4888,1.6558,1.7259,1.7589,1.7635,1.7722,1.7943,1.825,1.8537,1.8831,1.9052,1.9132,1.9192,1.9383,1.9424,1.9424,1.9424,1.9424,1.9482,1.9649,1.9989,2.0328,2.0493,2.091,2.1146,2.1645,2.2749,2.3958,2.4893,2.6155,2.7624,2.7974,2.7998,2.7998,2.7881,2.7441,2.706,2.6992,2.6836,2.6553,2.6211,2.6064,2.5967,2.5771,2.5693,2.5684,2.5684,2.5684,2.5732,2.6235,2.6829,2.784,2.8993,3.0396,3.1472,3.2145,3.2593,3.2853,3.2995,3.3081,3.3124,3.3124,3.3124,3.3124,3.3124,3.3124,3.3124,3.3124,3.3124,3.3124,3.3124,3.3217,3.3429,3.3566,3.37,3.3913,0.1566,0.1566,0.1566,0.1599,0.157,0.1544,0.1534,0.1486,0.1533,0.2039,0.2658,0.1957,0.2772,0.4423,0.4774,0.5479,0.6739,0.7725,0.8489,0.8748,0.9139,0.9427,0.9619,0.9626,0.9752,0.9891,0.9955,1.0092,1.0229,1.0339,1.0347,1.0314,1.0517,1.1012,1.1554,1.1354,1.2132,1.4728,1.4508,1.5209,1.7041,1.7582,1.7589,1.7629,1.7862,1.8089,1.843,1.8731,1.9038,1.9397,1.9424,1.9424,1.9424,1.9424,1.9424,1.9424,1.9424,1.954,1.9758,2.0097,2.0436,2.0716,2.1024,2.1153,2.1645,2.3135,2.4339,2.5388,2.6535,2.796,2.7656,2.7695,2.7656,2.7471,2.6855,2.6631,2.6738,2.6543,2.6143,2.5889,2.5791,2.5762,2.5723,2.5684,2.5684,2.5684,2.5684,2.5917,2.6418,2.721,2.8262,2.9464,3.0869,3.1869,3.2506,3.2736,3.3038,3.3081,3.3124,3.3124,3.3124,3.3124,3.3124,3.3124,3.3124,3.3124,3.3124,3.3124,3.3124,3.3124,3.3192,3.3341,3.3474,3.3598,3.3849,0.1566,0.1566,0.1566,0.1599,0.1573,0.1566,0.1563,0.1564,0.1563,0.1679,0.1807,0.1715,0.2772,0.4373,0.4774,0.5879,0.7356,0.8119,0.8391,0.8567,0.8907,0.9164,0.9349,0.9553,0.9701,0.9879,0.9953,1.0063,1.0314,1.042,1.0493,1.0586,1.0651,1.0925,1.0975,1.0895,1.1932,1.4239,1.4352,1.5316,1.7041,1.7589,1.7615,1.7649,1.7943,1.823,1.8504,1.8784,1.9065,1.9383,1.9424,1.9424,1.9424,1.9424,1.9424,1.9424,1.9424,1.954,1.9815,2.0097,2.0385,2.0673,2.1024,2.1203,2.1759,2.3223,2.4548,2.5491,2.6714,2.7949,2.7207,2.7363,2.7402,2.7119,2.6719,2.6406,2.6416,2.6182,2.5849,2.5703,2.5684,2.5684,2.5684,2.5684,2.5684,2.5684,2.5684,2.6139,2.6829,2.7757,2.8866,3.0113,3.1427,3.2232,3.2952,3.2995,3.3081,3.3081,3.3124,3.3124,3.3124,3.3124,3.3124,3.3124,3.3124,3.3124,3.3124,3.3124,3.3124,3.3124,3.3167,3.324,3.3484,3.3713,3.3924,0.1566,0.1566,0.1566,0.1609,0.1594,0.1577,0.1581,0.1592,0.1579,0.1588,0.1609,0.1667,0.2772,0.4323,0.4774,0.5977,0.7566,0.8106,0.8298,0.8549,0.8784,0.9088,0.9276,0.9528,0.9826,1.005,1.005,1.0192,1.0558,1.057,1.0611,1.066,1.0692,1.0692,1.0692,1.0798,1.1987,1.3599,1.4239,1.5263,1.7364,1.7589,1.7649,1.7869,1.8116,1.8417,1.8704,1.8998,1.9205,1.9339,1.9424,1.9424,1.9424,1.9424,1.9424,1.9424,1.9424,1.9591,1.9924,2.0213,2.0507,2.091,2.1146,2.1203,2.1707,2.3047,2.4798,2.6151,2.6542,2.749,2.707,2.7051,2.6885,2.6689,2.6328,2.6221,2.6221,2.5957,2.5771,2.5684,2.5684,2.5684,2.5684,2.5684,2.5684,2.5684,2.5732,2.637,2.7189,2.8262,2.9372,3.0576,3.1781,3.2463,3.2995,3.3081,3.3124,3.3124,3.3124,3.3124,3.3124,3.3124,3.3124,3.3124,3.3124,3.3124,3.3124,3.3124,3.3124,3.3124,3.324,3.3356,3.3598,3.3839,3.4063,0.1566,0.1566,0.1566,0.162,0.162,0.1593,0.1598,0.1616,0.1594,0.1595,0.1564,0.1717,0.2772,0.4474,0.5479,0.6489,0.8032,0.8123,0.8323,0.8591,0.8829,0.9069,0.9305,0.9661,0.9856,1.0053,1.0221,1.0417,1.0613,1.0668,1.0684,1.0692,1.0692,1.0692,1.0692,1.0692,1.215,1.3383,1.4186,1.5316,1.7041,1.7655,1.7782,1.8015,1.8384,1.8691,1.8891,1.9172,1.937,1.9417,1.9424,1.9424,1.9424,1.9424,1.9424,1.9424,1.9424,1.9707,2.0104,2.027,2.0565,2.1081,2.1203,2.1211,2.1684,2.3029,2.4951,2.6821,2.7275,2.6934,2.668,2.6533,2.6387,2.6201,2.5996,2.5791,2.6006,2.5947,2.5742,2.5684,2.5684,2.5684,2.5684,2.5684,2.5684,2.5955,2.6004,2.6877,2.7746,2.8773,2.9886,3.0979,3.1989,3.2624,3.3038,3.3081,3.3124,3.3124,3.3124,3.3124,3.3124,3.3124,3.3124,3.3124,3.3124,3.3124,3.3124,3.3124,3.3154,3.3197,3.3313,3.3513,3.3768,3.3937,3.4105,0.1566,0.1617,0.1617,0.1633,0.165,0.1625,0.163,0.1702,0.1624,0.1562,0.162,0.1768,0.2873,0.4876,0.6842,0.7764,0.8177,0.8336,0.8456,0.8594,0.88,0.8876,0.8913,0.9249,0.9695,0.9981,1.0202,1.0417,1.0637,1.0692,1.0692,1.0692,1.0692,1.0692,1.0692,1.0692,1.1878,1.3701,1.4186,1.5316,1.7245,1.7829,1.7922,1.8135,1.8537,1.8878,1.8991,1.9232,1.9417,1.9424,1.9424,1.9424,1.9424,1.9424,1.9424,1.9424,1.9482,1.9649,2.0155,2.0328,2.0565,2.1031,2.1211,2.1211,2.1861,2.3002,2.4739,2.627,2.6748,2.6649,2.6299,2.624,2.6133,2.5996,2.5771,2.5703,2.5771,2.5908,2.5703,2.5684,2.5684,2.5684,2.5684,2.5684,2.5732,2.6004,2.6466,2.7379,2.8437,2.9555,3.0474,3.1625,3.222,3.2853,3.3038,3.3081,3.3124,3.3124,3.3124,3.3124,3.3124,3.3124,3.3124,3.3124,3.3124,3.3124,3.3124,3.3124,3.3197,3.327,3.3398,3.3696,3.3992,3.4118,3.4202,0.1643,0.1642,0.1642,0.166,0.1683,0.1671,0.1673,0.1678,0.1656,0.1643,0.1791,0.233,0.3676,0.5741,0.7513,0.8204,0.8292,0.8425,0.8533,0.8601,0.8754,0.8876,0.9184,0.9449,0.9761,1.0088,1.0363,1.0582,1.0692,1.0692,1.0692,1.0692,1.0692,1.0692,1.0692,1.0692,1.2037,1.3814,1.5316,1.6552,1.7391,1.7876,1.8075,1.8297,1.8718,1.8978,1.9165,1.9272,1.9424,1.9424,1.9424,1.9424,1.9424,1.9424,1.9424,1.9424,1.9533,1.9815,2.0213,2.027,2.0622,2.1031,2.1288,2.1594,2.2403,2.322,2.4535,2.6265,2.6299,2.6201,2.6103,2.6045,2.5918,2.5752,2.5713,2.5684,2.5684,2.5684,2.5684,2.5684,2.5684,2.5684,2.5684,2.5684,2.5732,2.5965,2.6648,2.7757,2.9131,3.0643,3.1524,3.2351,3.2754,3.3038,3.3081,3.3124,3.3124,3.3124,3.3124,3.3124,3.3124,3.3124,3.3124,3.3124,3.3124,3.3124,3.3124,3.3154,3.3185,3.3356,3.3526,3.3823,3.4076,3.4243,3.4314,0.1729,0.1736,0.1728,0.1689,0.1714,0.1707,0.1709,0.1712,0.1728,0.1714,0.2066,0.3001,0.4688,0.6388,0.7652,0.8357,0.8401,0.8492,0.8625,0.872,0.8777,0.9002,0.9336,0.9655,0.9981,1.0308,1.0527,1.0637,1.0692,1.0692,1.0692,1.0692,1.0692,1.0692,1.0692,1.0852,1.1823,1.4024,1.6287,1.7358,1.7756,1.8016,1.831,1.8591,1.8878,1.9145,1.9383,1.9424,1.9424,1.9424,1.9424,1.9424,1.9424,1.9424,1.9424,1.9482,1.9591,1.9931,2.0213,2.0443,2.068,2.1031,2.1395,2.1831,2.3266,2.3646,2.4402,2.64,2.6025,2.6152,2.6279,2.6103,2.5879,2.582,2.583,2.5723,2.5684,2.5684,2.5684,2.5684,2.5684,2.5684,2.5684,2.5684,2.5781,2.5917,2.6791,2.8121,2.9772,3.1569,3.2164,3.281,3.2939,3.3124,3.3124,3.3124,3.3124,3.3124,3.3124,3.3124,3.3124,3.3124,3.3124,3.3124,3.3124,3.3124,3.3124,3.3154,3.3227,3.3484,3.3683,3.3894,3.4147,3.4314,3.4397,0.1718,0.1796,0.1714,0.1773,0.1799,0.1716,0.1721,0.1791,0.1739,0.1766,0.2271,0.3716,0.5337,0.6734,0.7785,0.8445,0.8662,0.8686,0.8777,0.8866,0.8923,0.9078,0.9434,0.9706,0.9981,1.0257,1.0531,1.0637,1.0692,1.0637,1.0692,1.0692,1.0692,1.0692,1.0852,1.1177,1.2173,1.4283,1.6461,1.7742,1.8023,1.8303,1.8584,1.8858,1.9145,1.941,1.9424,1.9424,1.9424,1.9424,1.9424,1.9424,1.9424,1.9424,1.9424,1.954,1.9758,2.0026,2.0279,2.0529,2.0845,2.1089,2.1365,2.1943,2.3707,2.3653,2.4664,2.6378,2.62,2.625,2.6416,2.6288,2.5918,2.5976,2.5957,2.5723,2.5684,2.5684,2.5684,2.5684,2.5684,2.5684,2.5684,2.5684,2.5684,2.583,2.7579,2.8958,3.0744,3.2307,3.2581,3.2939,3.3038,3.3124,3.3124,3.3124,3.3124,3.3124,3.3124,3.3124,3.3124,3.3124,3.3124,3.3124,3.3124,3.3124,3.3167,3.3283,3.3441,3.3641,3.3852,3.4021,3.4189,3.4356,3.4397,0.1794,0.1804,0.1757,0.1767,0.1776,0.1765,0.1756,0.1798,0.1759,0.2494,0.3618,0.4645,0.6004,0.7416,0.8161,0.8594,0.872,0.8818,0.8879,0.8916,0.8937,0.921,0.9485,0.9761,0.9981,1.0257,1.0421,1.0476,1.0417,1.0527,1.0582,1.0637,1.07,1.0692,1.0907,1.1955,1.3306,1.4554,1.6518,1.7962,1.8317,1.8591,1.8804,1.8925,1.9212,1.941,1.9424,1.9424,1.9424,1.9424,1.9424,1.9424,1.9424,1.9424,1.9482,1.9642,1.9917,2.0122,2.0273,2.0566,2.0845,2.1038,2.1141,2.1854,2.3862,2.3783,2.4823,2.5922,2.6523,2.6494,2.6748,2.6309,2.581,2.6113,2.6084,2.5771,2.5684,2.5684,2.5684,2.5684,2.5684,2.5684,2.5684,2.5684,2.5684,2.5868,2.7898,2.9829,3.1536,3.2736,3.2952,3.3038,3.3081,3.3124,3.3124,3.3124,3.3124,3.3124,3.3124,3.3124,3.3124,3.3124,3.3124,3.3124,3.3124,3.3167,3.324,3.3441,3.3598,3.3768,3.3937,3.4118,3.4285,3.4397,3.4397,0.1818,0.1821,0.1786,0.1795,0.1795,0.1795,0.1777,0.1802,0.1717,0.2877,0.4873,0.5397,0.6608,0.8073,0.8591,0.874,0.8798,0.8824,0.892,0.8937,0.9047,0.932,0.9596,0.9761,0.9926,1.0147,1.0312,1.0308,1.0308,1.0366,1.0527,1.0708,1.0745,1.0757,1.1244,1.2979,1.4412,1.5154,1.6851,1.8268,1.8617,1.8791,1.8998,1.9058,1.9279,1.941,1.9424,1.9424,1.9424,1.9424,1.9424,1.9424,1.9424,1.9424,1.9533,1.9788,2.0007,2.0238,2.0388,2.0586,2.0829,2.0934,2.1309,2.2324,2.3545,2.4189,2.5286,2.6997,2.6992,2.6738,2.707,2.6533,2.6113,2.6289,2.5977,2.5684,2.5684,2.5684,2.5684,2.5684,2.5684,2.5684,2.5771,2.5917,2.66,2.702,2.8819,3.0564,3.1933,3.281,3.3038,3.3081,3.3124,3.3124,3.3124,3.3124,3.3124,3.3124,3.3124,3.3124,3.3124,3.3124,3.3124,3.3124,3.3167,3.3197,3.3368,3.3526,3.3683,3.381,3.4021,3.4243,3.4285,3.4397,3.4397,0.1793,0.1794,0.1794,0.1795,0.1795,0.1795,0.1778,0.1802,0.1878,0.305,0.5058,0.6107,0.7276,0.8415,0.8716,0.8801,0.8882,0.8868,0.8937,0.8937,0.9103,0.9323,0.9489,0.9651,0.9761,0.9871,1.0036,1.0202,1.0257,1.0461,1.0614,1.0773,1.0867,1.0899,1.1012,1.3282,1.4606,1.521,1.7334,1.842,1.8865,1.8965,1.9112,1.9245,1.9383,1.9424,1.9424,1.9424,1.9424,1.9424,1.9424,1.9424,1.9424,1.9424,1.9533,1.9809,1.9861,2.0125,2.0573,2.0698,2.0954,2.0984,2.1428,2.2686,2.4166,2.4996,2.5764,2.748,2.7402,2.7246,2.7168,2.6894,2.6533,2.625,2.5947,2.5684,2.5684,2.5684,2.5684,2.5684,2.5684,2.5732,2.582,2.6187,2.7295,2.8402,2.992,3.1291,3.2438,3.2896,3.3081,3.3124,3.3124,3.3124,3.3124,3.3124,3.3124,3.3124,3.3124,3.3124,3.3124,3.3124,3.3124,3.3124,3.3167,3.321,3.3398,3.3598,3.381,3.4063,3.4189,3.4356,3.4397,3.4397,3.4397,0.1795,0.1795,0.1795,0.1795,0.1795,0.1795,0.1778,0.1911,0.2628,0.3737,0.516,0.6393,0.7573,0.8447,0.8815,0.8831,0.8923,0.8937,0.8937,0.8937,0.9103,0.9213,0.9379,0.9489,0.9544,0.9596,0.9816,0.9985,0.9985,1.0402,1.0751,1.0863,1.1045,1.1094,1.1689,1.338,1.491,1.5556,1.7352,1.8911,1.9172,1.9212,1.931,1.9424,1.9424,1.9424,1.9424,1.9424,1.9424,1.9424,1.9424,1.9424,1.9424,1.9424,1.9649,1.9989,2.0173,2.0274,2.1013,2.1553,2.2049,2.1779,2.186,2.2961,2.4113,2.4986,2.6194,2.7381,2.7627,2.7581,2.748,2.6836,2.6426,2.6299,2.6045,2.5762,2.5684,2.5684,2.5684,2.5684,2.5684,2.582,2.5965,2.6524,2.7542,2.8634,3.0011,3.138,3.2612,3.2896,3.3124,3.3124,3.3124,3.3124,3.3124,3.3124,3.3124,3.3124,3.3124,3.3124,3.3124,3.3124,3.3124,3.3124,3.3167,3.321,3.3526,3.381,3.4105,3.4314,3.4356,3.4397,3.4397,3.4397,3.4397,0.1795,0.1795,0.1795,0.1795,0.1795,0.1795,0.1999,0.251,0.3593,0.471,0.5881,0.7127,0.8036,0.8641,0.8882,0.8937,0.8937,0.9047,0.894,0.8992,0.9158,0.9213,0.9268,0.9379,0.9434,0.9489,0.9662,0.989,1.0143,1.0463,1.0867,1.1163,1.1261,1.1354,1.2119,1.3587,1.5153,1.6021,1.7636,1.9152,1.9299,1.9403,1.941,1.9424,1.9424,1.9424,1.9424,1.9424,1.9424,1.9424,1.9424,1.9424,1.9424,1.9533,1.9764,2.0162,2.0981,2.1176,2.1786,2.2751,2.3061,2.2791,2.2773,2.3533,2.4605,2.5598,2.6608,2.7519,2.7715,2.762,2.7363,2.668,2.6396,2.626,2.6006,2.5713,2.5684,2.5684,2.5684,2.5684,2.5732,2.5917,2.6197,2.7003,2.7788,2.8877,3.0011,3.138,3.2655,3.2939,3.3124,3.3124,3.3124,3.3124,3.3124,3.3124,3.3124,3.3124,3.3124,3.3124,3.3124,3.3124,3.3124,3.3124,3.324,3.3411,3.3768,3.405,3.4272,3.4356,3.4397,3.4397,3.4397,3.4397,3.4397,0.1795,0.1795,0.1795,0.1795,0.1795,0.1795,0.2386,0.3486,0.4559,0.5745,0.6964,0.7942,0.8689,0.8854,0.8937,0.8937,0.8937,0.9158,0.9106,0.9103,0.9265,0.9213,0.9158,0.9268,0.9379,0.9493,0.9743,1.0158,1.0502,1.0838,1.1174,1.1423,1.1488,1.1747,1.2662,1.3996,1.5279,1.616,1.7925,1.9132,1.9424,1.9424,1.9424,1.9424,1.9424,1.9424,1.9424,1.9424,1.9424,1.9424,1.9424,1.9424,1.9482,1.9649,1.9931,2.0658,2.1892,2.2371,2.2553,2.3436,2.4227,2.4233,2.4828,2.5436,2.5779,2.6238,2.7049,2.7629,2.7881,2.7471,2.707,2.6689,2.6318,2.6084,2.5781,2.5684,2.5684,2.5684,2.5684,2.5732,2.5781,2.5965,2.6352,2.7061,2.7846,2.9211,3.0294,3.1291,3.2438,3.2982,3.3124,3.3124,3.3124,3.3124,3.3124,3.3124,3.3124,3.3124,3.3124,3.3124,3.3124,3.3124,3.3167,3.3197,3.3368,3.3569,3.3894,3.4147,3.4356,3.4397,3.4397,3.4397,3.4397,3.4397,3.4397,0.1795,0.1795,0.1795,0.1795,0.1795,0.1795,0.1999,0.2516,0.433,0.5604,0.5945,0.7947,0.8834,0.8937,0.8937,0.8937,0.8937,0.8995,0.8992,0.9047,0.9158,0.9051,0.9106,0.9213,0.9379,0.9643,0.9984,1.0355,1.0636,1.106,1.1439,1.1663,1.1842,1.232,1.3324,1.4726,1.5344,1.6315,1.8233,1.9068,1.9424,1.9424,1.9424,1.9424,1.9424,1.9424,1.9424,1.9424,1.9424,1.9424,1.9424,1.9424,1.9424,1.9649,2.004,2.0716,2.2046,2.3095,2.2923,2.45,2.5585,2.5472,2.5871,2.6039,2.627,2.6674,2.7331,2.7734,2.7891,2.751,2.709,2.6689,2.6279,2.5888,2.5703,2.5684,2.5732,2.5723,2.5771,2.5878,2.5917,2.612,2.6506,2.6842,2.7715,2.9314,3.0588,3.1492,3.2264,3.2853,3.3124,3.3124,3.3124,3.3124,3.3124,3.3124,3.3124,3.3124,3.3124,3.3124,3.3124,3.3124,3.3167,3.3326,3.3569,3.3781,3.4034,3.4243,3.4397,3.4397,3.4397,3.4397,3.4397,3.4397,3.4397,0.1795,0.1797,0.1808,0.1819,0.1828,0.1818,0.2025,0.2791,0.4576,0.5771,0.6892,0.8229,0.8937,0.8937,0.8937,0.8937,0.8937,0.9103,0.9103,0.8937,0.8995,0.9103,0.9213,0.9334,0.9591,0.9872,1.025,1.0644,1.0908,1.1314,1.1691,1.1808,1.213,1.29,1.3959,1.5306,1.6262,1.7103,1.8175,1.9127,1.9424,1.9424,1.9424,1.9424,1.9424,1.9424,1.9424,1.9424,1.9424,1.9424,1.9424,1.9482,1.9591,1.9924,2.0215,2.1026,2.2529,2.3187,2.3397,2.5194,2.6012,2.6384,2.6647,2.6845,2.7017,2.7323,2.762,2.79,2.7764,2.7549,2.7119,2.6689,2.6191,2.5752,2.5713,2.5684,2.5723,2.582,2.5917,2.6014,2.6207,2.641,2.6651,2.689,2.7678,2.936,3.0588,3.1347,3.222,3.2939,3.3124,3.3124,3.3124,3.3124,3.3124,3.3124,3.3124,3.3124,3.3124,3.3124,3.3124,3.324,3.3368,3.3611,3.3907,3.4076,3.416,3.4285,3.4397,3.4397,3.4397,3.4397,3.4397,3.4397,3.4397,0.1795,0.1797,0.1827,0.1857,0.1941,0.1969,0.2697,0.3839,0.5124,0.6697,0.8315,0.8823,0.8937,0.8937,0.8937,0.8937,0.8937,0.9103,0.9103,0.894,0.9103,0.9213,0.9327,0.9455,0.982,1.0306,1.0668,1.1009,1.1425,1.1654,1.1796,1.1893,1.2664,1.343,1.4376,1.58,1.6868,1.7935,1.8648,1.9424,1.9424,1.9424,1.9424,1.9424,1.9424,1.9424,1.9424,1.9424,1.9424,1.9424,1.9424,1.954,1.9931,2.0314,2.0566,2.1481,2.2933,2.362,2.4193,2.5652,2.6721,2.7114,2.7305,2.7484,2.7626,2.7577,2.7783,2.793,2.7851,2.749,2.7051,2.6592,2.6133,2.5801,2.5693,2.5684,2.5732,2.5868,2.6052,2.6207,2.6448,2.6651,2.6842,2.7177,2.8175,2.9669,3.0678,3.1403,3.2176,3.2995,3.3124,3.3124,3.3124,3.3124,3.3124,3.3124,3.3124,3.3124,3.3124,3.3124,3.3124,3.3326,3.3556,3.3823,3.4034,3.4202,3.4314,3.4356,3.4397,3.4397,3.4397,3.4397,3.4397,3.4397,3.4397,0.1795,0.1797,0.1827,0.187,0.2029,0.2791,0.3871,0.512,0.6221,0.6985,0.7654,0.8436,0.8937,0.8937,0.8937,0.8937,0.8937,0.8992,0.8995,0.8947,0.9058,0.9355,0.9529,0.9786,1.0145,1.0535,1.0932,1.1342,1.1642,1.1744,1.1837,1.1837,1.2608,1.3435,1.4911,1.6279,1.7285,1.859,1.9062,1.9424,1.9424,1.9424,1.9424,1.9424,1.9424,1.9424,1.9424,1.9424,1.9424,1.9424,1.9424,1.9649,2.0155,2.0551,2.1301,2.2336,2.314,2.3857,2.474,2.5763,2.6752,2.7207,2.7402,2.7803,2.7959,2.7783,2.7764,2.793,2.7822,2.7393,2.6973,2.6504,2.6074,2.5889,2.5684,2.5684,2.5732,2.5965,2.6245,2.6486,2.6688,2.6928,2.7177,2.7857,2.8899,2.9897,3.0902,3.1713,3.2394,3.3124,3.3124,3.3124,3.3124,3.3124,3.3124,3.3124,3.3124,3.3124,3.3124,3.3124,3.3124,3.3454,3.3781,3.3949,3.416,3.4285,3.4356,3.4356,3.4397,3.4397,3.4397,3.4397,3.4397,3.4397,3.4397,0.1795,0.18,0.1842,0.2249,0.2835,0.341,0.4659,0.6232,0.6914,0.7432,0.7934,0.8602,0.8937,0.8937,0.8937,0.8937,0.8937,0.8937,0.9047,0.9109,0.9234,0.9597,0.9879,1.0201,1.0624,1.1029,1.1354,1.1679,1.1824,1.1837,1.1837,1.2014,1.2608,1.4033,1.5747,1.6579,1.7766,1.9307,1.9366,1.9424,1.9424,1.9424,1.9424,1.9424,1.9424,1.9424,1.9424,1.9424,1.9424,1.954,1.9649,1.9989,2.0443,2.0788,2.1395,2.2269,2.3079,2.3835,2.4856,2.5863,2.6758,2.7119,2.7637,2.8105,2.7851,2.7705,2.7871,2.7978,2.7539,2.7109,2.6855,2.6435,2.5996,2.5732,2.5742,2.5791,2.5927,2.61,2.6486,2.6918,2.7241,2.7741,2.8117,2.8817,2.9761,3.0576,3.1492,3.1989,3.2667,3.3124,3.3124,3.3124,3.3124,3.3124,3.3124,3.3124,3.3124,3.3124,3.3124,3.324,3.3368,3.3696,3.3949,3.4118,3.4285,3.4314,3.4397,3.4397,3.4397,3.4397,3.4397,3.4397,3.4397,3.4397,3.4397,0.18,0.1814,0.2101,0.282,0.3849,0.4166,0.5397,0.7114,0.737,0.7934,0.8716,0.8826,0.8937,0.8937,0.8937,0.8937,0.8954,0.8991,0.9147,0.9356,0.9522,0.99,1.0319,1.072,1.1047,1.1374,1.1671,1.1732,1.1833,1.1837,1.1953,1.2371,1.3734,1.5397,1.6284,1.7584,1.9004,1.9307,1.9424,1.9424,1.9424,1.9424,1.9424,1.9424,1.9424,1.9424,1.9424,1.9424,1.9424,1.9707,1.9989,2.0328,2.0615,2.0952,2.1826,2.2583,2.3286,2.4079,2.5029,2.6378,2.69,2.7314,2.791,2.8018,2.7734,2.7734,2.79,2.7676,2.7236,2.6943,2.6639,2.6308,2.5918,2.5742,2.5791,2.5985,2.6159,2.6342,2.6774,2.7251,2.7799,2.8341,2.8888,2.9624,3.0576,3.1359,3.1945,3.2407,3.281,3.2995,3.3124,3.3124,3.3124,3.3124,3.3124,3.3124,3.3124,3.3124,3.3167,3.3356,3.3611,3.3865,3.4076,3.4272,3.4397,3.4397,3.4397,3.4397,3.4397,3.4397,3.4397,3.4397,3.4397,3.4397,3.4397,0.1824,0.1989,0.3036,0.3693,0.4156,0.5825,0.6975,0.7464,0.8217,0.8716,0.8826,0.8937,0.8937,0.8937,0.8937,0.895,0.8988,0.9045,0.9268,0.9532,0.9842,1.0295,1.0651,1.1012,1.1308,1.1607,1.1808,1.1824,1.1837,1.1837,1.1837,1.2014,1.3255,1.4679,1.5871,1.7291,1.8648,1.9068,1.9424,1.9424,1.9424,1.9424,1.9424,1.9424,1.9424,1.9424,1.9424,1.9424,1.9533,1.9815,2.0263,2.0551,2.0788,2.1124,2.2015,2.3176,2.3877,2.488,2.5956,2.6859,2.7305,2.7353,2.7764,2.7744,2.762,2.7591,2.7539,2.7314,2.6973,2.6807,2.6543,2.6064,2.5703,2.583,2.5868,2.6265,2.6554,2.6688,2.6928,2.7536,2.8128,2.8527,2.8945,2.9943,3.127,3.1957,3.2407,3.2853,3.2939,3.3038,3.3124,3.3124,3.3124,3.3124,3.3124,3.3124,3.3124,3.3124,3.321,3.3441,3.3696,3.3949,3.4202,3.4356,3.4397,3.4397,3.4397,3.4397,3.4397,3.4397,3.4397,3.4397,3.4397,3.4397,3.4397]}]]